[[{"header":{"parameterUnit":"m.s-1","parameterCategory":1,"la1":30.6,"la2":28.766,"lo1":-90.7593,"lo2":-88.6598,"dy":0.0162,"dx":0.0183,"nx":116,"ny":114,"refTime":"2023-10-18T18:00:00:Z","depth":0,"parameterNumber":2,"parameterNumberName":"U-component_of_WINDS"},"data":[0.0,0.0,0.0,0.0,0.0,0.0,0.0,0.0,0.0,0.0,0.0,0.0,0.0,0.0,0.0,0.0,0.0,0.0,0.0,0.0,0.0,0.0,0.0,0.0,0.0,0.0,0.0,0.0,0.0,0.0,0.0,0.0,0.0,0.0,0.0,0.0,0.0,0.0,0.0,0.0,0.0,0.0,0.0,0.0,0.0,0.0,0.0,0.0,0.0,0.0,0.0,0.0,0.0,0.0,0.0,0.0,0.0,0.0,0.0,0.0,0.0,0.0,0.0,0.0,0.0,0.0,0.0,0.0,0.0,0.0,0.0,0.0,0.0,0.0,0.0,0.0,0.0,0.0,0.0,0.0,0.0,0.0,0.0,0.0,0.0,0.0,0.0,0.0,0.0,0.0,0.0,0.0,0.0,0.0,0.0,0.0,0.0,0.0,0.0,0.0,0.0,0.0,0.0,0.0,0.0,0.0,0.0,0.0,0.0,0.0,0.0,0.0,0.0,0.0,0.0,0.0,0.0,0.0,0.0,0.0,0.0,0.0,0.0,0.0,0.0,0.0,0.0,0.0,0.0,0.0,0.0,0.0,0.0,0.0,0.0,0.0,0.0,0.0,0.0,0.0,0.0,0.0,0.0,0.0,0.0,0.0,0.0,0.0,0.0,0.0,0.0,0.0,0.0,0.0,0.0,0.0,0.0,0.0,0.0,0.0,0.0,0.0,0.0,0.0,0.0,0.0,0.0,0.0,0.0,0.0,0.0,0.0,0.0,0.0,0.0,0.0,0.0,0.0,0.0,0.0,0.0,0.0,0.0,0.0,0.0,0.0,0.0,0.0,0.0,0.0,0.0,0.0,0.0,0.0,0.0,0.0,0.0,0.0,0.0,0.0,0.0,0.0,0.0,0.0,0.0,0.0,0.0,0.0,0.0,0.0,0.0,0.0,0.0,0.0,0.0,0.0,0.0,0.0,0.0,0.0,0.0,0.0,0.0,0.0,0.0,0.0,0.0,0.0,0.0,0.0,0.0,0.0,0.0,0.0,0.0,0.0,0.0,0.0,0.0,0.0,0.0,0.0,0.0,0.0,0.0,0.0,0.0,0.0,0.0,0.0,0.0,0.0,0.0,0.0,0.0,0.0,0.0,0.0,0.0,0.0,0.0,0.0,0.0,0.0,0.0,0.0,0.0,0.0,0.0,0.0,0.0,0.0,0.0,0.0,0.0,0.0,0.0,0.0,0.0,0.0,0.0,0.0,0.0,0.0,0.0,0.0,0.0,0.0,0.0,0.0,0.0,0.0,0.0,0.0,0.0,0.0,0.0,0.0,0.0,0.0,0.0,0.0,0.0,0.0,0.0,0.0,0.0,0.0,0.0,0.0,0.0,0.0,0.0,0.0,0.0,0.0,0.0,0.0,0.0,0.0,0.0,0.0,0.0,0.0,0.0,0.0,0.0,0.0,0.0,0.0,0.0,0.0,0.0,0.0,0.0,0.0,0.0,0.0,0.0,0.0,0.0,0.0,0.0,0.0,0.0,0.0,0.0,0.0,0.0,0.0,0.0,0.0,0.0,0.0,0.0,0.0,0.0,0.0,0.0,0.0,0.0,0.0,0.0,0.0,0.0,0.0,0.0,0.0,0.0,0.0,0.0,0.0,0.0,0.0,0.0,0.0,0.0,0.0,0.0,0.0,0.0,0.0,0.0,0.0,0.0,0.0,0.0,0.0,0.0,0.0,0.0,0.0,0.0,0.0,0.0,0.0,0.0,0.0,0.0,0.0,0.0,0.0,0.0,0.0,0.0,0.0,0.0,0.0,0.0,0.0,0.0,0.0,0.0,0.0,0.0,0.0,0.0,0.0,0.0,0.0,0.0,0.0,0.0,0.0,0.0,0.0,0.0,0.0,0.0,0.0,0.0,0.0,0.0,0.0,0.0,0.0,0.0,0.0,0.0,0.0,0.0,0.0,0.0,0.0,0.0,0.0,0.0,0.0,0.0,0.0,0.0,0.0,0.0,0.0,0.0,0.0,0.0,0.0,0.0,0.0,0.0,0.0,0.0,0.0,0.0,0.0,0.0,0.0,0.0,0.0,0.0,0.0,0.0,0.0,0.0,0.0,0.0,0.0,0.0,0.0,0.0,0.0,0.0,0.0,0.0,0.0,0.0,0.0,0.0,0.0,0.0,0.0,0.0,0.0,0.0,0.0,0.0,0.0,0.0,0.0,0.0,0.0,0.0,0.0,0.0,0.0,0.0,0.0,0.0,0.0,0.0,0.0,0.0,0.0,0.0,0.0,0.0,0.0,0.0,0.0,0.0,0.0,0.0,0.0,0.0,0.0,0.0,0.0,0.0,0.0,0.0,0.0,0.0,0.0,0.0,0.0,0.0,0.0,0.0,0.0,0.0,0.0,0.0,0.0,0.0,0.0,0.0,0.0,0.0,0.0,0.0,0.0,0.0,0.0,0.0,0.0,0.0,0.0,0.0,0.0,0.0,0.0,0.0,0.0,0.0,0.0,0.0,0.0,0.0,0.0,0.0,0.0,0.0,0.0,0.0,0.0,0.0,0.0,0.0,0.0,0.0,0.0,0.0,0.0,0.0,0.0,0.0,0.0,0.0,0.0,0.0,0.0,0.0,0.0,0.0,0.0,0.0,0.0,0.0,0.0,0.0,0.0,0.0,0.0,0.0,0.0,0.0,0.0,0.0,0.0,0.0,0.0,0.0,0.0,0.0,0.0,0.0,0.0,0.0,0.0,0.0,0.0,0.0,0.0,0.0,0.0,0.0,0.0,0.0,0.0,0.0,0.0,0.0,0.0,0.0,0.0,0.0,0.0,0.0,0.0,0.0,0.0,0.0,0.0,0.0,0.0,0.0,0.0,0.0,0.0,0.0,0.0,0.0,0.0,0.0,0.0,0.0,0.0,0.0,0.0,0.0,0.0,0.0,0.0,0.0,0.0,0.0,0.0,0.0,0.0,0.0,0.0,0.0,0.0,0.0,0.0,0.0,0.0,0.0,0.0,0.0,0.0,0.0,0.0,0.0,0.0,0.0,0.0,0.0,0.0,0.0,0.0,0.0,0.0,0.0,0.0,0.0,0.0,0.0,0.0,0.0,0.0,0.0,0.0,0.0,0.0,0.0,0.0,0.0,0.0,0.0,0.0,0.0,0.0,0.0,0.0,0.0,0.0,0.0,0.0,0.0,0.0,0.0,0.0,0.0,0.0,0.0,0.0,0.0,0.0,0.0,0.0,0.0,0.0,0.0,0.0,0.0,0.0,0.0,0.0,0.0,0.0,0.0,0.0,0.0,0.0,0.0,0.0,0.0,0.0,0.0,0.0,0.0,0.0,0.0,0.0,0.0,0.0,0.0,0.0,0.0,0.0,0.0,0.0,0.0,0.0,0.0,0.0,0.0,0.0,0.0,0.0,0.0,0.0,0.0,0.0,0.0,0.0,0.0,0.0,0.0,0.0,0.0,0.0,0.0,0.0,0.0,0.0,0.0,0.0,0.0,0.0,0.0,0.0,0.0,0.0,0.0,0.0,0.0,0.0,0.0,0.0,0.0,0.0,0.0,0.0,0.0,0.0,0.0,0.0,0.0,0.0,0.0,0.0,0.0,0.0,0.0,0.0,0.0,0.0,0.0,0.0,0.0,0.0,0.0,0.0,0.0,0.0,0.0,0.0,0.0,0.0,0.0,0.0,0.0,0.0,0.0,0.0,0.0,0.0,0.0,0.0,0.0,0.0,0.0,0.0,0.0,0.0,0.0,0.0,0.0,0.0,0.0,0.0,0.0,0.0,0.0,0.0,0.0,0.0,0.0,0.0,0.0,0.0,0.0,0.0,0.0,0.0,0.0,0.0,0.0,0.0,0.0,0.0,0.0,0.0,0.0,0.0,0.0,0.0,0.0,0.0,0.0,0.0,0.0,0.0,0.0,0.0,0.0,0.0,0.0,0.0,0.0,0.0,0.0,0.0,0.0,0.0,0.0,0.0,0.0,0.0,0.0,0.0,0.0,0.0,0.0,0.0,0.0,0.0,0.0,0.0,0.0,0.0,0.0,0.0,0.0,0.0,0.0,0.0,0.0,0.0,0.0,0.0,0.0,0.0,0.0,0.0,0.0,0.0,0.0,0.0,0.0,0.0,0.0,0.0,0.0,0.0,0.0,0.0,0.0,0.0,0.0,0.0,0.0,0.0,0.0,0.0,0.0,0.0,0.0,0.0,0.0,0.0,0.0,0.0,0.0,0.0,0.0,0.0,0.0,0.0,0.0,0.0,0.0,0.0,0.0,0.0,0.0,0.0,0.0,0.0,0.0,0.0,0.0,0.0,0.0,0.0,0.0,0.0,0.0,0.0,0.0,0.0,0.0,0.0,0.0,0.0,0.0,0.0,0.0,0.0,0.0,0.0,0.0,0.0,0.0,0.0,0.0,0.0,0.0,0.0,0.0,0.0,0.0,0.0,0.0,0.0,0.0,0.0,0.0,0.0,0.0,0.0,0.0,0.0,0.0,0.0,0.0,0.0,0.0,0.0,0.0,0.0,0.0,0.0,0.0,0.0,0.0,0.0,0.0,0.0,0.0,0.0,0.0,0.0,0.0,0.0,0.0,0.0,0.0,0.0,0.0,0.0,0.0,0.0,0.0,0.0,0.0,0.0,0.0,0.0,0.0,0.0,0.0,0.0,0.0,0.0,0.0,0.0,0.0,0.0,0.0,0.0,0.0,0.0,0.0,0.0,0.0,0.0,0.0,0.0,0.0,0.0,0.0,0.0,0.0,0.0,0.0,0.0,0.0,0.0,0.0,0.0,0.0,0.0,0.0,0.0,0.0,0.0,0.0,0.0,0.0,0.0,0.0,0.0,0.0,0.0,0.0,0.0,0.0,0.0,0.0,0.0,0.0,0.0,0.0,0.0,0.0,0.0,0.0,0.0,0.0,0.0,0.0,0.0,0.0,0.0,0.0,0.0,0.0,0.0,0.0,0.0,0.0,0.0,0.0,0.0,0.0,0.0,0.0,0.0,0.0,0.0,0.0,0.0,0.0,0.0,0.0,0.0,0.0,0.0,0.0,0.0,0.0,0.0,0.0,0.0,0.0,0.0,0.0,0.0,0.0,0.0,0.0,0.0,0.0,0.0,0.0,0.0,0.0,0.0,0.0,0.0,0.0,0.0,0.0,0.0,0.0,0.0,0.0,0.0,0.0,0.0,0.0,0.0,0.0,0.0,0.0,0.0,0.0,0.0,0.0,0.0,0.0,0.0,0.0,0.0,0.0,0.0,0.0,0.0,0.0,0.0,0.0,0.0,0.0,0.0,0.0,0.0,0.0,0.0,0.0,0.0,0.0,0.0,0.0,0.0,0.0,0.0,0.0,0.0,0.0,0.0,0.0,0.0,0.0,0.0,0.0,0.0,0.0,0.0,0.0,0.0,0.0,0.0,0.0,0.0,0.0,0.0,0.0,0.0,0.0,0.0,0.0,0.0,0.0,0.0,0.0,0.0,0.0,0.0,0.0,0.0,0.0,0.0,0.0,0.0,0.0,0.0,0.0,0.0,0.0,0.0,0.0,0.0,0.0,0.0,0.0,0.0,0.0,0.0,0.0,0.0,0.0,0.0,0.0,0.0,0.0,0.0,0.0,0.0,0.0,0.0,0.0,0.0,0.0,0.0,0.0,0.0,0.0,0.0,0.0,0.0,0.0,0.0,0.0,0.0,0.0,0.0,0.0,0.0,0.0,0.0,0.0,0.0,0.0,0.0,0.0,0.0,0.0,0.0,0.0,0.0,0.0,0.0,0.0,0.0,0.0,0.0,0.0,0.0,0.0,0.0,0.0,0.0,0.0,0.0,0.0,0.0,0.0,0.0,0.0,0.0,0.0,0.0,0.0,0.0,0.0,0.0,0.0,0.0,0.0,0.0,0.0,0.0,0.0,0.0,0.0,0.0,0.0,0.0,0.0,0.0,0.0,0.0,0.0,0.0,0.0,0.0,0.0,0.0,0.0,0.0,0.0,0.0,0.0,0.0,0.0,0.0,0.0,0.0,0.0,0.0,0.0,0.0,0.0,0.0,0.0,0.0,0.0,0.0,0.0,0.0,0.0,0.0,0.0,0.0,0.0,0.0,-4.0632,0.0,0.0,0.0,0.0,0.0,0.0,0.0,0.0,0.0,0.0,0.0,0.0,0.0,0.0,0.0,0.0,0.0,0.0,0.0,0.0,0.0,0.0,0.0,0.0,0.0,0.0,0.0,0.0,0.0,0.0,0.0,0.0,0.0,0.0,0.0,0.0,0.0,0.0,0.0,0.0,0.0,0.0,0.0,0.0,0.0,0.0,0.0,0.0,0.0,0.0,0.0,0.0,0.0,0.0,0.0,0.0,0.0,0.0,0.0,0.0,0.0,0.0,0.0,0.0,0.0,0.0,0.0,0.0,0.0,0.0,0.0,0.0,0.0,0.0,0.0,0.0,0.0,0.0,0.0,0.0,0.0,0.0,0.0,0.0,0.0,0.0,0.0,0.0,0.0,0.0,0.0,0.0,0.0,0.0,0.0,0.0,0.0,0.0,0.0,0.0,0.0,0.0,0.0,0.0,0.0,0.0,0.0,0.0,0.0,0.0,0.0,0.0,0.0,0.0,0.0,0.0,-4.0701,0.0,0.0,0.0,0.0,0.0,0.0,0.0,0.0,0.0,0.0,0.0,0.0,0.0,0.0,0.0,0.0,0.0,0.0,0.0,0.0,0.0,0.0,0.0,0.0,0.0,0.0,0.0,0.0,0.0,0.0,0.0,0.0,0.0,0.0,0.0,0.0,0.0,0.0,0.0,0.0,0.0,0.0,0.0,0.0,0.0,0.0,0.0,0.0,0.0,0.0,0.0,0.0,0.0,0.0,0.0,0.0,0.0,0.0,0.0,0.0,0.0,0.0,0.0,0.0,0.0,0.0,0.0,0.0,0.0,0.0,0.0,0.0,0.0,0.0,0.0,0.0,0.0,0.0,0.0,0.0,0.0,0.0,0.0,0.0,0.0,0.0,0.0,0.0,0.0,0.0,0.0,0.0,0.0,0.0,0.0,0.0,0.0,0.0,0.0,0.0,0.0,0.0,0.0,0.0,0.0,0.0,0.0,0.0,-4.0497,-4.049,-4.0481,-4.0374,-4.0327,-4.0314,-4.0563,-4.1179,-4.1866,0.0,0.0,0.0,0.0,0.0,0.0,0.0,0.0,0.0,0.0,0.0,0.0,0.0,0.0,0.0,0.0,0.0,0.0,0.0,0.0,0.0,0.0,0.0,0.0,0.0,0.0,0.0,0.0,0.0,0.0,0.0,0.0,0.0,0.0,0.0,0.0,0.0,0.0,0.0,0.0,0.0,0.0,0.0,0.0,0.0,0.0,0.0,0.0,0.0,0.0,0.0,0.0,0.0,0.0,0.0,0.0,0.0,0.0,0.0,0.0,0.0,0.0,0.0,0.0,0.0,0.0,0.0,0.0,0.0,0.0,0.0,0.0,0.0,0.0,0.0,0.0,0.0,0.0,0.0,0.0,0.0,0.0,0.0,0.0,0.0,0.0,0.0,-3.8337,-3.8274,0.0,0.0,0.0,0.0,0.0,0.0,0.0,0.0,0.0,0.0,0.0,0.0,0.0,0.0,-4.1424,-4.2011,-4.2001,-4.1421,-4.1313,-4.0968,-4.0389,-3.9637,-3.8923,-3.8336,-3.909,0.0,-4.1056,-4.0832,0.0,0.0,0.0,0.0,0.0,0.0,0.0,0.0,0.0,0.0,0.0,0.0,0.0,0.0,0.0,0.0,0.0,0.0,0.0,0.0,0.0,0.0,0.0,0.0,0.0,0.0,0.0,0.0,0.0,0.0,0.0,0.0,0.0,0.0,0.0,0.0,0.0,0.0,0.0,0.0,0.0,0.0,0.0,0.0,0.0,0.0,0.0,0.0,0.0,0.0,0.0,0.0,0.0,0.0,0.0,0.0,0.0,0.0,0.0,0.0,0.0,0.0,0.0,0.0,0.0,0.0,0.0,0.0,0.0,0.0,0.0,0.0,0.0,0.0,0.0,0.0,0.0,0.0,0.0,0.0,0.0,0.0,0.0,0.0,0.0,-3.62,-3.7791,-3.7889,-3.8216,-3.7919,0.0,0.0,0.0,0.0,0.0,0.0,0.0,0.0,0.0,-4.0465,-4.0515,-4.1022,-4.2032,-4.1715,-4.1233,-4.0653,-4.0125,-3.9271,-3.8146,-3.7764,-3.7179,-3.6536,-3.7221,-3.788,-3.8551,-3.9539,-3.9825,-3.9508,0.0,0.0,0.0,0.0,0.0,-3.7755,0.0,0.0,0.0,0.0,0.0,0.0,0.0,0.0,0.0,0.0,0.0,0.0,0.0,0.0,0.0,0.0,0.0,0.0,0.0,0.0,0.0,0.0,0.0,0.0,0.0,0.0,0.0,0.0,0.0,0.0,0.0,0.0,0.0,0.0,0.0,0.0,0.0,0.0,0.0,0.0,0.0,0.0,0.0,0.0,0.0,0.0,0.0,0.0,0.0,0.0,0.0,0.0,0.0,0.0,0.0,0.0,0.0,0.0,0.0,0.0,0.0,0.0,0.0,0.0,0.0,0.0,0.0,0.0,0.0,0.0,0.0,0.0,0.0,0.0,0.0,0.0,0.0,-3.6808,-3.7569,-3.7376,-3.8232,-3.8076,0.0,0.0,0.0,0.0,0.0,0.0,-3.7875,-3.8336,-3.9004,-3.9881,-4.0152,-4.0572,-4.1222,-4.0391,-3.9576,-3.8754,-3.7953,-3.6845,-3.5515,-3.5325,-3.4961,-3.45,-3.4906,-3.5304,-3.5834,-3.7832,-3.8562,-3.8345,-3.7575,-3.7132,-3.6972,-3.7254,-3.7352,-3.7404,0.0,0.0,0.0,0.0,0.0,0.0,0.0,0.0,0.0,0.0,0.0,0.0,0.0,0.0,0.0,0.0,0.0,0.0,0.0,0.0,0.0,0.0,0.0,0.0,0.0,0.0,0.0,0.0,0.0,0.0,0.0,0.0,0.0,0.0,0.0,0.0,0.0,0.0,0.0,0.0,0.0,0.0,0.0,0.0,0.0,0.0,0.0,0.0,0.0,0.0,0.0,0.0,0.0,0.0,0.0,0.0,0.0,0.0,0.0,0.0,0.0,0.0,0.0,0.0,0.0,0.0,0.0,0.0,0.0,0.0,0.0,0.0,0.0,0.0,0.0,0.0,0.0,0.0,0.0,-3.824,-4.0368,0.0,0.0,0.0,0.0,-3.7733,-3.8271,-3.8873,-3.9461,-3.8909,-3.8998,-3.9869,-3.9378,-3.8748,-3.8045,-3.8042,-3.7267,-3.5708,-3.4845,-3.3999,-3.3157,-3.237,-3.2016,-3.1971,-3.2016,-3.2456,-3.3388,-3.6101,-3.7275,-3.7341,-3.7051,-3.6831,-3.6638,-3.5896,-3.5636,-3.5507,0.0,0.0,0.0,0.0,0.0,0.0,0.0,0.0,0.0,0.0,0.0,0.0,0.0,0.0,0.0,0.0,0.0,0.0,0.0,0.0,0.0,0.0,0.0,0.0,0.0,0.0,0.0,0.0,0.0,0.0,0.0,0.0,0.0,0.0,0.0,0.0,0.0,0.0,0.0,0.0,0.0,0.0,0.0,0.0,0.0,0.0,0.0,0.0,0.0,0.0,0.0,0.0,0.0,0.0,0.0,0.0,0.0,0.0,0.0,0.0,0.0,0.0,0.0,0.0,0.0,0.0,0.0,0.0,0.0,0.0,0.0,0.0,0.0,0.0,0.0,0.0,0.0,0.0,0.0,-3.7197,-3.8663,0.0,0.0,-3.7285,-3.7396,-3.6705,-3.7316,-3.7607,-3.7299,-3.6884,-3.6939,-3.7515,-3.6976,-3.6527,-3.619,-3.5526,-3.477,-3.3883,-3.3052,-3.2222,-3.1373,-3.1083,-3.0692,-3.0196,-3.0361,-3.0807,-3.1452,-3.2261,-3.3558,-3.5014,-3.4755,-3.4759,-3.4777,-3.3809,-3.3701,-3.3934,0.0,0.0,0.0,0.0,0.0,0.0,0.0,0.0,0.0,0.0,0.0,0.0,0.0,0.0,0.0,0.0,0.0,0.0,0.0,0.0,0.0,0.0,0.0,0.0,0.0,0.0,0.0,0.0,0.0,0.0,0.0,0.0,0.0,0.0,0.0,0.0,0.0,0.0,0.0,0.0,0.0,0.0,-2.8549,0.0,0.0,0.0,0.0,0.0,0.0,0.0,0.0,0.0,0.0,0.0,0.0,0.0,0.0,0.0,0.0,0.0,0.0,0.0,0.0,0.0,0.0,0.0,0.0,0.0,0.0,0.0,0.0,0.0,0.0,0.0,0.0,0.0,0.0,0.0,-3.6803,-3.6145,-3.7103,-3.7279,-3.5869,-3.6083,-3.62,-3.5977,-3.6046,-3.594,-3.5568,-3.5262,-3.5084,-3.5094,-3.4517,-3.4076,-3.3773,-3.2846,-3.2077,-3.1516,-3.0978,-3.0276,-2.9448,-2.9491,-2.9052,-2.8334,-2.8564,-2.8696,-2.8795,-2.887,-2.981,-3.1247,-3.1982,-3.2391,-3.2449,-3.1584,-3.1533,-3.165,0.0,0.0,0.0,0.0,0.0,0.0,0.0,0.0,0.0,0.0,0.0,0.0,0.0,0.0,0.0,0.0,0.0,0.0,0.0,0.0,0.0,0.0,0.0,0.0,0.0,0.0,0.0,0.0,0.0,0.0,0.0,0.0,0.0,0.0,0.0,0.0,0.0,0.0,0.0,0.0,0.0,0.0,-2.6913,0.0,0.0,0.0,0.0,0.0,0.0,0.0,0.0,0.0,0.0,0.0,0.0,0.0,0.0,0.0,0.0,0.0,0.0,0.0,0.0,0.0,0.0,0.0,0.0,0.0,0.0,0.0,0.0,0.0,0.0,0.0,0.0,0.0,-3.5066,-3.5829,-3.602,-3.5242,-3.6001,-3.6432,-3.5952,-3.4807,-3.4555,-3.5719,-3.4594,-3.4075,-3.4582,-3.4229,-3.3634,-3.2855,-3.2189,-3.148,-3.0699,-3.007,-2.9334,-2.8519,-2.8518,-2.8101,-2.7344,-2.7397,-2.7023,-2.6355,-2.6479,-2.6096,-2.5438,-2.6205,-2.6286,-2.6172,-2.8924,-2.9915,-2.9735,-2.9231,-2.897,-2.8536,0.0,0.0,0.0,0.0,0.0,0.0,0.0,0.0,0.0,0.0,0.0,0.0,0.0,0.0,0.0,0.0,0.0,0.0,0.0,0.0,0.0,0.0,0.0,0.0,0.0,0.0,0.0,0.0,0.0,0.0,0.0,0.0,0.0,0.0,0.0,0.0,0.0,0.0,0.0,0.0,0.0,0.0,-2.7626,0.0,0.0,0.0,0.0,0.0,0.0,0.0,0.0,0.0,0.0,0.0,0.0,0.0,0.0,0.0,0.0,0.0,0.0,0.0,0.0,0.0,0.0,0.0,0.0,0.0,0.0,0.0,0.0,0.0,0.0,0.0,0.0,-3.3022,-3.3536,-3.4287,-3.4516,-3.3758,-3.4042,-3.4274,-3.4132,-3.3928,-3.3749,-3.3592,-3.3248,-3.2865,-3.2554,-3.2126,-3.1707,-3.1249,-3.0771,-2.991,-2.8648,-2.8442,-2.7827,-2.6775,-2.6592,-2.6373,-2.6151,-2.5675,-2.5403,-2.5224,-2.5026,-2.4827,-2.4677,-2.4703,-2.4424,-2.4199,-2.6505,-2.752,-2.7484,-2.602,-2.4751,-2.3603,0.0,0.0,0.0,0.0,0.0,0.0,0.0,0.0,0.0,0.0,0.0,0.0,0.0,0.0,0.0,0.0,0.0,0.0,0.0,0.0,0.0,0.0,0.0,0.0,0.0,0.0,0.0,0.0,0.0,0.0,0.0,0.0,0.0,0.0,0.0,0.0,0.0,0.0,0.0,0.0,0.0,0.0,-2.6398,-2.7146,-2.7426,-2.7441,-2.7834,-2.8694,-2.9591,-2.9155,0.0,0.0,0.0,0.0,0.0,0.0,0.0,0.0,0.0,0.0,0.0,0.0,0.0,0.0,0.0,0.0,0.0,0.0,0.0,0.0,0.0,0.0,0.0,0.0,-3.1253,-3.1674,-3.1327,-3.2485,-3.3172,-3.2685,-3.2271,-3.2205,-3.2674,-3.2152,-3.1922,-3.2246,-3.1657,-3.1174,-3.0967,-3.0186,-2.9636,-2.9404,-2.8705,-2.7916,-2.7046,-2.6452,-2.5833,-2.5176,-2.456,-2.4281,-2.4265,-2.372,-2.3342,0.0,-2.3031,-2.285,-2.262,-2.285,-2.2627,0.0,0.0,0.0,0.0,0.0,-2.2351,-2.1277,0.0,0.0,0.0,0.0,0.0,0.0,0.0,0.0,0.0,0.0,0.0,0.0,0.0,0.0,0.0,0.0,0.0,0.0,0.0,0.0,0.0,0.0,0.0,0.0,0.0,0.0,0.0,0.0,0.0,0.0,0.0,0.0,0.0,0.0,0.0,0.0,0.0,0.0,0.0,0.0,0.0,0.0,-2.4016,-2.5716,-2.6419,-2.6621,-2.7531,-2.8829,-3.0117,-3.0274,0.0,0.0,0.0,0.0,0.0,0.0,0.0,0.0,0.0,0.0,0.0,0.0,0.0,0.0,0.0,0.0,0.0,0.0,0.0,0.0,0.0,0.0,0.0,0.0,-3.0775,-3.0332,-2.8824,-3.0303,-3.1546,-3.1544,-3.0553,-3.0275,-3.1277,-2.9934,-2.9624,-3.1105,-2.9887,-2.922,-2.9518,0.0,0.0,0.0,0.0,-2.5882,-2.5627,-2.4379,-2.3695,-2.349,-2.2434,-2.1966,-2.2009,-2.1511,-2.0985,-2.0442,-2.0783,-2.0481,-1.9869,-2.0824,-2.0798,-2.0332,-2.1827,-2.199,-2.1422,-2.1321,-2.0945,0.0,0.0,0.0,0.0,0.0,0.0,0.0,0.0,0.0,0.0,0.0,0.0,0.0,0.0,0.0,0.0,0.0,0.0,0.0,0.0,0.0,0.0,0.0,0.0,0.0,0.0,0.0,0.0,0.0,0.0,0.0,0.0,0.0,0.0,0.0,0.0,0.0,0.0,0.0,0.0,0.0,0.0,0.0,-2.227,-2.3338,-2.4103,-2.4725,-2.5561,-2.6887,-2.82,-2.8013,-2.9088,-3.0496,-3.0448,0.0,0.0,0.0,0.0,0.0,0.0,0.0,0.0,0.0,0.0,0.0,0.0,0.0,0.0,0.0,0.0,0.0,0.0,0.0,0.0,-2.8126,-2.8393,-2.83,-2.6907,-2.7284,-2.7921,-2.8618,-2.8559,-2.8576,-2.8773,-2.8611,-2.8428,-2.832,-2.802,-2.7689,-2.7349,-2.7184,0.0,-2.6192,-2.605,-2.5128,-2.3361,-2.3082,-2.2293,-2.1077,0.0,0.0,-2.0391,-1.8862,-1.8392,-1.8794,-1.8991,-1.8675,-1.8068,-1.9071,-1.8741,-1.78,-1.9823,-1.997,-1.9045,-1.8855,-1.8388,-1.7729,0.0,0.0,0.0,0.0,0.0,0.0,0.0,0.0,0.0,0.0,0.0,0.0,0.0,0.0,0.0,0.0,0.0,0.0,0.0,0.0,0.0,0.0,0.0,0.0,0.0,0.0,0.0,0.0,0.0,0.0,0.0,0.0,0.0,0.0,0.0,0.0,0.0,0.0,0.0,0.0,0.0,0.0,-1.7319,-1.9795,-2.1247,-2.2043,-2.2747,-2.425,-2.5999,-2.6751,-2.8284,-3.0037,-3.0838,-3.2415,-3.3867,0.0,0.0,0.0,0.0,0.0,0.0,0.0,0.0,0.0,0.0,0.0,0.0,0.0,0.0,-2.8547,0.0,0.0,-2.8129,-2.7012,-2.6861,-2.6375,-2.4915,-2.4805,-2.5253,-2.6287,-2.6643,-2.6795,-2.6795,-2.6684,-2.6698,-2.693,-2.6219,-2.5776,-2.5696,-2.507,-2.438,-2.3682,-2.3576,-2.2886,-2.1507,-2.1207,-2.0579,-1.9628,-1.8428,-1.7904,-1.7964,-1.6848,-1.6398,-1.6545,-1.7232,-1.718,-1.6655,-1.7442,-1.724,-1.6539,-1.7475,-1.7627,-1.7265,-1.7026,-1.6697,-1.6287,0.0,0.0,0.0,0.0,0.0,0.0,0.0,0.0,0.0,0.0,0.0,0.0,0.0,0.0,0.0,0.0,0.0,0.0,0.0,0.0,0.0,0.0,0.0,0.0,0.0,0.0,0.0,0.0,0.0,0.0,0.0,0.0,0.0,0.0,0.0,0.0,0.0,0.0,0.0,0.0,0.0,0.0,-1.186,-1.5183,-1.7464,-1.8962,-1.9594,-2.1256,-2.3412,-2.5178,-2.7062,-2.8964,-3.0664,-3.214,-3.3169,-3.2723,-3.3498,0.0,0.0,0.0,0.0,0.0,0.0,0.0,0.0,0.0,-2.7552,-2.8198,-2.748,-2.698,-2.7755,-2.7019,-2.6269,-2.6228,-2.5618,-2.4654,-2.3223,-2.2927,-2.3158,-2.3985,-2.4599,-2.4997,-2.5149,-2.4797,-2.483,-2.5546,-2.4433,-2.3798,-2.3904,-2.2776,-2.186,-2.1225,-2.0954,-2.0504,-1.9828,-1.9329,-1.8817,-1.8277,-1.6956,-1.6236,-1.6018,-1.5463,-1.4999,-1.4713,-1.5653,-1.594,-1.5794,-1.6009,-1.5944,-1.568,-1.5457,-1.5524,-1.5746,-1.569,-1.5601,-1.5433,0.0,0.0,0.0,0.0,0.0,0.0,0.0,0.0,0.0,0.0,0.0,0.0,0.0,0.0,0.0,0.0,0.0,0.0,0.0,0.0,0.0,0.0,0.0,0.0,0.0,0.0,0.0,0.0,0.0,0.0,0.0,0.0,0.0,0.0,0.0,0.0,0.0,0.0,0.0,0.0,0.0,0.0,-0.8304,-0.8857,-1.1804,-1.5714,-1.6431,-1.8025,-2.0022,-2.1819,-2.4031,-2.6322,-2.8125,-3.0851,-3.3138,-3.1918,0.0,-3.1996,-3.0854,-3.0368,-3.0179,-3.0207,-2.9545,-2.9371,0.0,0.0,-2.8511,-2.9047,-2.8305,-2.7399,-2.6894,-2.6072,-2.5392,-2.4977,-2.4113,-2.3237,-2.2502,-2.1986,-2.154,-2.1129,-2.2218,-2.3259,-2.3822,-2.3541,-2.314,-2.2795,-2.2599,-2.2078,-2.1107,-2.0969,-2.0653,-2.0097,-1.9919,-1.929,-1.8083,-1.8018,-1.7375,-1.6147,-1.5664,-1.5694,-1.6151,-1.5021,-1.4516,-1.4514,-1.4482,-1.5026,-1.5903,-1.5062,-1.4663,-1.4581,-1.4558,-1.4432,-1.4317,-1.496,-1.5176,-1.5039,0.0,0.0,0.0,0.0,0.0,0.0,0.0,0.0,0.0,0.0,0.0,0.0,0.0,0.0,0.0,0.0,0.0,0.0,0.0,0.0,0.0,0.0,0.0,0.0,0.0,0.0,0.0,0.0,0.0,0.0,0.0,0.0,0.0,0.0,0.0,0.0,0.0,0.0,0.0,0.0,0.0,0.0,-0.388,-0.4551,-0.71,-1.0628,-1.2979,-1.544,0.0,0.0,-2.2156,-2.4026,-2.6698,-2.8481,-2.9444,-2.8848,-2.9407,0.0,-3.0646,-2.9741,0.0,0.0,-2.8825,-2.8092,-2.8702,-2.7558,-2.6268,-2.5979,-2.5547,-2.4881,-2.3815,-2.3803,-2.3734,0.0,-2.2749,-2.2274,-2.144,-2.0867,-2.0412,-2.0157,-2.0365,-2.0936,-2.1929,-2.1745,-2.1602,-2.1654,-2.0616,-1.991,-1.9747,-1.887,-1.8119,-1.7591,-1.7589,-1.719,-1.6357,-1.6379,-1.5947,-1.503,-1.4903,-1.458,-1.4104,-1.4,-1.3953,-1.3939,-1.3553,-1.3839,-1.4571,-1.4142,-1.3965,-1.3928,-1.3928,-1.3823,-1.3742,-1.4432,-1.4581,-1.4374,0.0,0.0,0.0,0.0,0.0,0.0,0.0,0.0,0.0,0.0,0.0,0.0,0.0,0.0,0.0,0.0,0.0,0.0,0.0,0.0,0.0,0.0,0.0,0.0,0.0,0.0,0.0,0.0,0.0,0.0,0.0,0.0,0.0,0.0,0.0,0.0,0.0,0.0,0.0,0.0,0.0,0.0,0.0,-0.1354,-0.3706,-0.6764,-1.034,-1.3537,0.0,0.0,-2.0519,-2.2167,-2.5066,-2.6182,-2.643,-2.6649,-2.7528,-2.86,-2.9314,0.0,0.0,-2.8556,-2.7861,-2.6819,-2.5983,-2.4604,-2.329,-2.249,-2.1975,-2.1492,-2.0859,-2.149,0.0,-2.1491,-2.1524,-2.1403,-2.0807,-2.0207,-1.9927,-2.0237,-1.9931,-1.9951,-2.0708,-2.0303,-2.0071,-2.0318,-1.8912,-1.8112,-1.8215,-1.7109,-1.6226,-1.5706,-1.5695,-1.5499,-1.5051,-1.5108,-1.4832,-1.4252,-1.4291,-1.3772,-1.284,-1.3054,-1.3261,-1.3393,-1.2872,-1.3016,-1.3597,-1.3443,-1.3386,-1.3386,-1.3338,-1.3218,-1.318,-1.3742,-1.3847,-1.36,0.0,0.0,0.0,0.0,0.0,0.0,0.0,0.0,0.0,0.0,0.0,0.0,0.0,0.0,0.0,0.0,0.0,0.0,0.0,0.0,0.0,0.0,0.0,0.0,0.0,0.0,0.0,0.0,0.0,0.0,0.0,0.0,0.0,0.0,0.0,0.0,0.0,0.0,0.0,0.0,0.0,0.0,0.2756,0.078,-0.1985,-0.5274,-0.909,0.0,0.0,0.0,-1.8957,-2.088,-2.2808,-2.4284,0.0,-2.6438,-2.686,0.0,0.0,0.0,-2.699,-2.6367,-2.616,-2.5652,-2.3732,-2.171,-2.0062,-1.9457,-1.8292,-1.7657,-1.8608,-1.9561,-2.0237,-2.042,-2.0407,-2.0533,-2.101,-2.0341,-2.0206,-2.1316,-2.142,-2.1237,0.0,-1.9461,-1.8543,-1.8225,-1.7707,-1.7,-1.6054,-1.5938,-1.5683,-1.5142,-1.488,-1.464,-1.4419,-1.4419,-1.4156,-1.3619,-1.3756,-1.3667,-1.3345,-1.2452,-1.2405,-1.2996,-1.2451,-1.275,-1.3563,-1.304,-1.2812,-1.2812,-1.2691,-1.2516,-1.2372,-1.2725,-1.2837,-1.274,0.0,0.0,0.0,0.0,0.0,0.0,0.0,0.0,0.0,0.0,0.0,0.0,0.0,0.0,0.0,0.0,0.0,0.0,0.0,0.0,0.0,0.0,0.0,0.0,0.0,0.0,0.0,0.0,0.0,0.0,0.0,0.0,0.0,0.0,0.0,0.0,0.0,0.0,0.0,0.0,0.0,0.0,0.5441,0.2487,-0.0683,-0.4062,0.0,0.0,0.0,0.0,-1.7846,-1.9523,-2.119,0.0,0.0,-2.2876,-2.3456,-2.3873,-2.3875,0.0,-2.4027,-2.3132,-2.2095,-2.0857,-1.9168,-1.7649,-1.6386,-1.5486,-1.5074,-1.5075,-1.5743,-1.7259,-1.8626,-1.9247,-1.9992,-2.0653,-2.1047,-2.0546,-2.048,-2.1381,-2.1158,0.0,0.0,0.0,0.0,-1.7911,-1.6852,-1.5992,-1.535,-1.4457,-1.4021,-1.4106,-1.3755,-1.3661,-1.3881,-1.339,-1.3082,-1.2984,-1.2248,-1.2122,-1.2498,-1.138,-1.1175,-1.1646,-1.1197,-1.1123,-1.1366,-1.1692,-1.1801,-1.1834,-1.2058,-1.2042,-1.1893,-1.1934,-1.1884,-1.1807,0.0,0.0,0.0,0.0,0.0,0.0,0.0,0.0,0.0,0.0,0.0,0.0,0.0,0.0,0.0,0.0,0.0,0.0,0.0,0.0,0.0,0.0,0.0,0.0,0.0,0.0,0.0,0.0,0.0,0.0,0.0,0.0,0.0,0.0,0.0,0.0,0.0,0.0,0.0,0.0,0.0,0.0,0.6668,0.2567,-0.0956,0.0,0.0,0.0,0.0,0.0,0.0,0.0,-1.9602,-2.0631,-2.1218,-2.1104,-2.1587,-2.2199,-2.2205,-2.1746,-2.1066,-2.0263,-1.8657,-1.675,-1.4746,-1.3286,-1.2261,-1.1891,-1.1977,-1.2514,-1.3854,-1.6128,-1.7823,-1.8016,-1.9351,-2.0523,-2.1039,-2.0503,-2.0643,-2.2241,-2.1874,0.0,0.0,0.0,0.0,-1.7511,-1.6302,-1.5296,-1.4503,-1.3484,-1.3001,-1.3214,-1.2963,-1.2939,-1.3214,-1.273,-1.24,-1.2201,-1.1021,-1.068,-1.099,-1.0044,-0.9715,-0.9891,-0.9668,-0.9675,-0.9855,-1.0595,-1.1049,-1.1352,-1.1753,-1.1694,-1.1368,-1.1242,-1.0956,-1.0804,0.0,0.0,0.0,0.0,0.0,0.0,0.0,0.0,0.0,0.0,0.0,0.0,0.0,0.0,0.0,0.0,0.0,0.0,0.0,0.0,0.0,0.0,0.0,0.0,0.0,0.0,0.0,0.0,0.0,0.0,0.0,0.0,0.0,0.0,0.0,0.0,0.0,0.0,0.0,0.0,0.0,0.0,0.6198,0.0989,0.0,0.0,0.0,0.0,0.0,0.0,0.0,0.0,0.0,0.0,-2.2126,-2.0931,-2.1159,-2.1597,-2.0751,-1.944,-1.8128,-1.7553,-1.57,-1.3268,-1.0525,-0.8613,-0.7699,-0.8667,-0.8939,-0.9944,0.0,0.0,-1.7714,-1.69,-1.8536,-2.0203,-2.0941,-2.0244,-2.0724,0.0,0.0,0.0,0.0,0.0,0.0,-1.6893,0.0,-1.4877,-1.3551,-1.3012,-1.2657,-1.2446,-1.2446,-1.2455,-1.248,-1.248,-1.2031,-1.1133,-1.0171,-0.9457,-0.9009,-0.8531,-0.8143,-0.7855,-0.7967,-0.8389,-0.9064,-0.9845,-1.0559,-1.1251,-1.1669,-1.1385,-1.0727,-1.06,-1.0156,-0.9744,0.0,0.0,0.0,0.0,0.0,0.0,0.0,0.0,0.0,0.0,0.0,0.0,0.0,0.0,0.0,0.0,0.0,0.0,0.0,0.0,0.0,0.0,0.0,0.0,0.0,0.0,0.0,0.0,0.0,0.0,0.0,0.0,0.0,0.0,0.0,0.0,0.0,0.0,0.0,0.0,0.0,0.0,0.1777,0.0,0.0,0.0,0.0,0.0,0.0,0.0,0.0,0.0,0.0,0.0,-1.8923,-1.8075,0.0,-1.8205,-1.7206,-1.6071,-1.4675,-1.2646,-1.0338,-0.7861,-0.5001,-0.3377,-0.3066,-0.5044,-0.6148,-0.7922,-1.1845,0.0,0.0,-1.742,-1.9061,0.0,-2.0422,-2.0507,0.0,0.0,0.0,-2.0963,-2.0312,-1.9285,0.0,0.0,-1.5163,-1.4205,-1.3112,-1.2463,-1.2033,-1.1832,-1.1785,-1.1859,-1.2129,-1.2082,-1.1063,-0.9155,-0.9415,-0.9053,-0.8107,-0.7546,-0.727,-0.7211,-0.6947,-0.7175,-0.7842,-0.899,-0.9559,-0.9803,-1.0625,-1.0566,-1.0053,-0.9899,-0.9744,-0.964,0.0,0.0,0.0,0.0,0.0,0.0,0.0,0.0,0.0,0.0,0.0,0.0,0.0,0.0,0.0,0.0,0.0,0.0,0.0,0.0,0.0,0.0,0.0,0.0,0.0,0.0,0.0,0.0,0.0,0.0,0.0,0.0,0.0,0.0,0.0,0.0,0.0,0.0,0.0,0.0,0.0,0.0,0.0,0.0,0.0,0.0,0.0,0.0,0.0,0.0,0.0,-1.6113,-1.6574,-1.6872,-1.6871,-1.5929,0.0,-1.5373,-1.3655,-1.2214,-1.0666,-0.8292,-0.565,-0.3039,-0.0718,0.0032,-0.0449,-0.2927,-0.5047,0.0,0.0,0.0,0.0,0.0,0.0,0.0,-2.0019,-2.0289,-2.0735,0.0,-2.0656,0.0,-1.921,-1.8147,-1.6823,0.0,-1.4445,-1.3644,-1.2689,-1.1762,-1.1107,-1.0813,-1.0838,-1.0889,-1.0952,-1.0716,-0.9845,-0.8342,-0.8187,-0.7769,-0.7117,-0.6389,-0.5981,-0.5811,0.0,-0.6017,-0.6819,-0.8076,-0.8837,-0.929,-1.0293,-1.0182,-0.9451,-0.9373,-0.9145,-0.8863,0.0,0.0,0.0,0.0,0.0,0.0,0.0,0.0,0.0,0.0,0.0,0.0,0.0,0.0,0.0,0.0,0.0,0.0,0.0,0.0,0.0,0.0,0.0,0.0,0.0,0.0,0.0,0.0,0.0,0.0,0.0,0.0,0.0,0.0,0.0,0.0,0.0,0.0,0.0,0.0,0.0,0.0,0.0,0.0,0.0,0.0,0.0,0.0,0.0,0.0,-1.2278,-1.4469,-1.4882,-1.5128,-1.5002,-1.371,-1.3122,-1.2405,-1.0043,-0.8245,-0.6482,-0.4245,-0.1405,0.126,0.2904,0.2739,0.139,-0.163,0.0,0.0,-1.1946,0.0,-1.7298,-1.6468,0.0,-2.0591,-1.9734,-1.9801,-2.0181,-2.0882,-1.9973,-1.8938,-1.8054,-1.6904,-1.5606,-1.4103,-1.3542,-1.2937,-1.2113,-1.0928,-1.0097,-0.9721,-0.9753,-0.9695,-0.9536,-0.9103,-0.8627,-0.8114,-0.6937,-0.6297,-0.6097,-0.5286,-0.4653,-0.425,0.0,0.0,-0.6202,-0.733,-0.8332,-0.923,-1.0241,-0.9917,-0.885,-0.8823,-0.8408,-0.7875,0.0,0.0,0.0,0.0,0.0,0.0,0.0,0.0,0.0,0.0,0.0,0.0,0.0,0.0,0.0,0.0,0.0,0.0,0.0,0.0,0.0,0.0,0.0,0.0,0.0,0.0,0.0,0.0,0.0,0.0,0.0,0.0,0.0,0.0,0.0,0.0,0.0,0.0,0.0,0.0,0.0,0.0,0.0,0.0,0.0,0.0,0.0,0.0,0.0,0.0,-0.9941,-1.2621,-1.1711,-1.1332,-1.0962,-0.9246,-0.8273,-0.7507,-0.6161,-0.4722,-0.29,-0.0063,0.2703,0.5206,0.6959,0.6731,0.0,0.0,0.0,-0.7504,-1.2012,-1.4473,0.0,-1.6915,0.0,0.0,0.0,0.0,-1.8997,0.0,0.0,0.0,0.0,0.0,0.0,0.0,0.0,0.0,-1.092,-1.0109,-0.9526,-0.9236,-0.8762,-0.8723,-0.9182,-0.8944,-0.829,-0.7228,-0.6947,-0.625,-0.52,-0.4661,-0.4219,-0.3901,0.0,0.0,-0.6725,-0.754,-0.8273,-0.8935,-0.9562,-0.9093,-0.8076,-0.7963,-0.7857,-0.7729,0.0,0.0,0.0,0.0,0.0,0.0,0.0,0.0,0.0,0.0,0.0,0.0,0.0,0.0,0.0,0.0,0.0,0.0,0.0,0.0,0.0,0.0,0.0,0.0,0.0,0.0,0.0,0.0,0.0,0.0,0.0,0.0,0.0,0.0,0.0,0.0,0.0,0.0,0.0,0.0,0.0,0.0,0.0,0.0,0.0,0.0,0.0,0.0,0.0,0.0,-0.7218,-0.8178,-0.8045,-0.7724,-0.7226,-0.6471,-0.5837,-0.5079,-0.3633,-0.2175,-0.0377,0.266,0.5607,0.8045,0.9103,0.0,0.0,0.0,0.0,-0.9706,-1.3462,0.0,0.0,0.0,0.0,0.0,0.0,0.0,0.0,0.0,0.0,0.0,0.0,0.0,0.0,0.0,0.0,0.0,-1.0309,-0.9131,-0.8352,-0.811,-0.7769,-0.7715,-0.8003,-0.7919,-0.7353,-0.6316,-0.6045,-0.547,-0.4618,-0.4144,-0.3858,-0.3706,-0.4033,0.0,-0.6462,-0.7561,-0.8109,-0.8355,-0.9098,-0.8641,-0.7513,-0.7386,-0.733,-0.7328,0.0,0.0,0.0,0.0,0.0,0.0,0.0,0.0,0.0,0.0,0.0,0.0,0.0,0.0,0.0,0.0,0.0,0.0,0.0,0.0,0.0,0.0,0.0,0.0,0.0,0.0,0.0,0.0,0.0,0.0,0.0,0.0,0.0,0.0,0.0,0.0,0.0,0.0,0.0,0.0,0.0,0.0,0.0,0.0,0.0,0.0,0.0,0.0,0.0,0.0,-0.5129,-0.4167,-0.4553,-0.4412,-0.4081,-0.4087,-0.3969,-0.3434,-0.1611,-0.0224,0.1497,0.4843,0.7895,1.0109,1.0165,0.7144,0.0,0.0,0.0,-1.235,-1.5029,0.0,0.0,0.0,0.0,0.0,0.0,0.0,0.0,0.0,0.0,0.0,0.0,0.0,0.0,0.0,0.0,0.0,-0.9525,-0.8189,-0.7359,-0.7204,-0.6995,-0.6854,-0.6816,-0.6758,-0.6316,-0.5497,-0.507,-0.4661,-0.4294,-0.3821,-0.3604,-0.3626,-0.4121,0.0,0.0,-0.748,-0.7963,-0.7916,-0.8764,-0.8304,-0.7134,-0.7014,-0.6941,-0.6934,0.0,0.0,0.0,0.0,0.0,0.0,0.0,0.0,0.0,0.0,0.0,0.0,0.0,0.0,0.0,0.0,0.0,0.0,0.0,0.0,0.0,0.0,0.0,0.0,0.0,0.0,0.0,0.0,0.0,0.0,0.0,0.0,0.0,0.0,0.0,0.0,0.0,0.0,0.0,0.0,0.0,0.0,0.0,0.0,0.0,0.0,0.0,0.0,0.0,0.0,0.0,-0.317,-0.1831,-0.1707,-0.1929,-0.1275,0.0,0.0,0.0337,0.125,0.2658,0.6775,0.9581,1.1137,1.0359,0.0,0.0,0.0,-0.9288,-1.3889,-1.5917,-1.6653,0.0,0.0,0.0,0.0,0.0,0.0,0.0,0.0,0.0,0.0,0.0,0.0,0.0,0.0,0.0,0.0,0.0,-0.747,-0.7219,-0.7202,-0.6765,-0.6429,-0.618,-0.5947,-0.5497,-0.4887,-0.453,-0.4338,-0.4294,-0.3821,-0.3604,-0.3633,0.0,0.0,0.0,-0.738,-0.7899,-0.8028,-0.8544,-0.8048,-0.699,-0.6863,-0.6743,-0.6637,0.0,0.0,0.0,0.0,0.0,0.0,0.0,0.0,0.0,0.0,0.0,0.0,0.0,0.0,0.0,0.0,0.0,0.0,0.0,0.0,0.0,0.0,0.0,0.0,0.0,0.0,0.0,0.0,0.0,0.0,0.0,0.0,0.0,0.0,0.0,0.0,0.0,0.0,0.0,0.0,0.0,0.0,0.0,0.0,0.0,0.0,0.0,0.0,0.0,0.0,0.0,0.0,-0.4787,-0.4086,0.0,0.0,-0.132,-0.1527,0.0099,0.1042,0.2566,0.6817,0.7865,0.7829,0.7547,0.0,0.0,-0.7679,-1.2256,-1.5997,-1.7903,-1.7555,-1.7183,0.0,0.0,0.0,0.0,0.0,0.0,0.0,0.0,0.0,0.0,0.0,0.0,0.0,0.0,0.0,0.0,-0.7894,-0.7363,-0.6913,-0.664,-0.629,-0.5853,-0.5745,-0.5216,-0.4256,-0.429,-0.4118,-0.377,-0.3946,-0.4016,-0.406,0.0,0.0,0.0,-0.7495,-0.7814,-0.7851,-0.8065,-0.7535,-0.662,-0.6496,-0.64,-0.6373,0.0,0.0,0.0,0.0,0.0,0.0,0.0,0.0,0.0,0.0,0.0,0.0,0.0,0.0,0.0,0.0,0.0,0.0,0.0,0.0,0.0,0.0,0.0,0.0,0.0,0.0,0.0,0.0,0.0,0.0,0.0,0.0,0.0,0.0,0.0,0.0,0.0,0.0,0.0,0.0,0.0,0.0,0.0,0.0,0.0,0.0,0.0,0.0,0.0,0.0,0.0,0.0,0.0,0.0,0.0,0.0,-0.2161,-0.2235,-0.0638,-0.0062,0.0999,0.4793,0.4556,0.331,0.0,0.0,-0.7842,-1.1419,-1.5011,-1.789,-1.9157,-1.8332,-1.7738,0.0,0.0,0.0,0.0,0.0,0.0,0.0,0.0,0.0,0.0,0.0,0.0,0.0,0.0,0.0,0.0,-0.8468,-0.7805,-0.7049,-0.6789,-0.6343,-0.5696,-0.5696,-0.5173,-0.4107,-0.4377,-0.4272,-0.3836,-0.4417,-0.4674,-0.4718,0.0,0.0,0.0,-0.7235,-0.7309,-0.7301,-0.7335,-0.6867,-0.6147,-0.6227,-0.6227,-0.622,0.0,0.0,0.0,0.0,0.0,0.0,0.0,0.0,0.0,0.0,0.0,0.0,0.0,0.0,0.0,0.0,0.0,0.0,0.0,0.0,0.0,0.0,0.0,0.0,0.0,0.0,0.0,0.0,0.0,0.0,0.0,0.0,0.0,0.0,0.0,0.0,0.0,0.0,0.0,0.0,0.0,0.0,0.0,0.0,0.0,0.0,0.0,0.0,0.0,0.0,0.0,0.0,0.0,0.0,0.0,0.0,-0.3876,-0.3567,-0.1683,-0.2051,-0.2298,0.0468,-0.0238,-0.1906,0.0,0.0,-1.1443,-1.4281,-1.7267,-1.9317,-1.914,-1.8808,-1.8588,-1.8609,0.0,0.0,0.0,0.0,0.0,0.0,0.0,0.0,0.0,0.0,0.0,0.0,0.0,0.0,0.0,-0.899,-0.863,-0.7826,-0.728,-0.6571,-0.5717,-0.5696,-0.5329,-0.4596,-0.4853,-0.4927,-0.4801,-0.5336,-0.5578,0.0,0.0,0.0,0.0,-0.6425,-0.6267,-0.631,-0.6316,-0.598,-0.5577,-0.6175,-0.6319,-0.6241,0.0,0.0,0.0,0.0,0.0,0.0,0.0,0.0,0.0,0.0,0.0,0.0,0.0,0.0,0.0,0.0,0.0,0.0,0.0,0.0,0.0,0.0,0.0,0.0,0.0,0.0,0.0,0.0,0.0,0.0,0.0,0.0,0.0,0.0,0.0,0.0,0.0,0.0,0.0,0.0,0.0,0.0,0.0,0.0,0.0,0.0,0.0,0.0,0.0,0.0,0.0,0.0,0.0,0.0,0.0,-1.1649,-0.9028,0.0,-0.4841,-0.5064,-0.5242,-0.2945,-0.5081,-0.7909,-0.8662,0.0,-1.6389,-1.8385,-1.9474,-2.0106,-2.0243,-1.94,-1.9003,-2.0015,-1.9412,0.0,0.0,0.0,0.0,0.0,0.0,0.0,0.0,0.0,0.0,0.0,0.0,0.0,0.0,-0.9588,-0.9042,-0.8234,-0.7593,-0.7,-0.6452,-0.6097,-0.562,-0.5072,-0.5309,-0.5357,-0.5303,-0.6165,0.0,0.0,0.0,0.0,0.0,-0.6246,-0.6225,-0.674,-0.6267,-0.6124,-0.6221,-0.6596,-0.6723,-0.6708,0.0,0.0,0.0,0.0,0.0,0.0,0.0,0.0,0.0,0.0,0.0,0.0,0.0,0.0,0.0,0.0,0.0,0.0,0.0,0.0,0.0,0.0,0.0,0.0,0.0,0.0,0.0,0.0,0.0,0.0,0.0,0.0,0.0,0.0,0.0,0.0,0.0,0.0,0.0,0.0,0.0,0.0,-3.2859,0.0,0.0,0.0,0.0,0.0,0.0,0.0,0.0,0.0,0.0,0.0,0.0,0.0,-1.385,-1.1287,0.0,-0.8652,-0.916,-0.7804,-1.049,0.0,0.0,0.0,-1.9799,-2.0895,-2.0797,-2.0537,-2.0638,-1.9998,-1.9772,-2.0704,-2.0423,0.0,0.0,0.0,0.0,0.0,0.0,0.0,0.0,0.0,0.0,0.0,0.0,0.0,0.0,0.0,-0.9139,-0.8639,-0.7974,-0.7461,-0.714,-0.6634,-0.6283,-0.6137,-0.6228,-0.6234,-0.617,-0.7106,0.0,0.0,0.0,0.0,0.0,-0.6081,-0.6054,-0.6761,-0.6167,-0.6109,-0.6435,-0.6802,-0.6977,-0.7041,0.0,0.0,0.0,0.0,0.0,0.0,0.0,0.0,0.0,0.0,0.0,0.0,0.0,0.0,0.0,0.0,0.0,0.0,0.0,0.0,0.0,0.0,0.0,0.0,0.0,0.0,0.0,0.0,-3.3326,-3.3834,-3.4294,0.0,0.0,0.0,0.0,0.0,0.0,0.0,0.0,0.0,0.0,0.0,0.0,0.0,0.0,0.0,0.0,0.0,0.0,0.0,0.0,0.0,0.0,0.0,0.0,0.0,0.0,0.0,0.0,0.0,0.0,0.0,0.0,0.0,0.0,0.0,0.0,0.0,-2.1305,-2.0667,-2.0497,-2.062,-2.0799,-2.0909,-2.1184,0.0,0.0,0.0,0.0,0.0,0.0,0.0,0.0,0.0,0.0,0.0,0.0,0.0,0.0,0.0,-0.9036,-0.8996,-0.837,-0.7925,-0.7732,-0.7259,-0.7189,-0.7523,-0.7468,-0.7384,-0.7287,-0.807,0.0,0.0,0.0,0.0,0.0,-0.5947,-0.5835,-0.6495,-0.6039,-0.605,-0.6349,-0.6852,-0.7139,-0.7293,0.0,0.0,0.0,0.0,0.0,0.0,0.0,0.0,0.0,0.0,0.0,0.0,0.0,0.0,0.0,0.0,0.0,0.0,0.0,0.0,0.0,0.0,0.0,0.0,0.0,0.0,0.0,-3.1688,-3.2314,-3.2538,-3.2366,-3.2491,0.0,0.0,0.0,0.0,0.0,0.0,0.0,0.0,0.0,0.0,0.0,0.0,0.0,0.0,-2.5581,-2.4251,0.0,0.0,0.0,0.0,0.0,0.0,0.0,0.0,-2.0162,-1.9622,-1.7951,0.0,-1.668,-1.7261,0.0,0.0,0.0,0.0,0.0,0.0,0.0,0.0,0.0,0.0,0.0,0.0,0.0,0.0,0.0,0.0,0.0,0.0,0.0,0.0,0.0,0.0,0.0,0.0,0.0,0.0,0.0,0.0,-0.933,-0.901,-0.8541,-0.818,-0.7925,-0.751,-0.7433,-0.7649,-0.7801,-0.7835,-0.7827,-0.8541,0.0,0.0,0.0,0.0,-0.6704,-0.6204,-0.6346,-0.6846,-0.6598,-0.6789,-0.7231,-0.7454,-0.7621,-0.7753,0.0,0.0,0.0,0.0,0.0,0.0,0.0,0.0,0.0,0.0,0.0,0.0,0.0,0.0,0.0,0.0,0.0,0.0,0.0,0.0,0.0,0.0,0.0,0.0,0.0,0.0,0.0,0.0,0.0,-3.1905,0.0,0.0,0.0,0.0,0.0,0.0,0.0,0.0,0.0,0.0,-3.3454,0.0,0.0,0.0,0.0,0.0,-2.5173,-2.3912,0.0,-2.3126,-2.2925,-2.2712,0.0,0.0,0.0,0.0,-2.0919,-2.0464,-1.9674,-1.9217,-1.9162,-1.9781,-2.064,-2.1504,0.0,0.0,0.0,0.0,0.0,0.0,0.0,0.0,0.0,0.0,0.0,0.0,0.0,0.0,0.0,0.0,0.0,0.0,0.0,0.0,0.0,0.0,0.0,0.0,0.0,0.0,-0.9219,-0.9019,-0.8406,-0.8057,-0.8,-0.7704,-0.7746,-0.816,-0.8172,-0.8234,-0.8329,-0.861,0.0,0.0,0.0,0.0,-0.6675,-0.6556,-0.6873,-0.7405,-0.7335,-0.7461,-0.7718,-0.794,-0.7995,-0.7987,0.0,0.0,0.0,0.0,0.0,0.0,0.0,0.0,0.0,0.0,0.0,0.0,0.0,0.0,0.0,0.0,0.0,0.0,0.0,0.0,0.0,0.0,0.0,0.0,0.0,0.0,0.0,0.0,0.0,0.0,0.0,0.0,0.0,0.0,0.0,0.0,0.0,0.0,0.0,0.0,-3.2974,0.0,0.0,0.0,0.0,0.0,0.0,0.0,0.0,-2.2769,-2.2497,-2.2303,-2.2588,0.0,0.0,0.0,0.0,0.0,-1.9765,-2.0269,-2.0971,-2.1263,-2.1828,-2.2394,0.0,0.0,0.0,0.0,0.0,0.0,0.0,0.0,0.0,0.0,0.0,0.0,0.0,0.0,0.0,0.0,0.0,0.0,0.0,0.0,0.0,0.0,0.0,0.0,0.0,0.0,0.0,-0.8996,-0.8221,-0.785,-0.7959,-0.7787,-0.7974,-0.8541,-0.8447,-0.8488,-0.8663,-0.8537,-0.8028,0.0,0.0,0.0,-0.6808,-0.695,-0.737,-0.7891,-0.7966,-0.8049,-0.8118,-0.8291,-0.8262,-0.8206,0.0,0.0,0.0,0.0,0.0,0.0,0.0,0.0,0.0,0.0,0.0,0.0,0.0,0.0,0.0,0.0,0.0,0.0,0.0,0.0,0.0,0.0,0.0,0.0,0.0,0.0,0.0,0.0,0.0,0.0,-3.127,-3.1787,-3.2985,0.0,0.0,0.0,0.0,-3.4991,-3.463,-3.414,-3.3099,0.0,0.0,0.0,0.0,0.0,0.0,0.0,0.0,-2.262,-2.2419,-2.2096,-2.2511,0.0,0.0,0.0,0.0,0.0,-2.0146,-2.0808,-2.1351,-2.1125,-2.169,-2.2394,0.0,0.0,0.0,0.0,0.0,0.0,0.0,0.0,0.0,0.0,0.0,0.0,0.0,0.0,0.0,0.0,0.0,0.0,0.0,0.0,0.0,0.0,0.0,0.0,0.0,0.0,0.0,-0.9016,-0.8537,-0.8126,-0.7753,-0.7712,-0.7753,-0.7857,-0.8229,-0.8414,-0.8455,-0.8773,-0.837,0.0,0.0,-0.7098,-0.6371,-0.7224,-0.7669,-0.7821,-0.7959,-0.8411,-0.8935,-0.8296,-0.8398,-0.8854,0.0,0.0,0.0,0.0,0.0,0.0,0.0,0.0,0.0,0.0,0.0,0.0,0.0,0.0,0.0,0.0,0.0,0.0,0.0,0.0,0.0,0.0,0.0,0.0,0.0,0.0,0.0,0.0,0.0,-2.9527,-2.9579,-3.2046,-3.3763,-3.4834,0.0,0.0,0.0,-3.4945,-3.468,-3.4218,0.0,0.0,0.0,0.0,0.0,0.0,0.0,0.0,0.0,0.0,-2.1779,-2.1615,-2.1884,0.0,0.0,0.0,0.0,0.0,-1.9448,-1.9815,-2.0189,-2.0361,-2.1703,0.0,0.0,0.0,0.0,0.0,0.0,0.0,0.0,0.0,0.0,0.0,0.0,0.0,0.0,0.0,0.0,0.0,0.0,0.0,0.0,0.0,0.0,0.0,0.0,0.0,0.0,0.0,0.0,0.0,-0.9022,-0.8472,-0.8085,-0.7816,-0.7753,-0.7863,-0.8229,-0.8455,-0.857,-0.8631,-0.8296,-0.7599,0.0,-0.6909,-0.6301,-0.6755,-0.7147,-0.7481,-0.7543,-0.7902,-0.8365,-0.818,-0.8443,-0.8918,0.0,0.0,0.0,0.0,0.0,0.0,0.0,0.0,0.0,0.0,0.0,0.0,0.0,0.0,0.0,0.0,0.0,0.0,0.0,0.0,0.0,0.0,0.0,0.0,0.0,0.0,0.0,-2.6396,-2.7011,-2.7681,-2.8487,-3.2193,-3.4255,0.0,0.0,0.0,0.0,-3.4889,-3.467,-3.4307,0.0,0.0,0.0,0.0,0.0,0.0,0.0,0.0,0.0,0.0,0.0,0.0,0.0,0.0,0.0,-2.0927,-2.0016,-1.9041,-1.886,-1.8996,-1.9277,-1.9757,0.0,0.0,0.0,0.0,0.0,0.0,0.0,0.0,0.0,0.0,0.0,0.0,0.0,0.0,0.0,0.0,0.0,0.0,0.0,0.0,0.0,0.0,0.0,0.0,0.0,0.0,0.0,0.0,0.0,0.0,-0.9664,-0.9032,-0.85,-0.8018,-0.7829,-0.7925,-0.818,-0.8386,-0.8533,-0.8447,-0.8172,-0.7745,-0.7294,-0.6782,-0.6289,-0.6289,-0.6531,-0.6876,-0.6876,-0.7126,-0.7579,-0.8221,-0.8609,-0.8868,0.0,0.0,0.0,0.0,0.0,0.0,0.0,0.0,0.0,0.0,0.0,0.0,0.0,0.0,0.0,0.0,0.0,0.0,0.0,0.0,0.0,0.0,0.0,0.0,0.0,-2.6178,-2.638,-2.5223,-2.5833,-2.7206,-2.9349,-3.1522,-3.2962,-3.3756,0.0,0.0,0.0,-3.4809,-3.4708,-3.4486,-3.35,0.0,0.0,0.0,0.0,0.0,0.0,0.0,0.0,0.0,0.0,0.0,0.0,0.0,-2.043,-2.0234,-1.9501,-1.8798,-1.9089,-1.9444,-1.974,-1.9737,0.0,0.0,0.0,0.0,0.0,0.0,0.0,0.0,0.0,0.0,0.0,0.0,0.0,0.0,0.0,0.0,0.0,0.0,0.0,0.0,0.0,0.0,0.0,0.0,0.0,0.0,0.0,0.0,0.0,0.0,0.0,-0.9933,-0.878,-0.8254,-0.7884,-0.7732,-0.7925,-0.8041,-0.8062,-0.8283,-0.8242,-0.7959,-0.7551,-0.6958,-0.6289,-0.6289,-0.6134,-0.5909,-0.5909,-0.6298,-0.7064,-0.8638,-0.904,-0.8955,0.0,0.0,0.0,0.0,0.0,0.0,0.0,0.0,0.0,0.0,0.0,0.0,0.0,0.0,0.0,0.0,0.0,0.0,0.0,0.0,0.0,0.0,0.0,-2.762,-2.3941,-2.5006,-2.4616,-2.2553,-2.4405,-2.6865,-2.9873,-3.1768,0.0,0.0,0.0,0.0,0.0,-3.4542,-3.4406,-3.3802,-3.3966,-3.3033,0.0,0.0,0.0,0.0,0.0,0.0,0.0,0.0,-2.0651,-2.0269,-2.0179,-1.9952,-1.974,-1.9866,-1.9218,-1.8484,-1.8603,-1.8941,-1.9232,-1.9214,0.0,0.0,0.0,0.0,0.0,0.0,0.0,0.0,0.0,0.0,0.0,0.0,0.0,0.0,0.0,0.0,0.0,0.0,0.0,0.0,0.0,0.0,0.0,0.0,0.0,0.0,0.0,0.0,0.0,0.0,0.0,-1.0627,-0.9501,-0.8838,-0.8293,-0.7898,-0.7921,-0.7966,-0.8,-0.8283,-0.8132,-0.7679,-0.7472,-0.6685,-0.552,-0.5194,-0.4864,-0.4604,-0.5061,-0.5929,-0.7071,-0.8342,-0.9175,-0.9796,0.0,0.0,0.0,0.0,0.0,0.0,0.0,0.0,0.0,0.0,0.0,0.0,0.0,0.0,0.0,0.0,0.0,0.0,0.0,0.0,0.0,0.0,0.0,-2.7532,-2.4266,-2.444,-2.3453,-2.1122,-2.3591,-2.6249,-2.9073,0.0,0.0,0.0,0.0,0.0,0.0,0.0,-3.3525,-3.2935,-3.3545,-3.2721,0.0,0.0,0.0,0.0,0.0,0.0,0.0,0.0,-2.0486,-1.9939,-1.9823,-1.9555,-1.9347,-1.9571,-1.9137,-1.8559,-1.8433,-1.8693,-1.8999,0.0,0.0,0.0,0.0,0.0,0.0,0.0,0.0,0.0,0.0,0.0,0.0,0.0,0.0,0.0,0.0,0.0,0.0,0.0,0.0,0.0,0.0,0.0,0.0,0.0,0.0,0.0,0.0,0.0,0.0,0.0,0.0,0.0,-1.0385,-0.9391,-0.8739,-0.8428,-0.7964,-0.7786,-0.7848,-0.7962,-0.7943,-0.7767,-0.7344,-0.6506,-0.5426,-0.4629,-0.4025,-0.3674,-0.4541,-0.5756,-0.7134,-0.8196,-0.9361,-1.0518,0.0,0.0,0.0,0.0,0.0,0.0,0.0,0.0,0.0,0.0,0.0,0.0,0.0,0.0,0.0,0.0,0.0,0.0,0.0,0.0,0.0,0.0,0.0,-2.8187,-2.5592,-2.4481,-2.3106,-2.1416,-2.3539,-2.5307,-2.679,-2.9661,0.0,0.0,0.0,0.0,0.0,0.0,-3.1998,-3.1998,-3.1998,-3.1321,-3.0274,0.0,0.0,0.0,0.0,0.0,0.0,0.0,-2.0798,-2.0229,-1.9821,-1.9523,-1.9303,-1.9287,-1.9231,-1.9099,-1.8702,-1.8891,0.0,0.0,0.0,0.0,0.0,0.0,0.0,0.0,0.0,0.0,0.0,0.0,0.0,0.0,0.0,0.0,0.0,0.0,0.0,0.0,0.0,0.0,0.0,0.0,0.0,0.0,0.0,0.0,0.0,0.0,0.0,0.0,0.0,0.0,-1.142,-0.9894,-0.9216,-0.9389,-0.8057,-0.7442,-0.7509,-0.7288,-0.7636,-0.8321,-0.7114,-0.6491,-0.6195,-0.4834,-0.3804,-0.3215,-0.4418,-0.5741,-0.7151,-0.8359,-0.9643,-1.0974,0.0,0.0,0.0,0.0,0.0,0.0,0.0,0.0,0.0,0.0,0.0,0.0,0.0,0.0,0.0,0.0,0.0,0.0,0.0,0.0,0.0,0.0,0.0,0.0,0.0,0.0,-2.4697,-2.2163,-2.3139,-2.533,0.0,0.0,0.0,-3.1778,0.0,0.0,0.0,0.0,-3.1302,-3.0928,-3.1533,-3.1191,-3.0274,0.0,0.0,0.0,0.0,0.0,0.0,0.0,0.0,0.0,-2.0026,-1.9652,-1.9245,-1.8583,-1.8358,-1.8138,-1.7112,-1.7659,0.0,0.0,0.0,0.0,0.0,0.0,0.0,0.0,0.0,0.0,0.0,0.0,0.0,0.0,0.0,0.0,0.0,0.0,0.0,0.0,0.0,0.0,0.0,0.0,0.0,0.0,0.0,0.0,0.0,0.0,0.0,0.0,0.0,0.0,-1.2196,-1.1579,-1.0702,-0.9528,-0.8902,-0.8304,-0.7776,-0.7339,-0.7317,-0.7589,-0.6904,-0.6335,-0.5716,-0.3679,-0.2672,-0.2509,-0.3079,-0.4682,-0.6901,-0.8343,-0.9882,-1.1456,0.0,0.0,0.0,0.0,0.0,0.0,0.0,0.0,0.0,0.0,0.0,0.0,0.0,0.0,0.0,0.0,0.0,0.0,0.0,0.0,0.0,0.0,0.0,0.0,0.0,-2.7676,-2.6034,0.0,0.0,0.0,0.0,0.0,0.0,-3.0954,0.0,-3.0241,0.0,0.0,-2.9191,-2.8883,-2.981,-2.9606,-2.8803,0.0,0.0,0.0,0.0,0.0,0.0,0.0,0.0,0.0,-2.1194,-2.0475,-1.9584,-1.8704,-1.8165,-1.7678,-1.6728,0.0,0.0,0.0,0.0,0.0,0.0,0.0,0.0,0.0,0.0,0.0,0.0,0.0,0.0,0.0,0.0,0.0,0.0,0.0,0.0,0.0,0.0,0.0,0.0,0.0,0.0,0.0,0.0,0.0,0.0,0.0,0.0,0.0,0.0,0.0,-1.3458,-1.3078,-1.2293,-1.1136,-1.0135,-0.9308,-0.8657,-0.7449,-0.7092,-0.7383,-0.6818,-0.5955,-0.4893,-0.3582,-0.2821,-0.2535,-0.3044,-0.4643,-0.6823,-0.8094,-0.9779,-1.1658,0.0,0.0,0.0,0.0,0.0,0.0,0.0,0.0,0.0,0.0,-3.0518,0.0,0.0,0.0,0.0,0.0,0.0,0.0,0.0,0.0,0.0,0.0,0.0,0.0,0.0,0.0,0.0,0.0,0.0,0.0,0.0,0.0,-2.8185,-2.8888,0.0,-2.7434,0.0,-2.6684,-2.6348,-2.6432,-2.7365,-2.7185,-2.6549,-2.8092,0.0,0.0,0.0,0.0,0.0,0.0,0.0,0.0,-2.2877,-2.1663,-2.0185,-1.9248,-1.8251,-1.7353,0.0,0.0,0.0,0.0,0.0,0.0,0.0,0.0,0.0,0.0,0.0,0.0,0.0,0.0,0.0,0.0,0.0,0.0,0.0,0.0,0.0,0.0,0.0,0.0,0.0,0.0,0.0,0.0,0.0,0.0,0.0,0.0,0.0,0.0,0.0,0.0,-1.4908,-1.4326,-1.3831,0.0,-1.1521,-1.0377,-0.9881,-0.7671,-0.6944,-0.7398,-0.6778,-0.5513,-0.3942,-0.4184,-0.3788,-0.3086,-0.396,-0.5353,-0.7002,-0.7889,-0.9665,-1.1777,0.0,0.0,0.0,0.0,0.0,0.0,0.0,0.0,0.0,0.0,0.0,0.0,0.0,0.0,0.0,0.0,0.0,0.0,0.0,0.0,0.0,0.0,0.0,0.0,0.0,0.0,0.0,0.0,0.0,0.0,0.0,0.0,0.0,-2.7007,0.0,-2.6494,0.0,-2.5775,-2.5955,-2.6045,-2.6355,-2.6395,-2.6356,-2.7449,-2.7604,0.0,0.0,0.0,0.0,0.0,0.0,0.0,-2.3355,-2.2064,-2.0477,-1.8565,-1.6899,-1.542,0.0,0.0,0.0,0.0,0.0,0.0,0.0,0.0,0.0,0.0,0.0,0.0,0.0,0.0,0.0,0.0,0.0,0.0,0.0,0.0,0.0,0.0,0.0,0.0,0.0,0.0,0.0,0.0,0.0,0.0,0.0,0.0,0.0,0.0,0.0,-1.5823,-1.4996,-1.495,-1.4412,0.0,-1.2085,-1.108,-1.0293,-0.8137,-0.6824,-0.6273,-0.6434,-0.5566,-0.4053,-0.4123,-0.4021,-0.3902,-0.4629,-0.605,-0.7845,-0.9289,-1.0923,-1.2681,0.0,0.0,0.0,0.0,0.0,0.0,0.0,0.0,0.0,0.0,0.0,0.0,0.0,0.0,0.0,0.0,0.0,0.0,0.0,0.0,0.0,0.0,0.0,0.0,0.0,0.0,0.0,0.0,0.0,0.0,0.0,0.0,0.0,-2.6655,0.0,-2.5406,-2.5097,-2.4672,-2.4536,-2.4615,-2.5159,-2.5188,-2.5034,-2.6307,-2.6831,-2.688,-2.6931,0.0,0.0,0.0,0.0,0.0,0.0,0.0,-2.1461,-1.9129,-1.6919,-1.48,0.0,0.0,0.0,0.0,0.0,0.0,0.0,0.0,0.0,0.0,0.0,0.0,0.0,0.0,0.0,0.0,0.0,0.0,0.0,0.0,0.0,0.0,0.0,0.0,0.0,0.0,0.0,0.0,0.0,0.0,0.0,0.0,0.0,0.0,-1.6205,-1.6159,-1.5723,-1.6051,-1.5845,-1.5103,-1.4095,-1.267,-1.0858,-0.8605,-0.7062,-0.6167,-0.6625,-0.6014,-0.4695,-0.5086,-0.518,-0.5137,-0.6012,-0.7171,-0.8578,-1.0293,-1.1757,-1.3148,0.0,0.0,0.0,0.0,0.0,0.0,0.0,0.0,0.0,0.0,0.0,0.0,0.0,0.0,0.0,0.0,0.0,0.0,0.0,0.0,0.0,0.0,0.0,0.0,0.0,0.0,0.0,0.0,0.0,0.0,0.0,0.0,0.0,-2.6342,0.0,0.0,-2.5041,-2.3952,-2.341,-2.334,-2.4334,-2.4302,-2.3801,-2.5327,-2.6062,-2.6352,-2.6749,-2.6956,-2.7035,-2.6759,0.0,0.0,0.0,0.0,-2.2126,-1.9795,-1.7141,-1.4481,0.0,0.0,0.0,0.0,0.0,0.0,0.0,0.0,0.0,0.0,0.0,0.0,0.0,0.0,0.0,0.0,0.0,0.0,0.0,0.0,0.0,0.0,0.0,0.0,0.0,0.0,0.0,0.0,0.0,0.0,0.0,0.0,-1.577,-1.5885,-1.6109,-1.6274,-1.638,-1.6834,-1.6949,-1.6699,-1.5743,-1.3912,-1.1303,-0.9287,-0.7757,-0.672,-0.7005,-0.6491,-0.5553,-0.6225,-0.6406,-0.6394,-0.754,-0.8609,-0.9702,-1.145,-1.2812,-1.4005,0.0,0.0,0.0,0.0,0.0,0.0,0.0,0.0,0.0,0.0,0.0,0.0,0.0,0.0,0.0,0.0,0.0,0.0,0.0,0.0,0.0,0.0,0.0,0.0,0.0,0.0,0.0,0.0,0.0,0.0,0.0,0.0,0.0,0.0,0.0,0.0,0.0,-2.4554,-2.4611,-2.3959,-2.4905,-2.4853,-2.4314,-2.5463,-2.5936,-2.6086,-2.6926,-2.7138,-2.7009,-2.6956,-2.625,0.0,0.0,0.0,-2.0965,-1.8936,-1.6129,-1.3193,0.0,0.0,0.0,0.0,0.0,0.0,0.0,0.0,0.0,0.0,0.0,0.0,0.0,0.0,0.0,0.0,0.0,0.0,0.0,0.0,0.0,0.0,0.0,0.0,0.0,0.0,0.0,0.0,0.0,0.0,0.0,-1.5344,-1.5492,-1.5799,-1.5856,-1.5885,-1.5884,-1.608,-1.5951,-1.5502,-1.4229,-1.2783,-1.1199,-1.0547,-0.9416,-0.7922,-0.7111,-0.6609,-0.6359,-0.6449,-0.6727,-0.719,-0.8613,-1.0271,-1.203,-1.3548,-1.5117,-1.6624,0.0,0.0,0.0,0.0,0.0,0.0,0.0,0.0,0.0,0.0,0.0,0.0,0.0,0.0,0.0,0.0,0.0,0.0,0.0,0.0,0.0,0.0,0.0,0.0,0.0,0.0,0.0,0.0,0.0,0.0,0.0,-2.1533,-2.2395,0.0,0.0,0.0,0.0,0.0,0.0,-2.3622,-2.4404,-2.4755,0.0,0.0,0.0,0.0,-2.6792,-2.6684,-2.6369,-2.6258,-2.5653,-2.4895,-2.4478,0.0,0.0,0.0,0.0,0.0,0.0,0.0,0.0,0.0,0.0,0.0,0.0,0.0,0.0,0.0,0.0,0.0,0.0,0.0,0.0,0.0,0.0,0.0,0.0,0.0,0.0,0.0,0.0,0.0,0.0,0.0,0.0,0.0,0.0,0.0,-1.4493,-1.4938,-1.5344,-1.5668,-1.5912,-1.5841,-1.5476,-1.6231,-1.6626,-1.6636,-1.5212,-1.4109,-1.3307,-1.2334,-1.0728,-0.8678,-0.8082,-0.7585,-0.7205,-0.7575,-0.8104,-0.8801,-1.0202,-1.1899,-1.3753,-1.5163,-1.649,-1.7735,0.0,0.0,0.0,0.0,0.0,0.0,0.0,0.0,0.0,0.0,0.0,0.0,0.0,0.0,0.0,0.0,0.0,0.0,0.0,0.0,0.0,0.0,0.0,0.0,0.0,0.0,0.0,0.0,0.0,0.0,-1.9867,-1.9307,-2.0607,0.0,-2.3203,0.0,0.0,0.0,0.0,0.0,0.0,0.0,0.0,0.0,0.0,0.0,0.0,-2.6257,-2.6066,-2.5941,-2.5329,-2.4592,-2.4388,0.0,0.0,0.0,0.0,0.0,0.0,0.0,0.0,0.0,0.0,0.0,0.0,0.0,0.0,0.0,0.0,0.0,0.0,0.0,0.0,0.0,0.0,0.0,0.0,0.0,0.0,0.0,0.0,0.0,0.0,0.0,0.0,0.0,0.0,0.0,-1.3759,-1.4381,-1.4953,-1.5463,-1.5797,-1.5765,-1.5358,-1.625,-1.6921,-1.7294,-1.6075,-1.5382,-1.5114,-1.38,-1.2123,-1.0218,-0.9353,-0.8761,-0.843,-0.888,-0.9463,-1.0206,-1.1544,-1.3279,-1.5174,-1.6365,-1.7578,-1.8702,0.0,0.0,0.0,0.0,0.0,0.0,0.0,0.0,0.0,0.0,0.0,0.0,0.0,0.0,0.0,-2.8688,-2.8202,-2.8096,-2.8598,-3.0361,-3.0864,0.0,0.0,0.0,0.0,0.0,0.0,0.0,0.0,0.0,-1.8929,-1.779,-1.7932,-1.9294,-2.0968,-2.1345,-2.0922,0.0,0.0,0.0,0.0,0.0,0.0,0.0,0.0,0.0,0.0,0.0,0.0,0.0,0.0,0.0,0.0,0.0,0.0,0.0,0.0,0.0,0.0,0.0,0.0,0.0,0.0,0.0,0.0,0.0,0.0,0.0,0.0,0.0,0.0,0.0,0.0,0.0,0.0,0.0,0.0,0.0,0.0,0.0,0.0,0.0,0.0,0.0,0.0,0.0,0.0,0.0,-1.3373,-1.3583,-1.4122,-1.5104,-1.527,-1.5477,-1.5782,-1.57,-1.5883,-1.6263,-1.5752,-1.5512,-1.5525,-1.4515,-1.3821,-1.3318,-1.0828,-0.9944,-1.0252,-1.0095,-1.0344,-1.0976,-1.2252,-1.4167,-1.6305,-1.7069,-1.8479,-2.0009,0.0,0.0,0.0,0.0,0.0,0.0,0.0,0.0,0.0,0.0,0.0,0.0,0.0,0.0,-2.8401,-2.85,-2.8552,-2.8769,-2.9246,-2.9914,-3.0052,-2.9456,0.0,-2.7121,-2.5082,0.0,0.0,0.0,0.0,-1.7011,-1.6961,-1.6432,-1.6583,-1.7408,-1.967,-2.0549,-2.0426,-2.267,0.0,0.0,0.0,0.0,0.0,0.0,0.0,0.0,0.0,0.0,0.0,0.0,0.0,0.0,0.0,0.0,0.0,0.0,0.0,0.0,0.0,0.0,0.0,0.0,0.0,0.0,0.0,0.0,0.0,0.0,0.0,0.0,0.0,0.0,0.0,0.0,0.0,0.0,0.0,0.0,0.0,0.0,0.0,0.0,0.0,0.0,0.0,0.0,0.0,0.0,-1.1964,-1.2646,-1.3424,-1.429,-1.4837,-1.5506,-1.6315,-1.5321,-1.5487,-1.677,-1.6271,-1.6093,-1.6207,-1.547,-1.4749,-1.402,-1.2681,-1.1754,-1.1156,-1.1085,-1.1435,-1.2132,-1.3485,-1.5162,-1.6929,-1.7887,-1.9054,-2.0179,0.0,0.0,0.0,0.0,0.0,0.0,0.0,0.0,0.0,0.0,0.0,0.0,0.0,0.0,-2.8139,-2.8021,-2.8609,-2.9026,-2.9063,-2.9456,-2.9607,-2.9409,-2.8521,-2.7247,-2.5561,-2.3553,0.0,0.0,0.0,0.0,0.0,0.0,-1.6001,-1.6238,-1.8231,-1.9164,0.0,0.0,0.0,-2.293,0.0,0.0,-2.5947,0.0,0.0,0.0,0.0,0.0,0.0,0.0,0.0,0.0,0.0,0.0,0.0,0.0,0.0,0.0,0.0,0.0,0.0,0.0,0.0,0.0,0.0,0.0,0.0,0.0,0.0,0.0,0.0,0.0,0.0,0.0,0.0,0.0,0.0,0.0,0.0,0.0,0.0,0.0,0.0,0.0,0.0,0.0,0.0,0.0,-1.1018,-1.1739,-1.2676,-1.3759,-1.4652,-1.5491,-1.6299,-1.5435,-1.5548,-1.6629,-1.6579,-1.6564,-1.6543,-1.5962,-1.5379,-1.4785,-1.388,-1.3015,-1.2215,-1.2339,-1.2655,-1.3215,-1.4229,-1.5705,-1.7292,-1.7733,-1.8865,-2.0157,0.0,0.0,0.0,0.0,0.0,0.0,0.0,0.0,0.0,0.0,0.0,0.0,0.0,0.0,0.0,-2.7289,-2.83,-2.8635,-2.7874,-2.8988,-2.9579,-2.9408,-2.9077,-2.8097,-2.6446,-2.4398,0.0,0.0,0.0,0.0,0.0,0.0,-1.6142,0.0,-1.6634,-1.7184,-1.7651,0.0,-2.0819,-2.0621,0.0,-2.3752,-2.4529,0.0,0.0,0.0,-2.6102,-2.6047,0.0,0.0,0.0,0.0,0.0,0.0,0.0,0.0,0.0,0.0,0.0,0.0,0.0,0.0,0.0,0.0,0.0,0.0,0.0,0.0,0.0,0.0,0.0,0.0,0.0,0.0,0.0,0.0,0.0,0.0,0.0,0.0,0.0,0.0,0.0,0.0,0.0,0.0,0.0,-0.9894,-1.0617,-1.0931,-1.1852,-1.3529,-1.466,-1.5389,-1.5681,-1.6008,-1.6024,-1.573,-1.6637,-1.6873,-1.6509,-1.5969,-1.578,-1.5815,-1.4354,-1.3617,-1.342,-1.3774,-1.3976,-1.4121,-1.442,-1.5729,-1.7363,-1.6609,-1.7957,-2.0046,0.0,0.0,0.0,0.0,0.0,0.0,0.0,0.0,0.0,0.0,0.0,0.0,0.0,0.0,0.0,-2.8009,-2.8358,-2.856,-2.8537,-2.8857,-2.9064,-2.9101,-2.8795,-2.8031,-2.6791,-2.5155,0.0,0.0,0.0,0.0,0.0,0.0,0.0,0.0,-1.7037,-1.7109,-1.739,-1.8976,0.0,0.0,-2.1672,-2.2834,0.0,0.0,0.0,0.0,0.0,-2.5008,0.0,0.0,-2.598,-2.5544,0.0,0.0,0.0,0.0,0.0,0.0,-1.7946,0.0,0.0,0.0,0.0,0.0,0.0,0.0,0.0,0.0,0.0,0.0,0.0,0.0,0.0,0.0,0.0,0.0,0.0,0.0,0.0,0.0,0.0,0.0,0.0,0.0,0.0,0.0,-0.8666,-0.921,-0.9321,-1.0504,-1.1722,-1.2909,-1.3683,-1.4458,-1.5255,-1.5448,-1.572,-1.6058,-1.6325,-1.6633,-1.699,-1.6309,-1.5877,-1.5651,-1.4831,-1.4164,-1.3644,-1.3863,-1.4078,-1.4325,-1.514,-1.5836,-1.6451,-1.6866,-1.7918,-1.9083,0.0,0.0,0.0,0.0,0.0,0.0,0.0,0.0,0.0,0.0,0.0,0.0,0.0,0.0,0.0,0.0,-2.8353,-2.8466,-2.862,-2.8706,-2.879,-2.8874,-2.8694,-2.8187,-2.733,-2.5866,0.0,0.0,0.0,0.0,0.0,0.0,0.0,0.0,0.0,0.0,0.0,0.0,0.0,0.0,-2.0689,0.0,0.0,-2.2443,-2.2914,0.0,0.0,0.0,-2.4785,-2.5324,-2.5495,0.0,0.0,0.0,0.0,0.0,0.0,0.0,0.0,0.0,0.0,0.0,0.0,0.0,-0.6318,-0.3613,0.0,0.0,0.0,0.0,0.0,0.0,0.0,0.0,0.0,0.0,0.0,0.0,0.0,0.0,0.0,0.0,0.0,0.0,0.0,0.0,-0.8377,-0.8929,-0.9321,-1.0656,-1.1748,-1.2514,-1.323,-1.4041,-1.4966,-1.518,-1.5403,-1.5627,-1.6134,-1.6436,-1.6536,-1.6315,-1.6132,-1.593,-1.5019,-1.4427,-1.4062,-1.3923,-1.4049,-1.435,-1.4946,-1.5456,-1.5911,-1.6156,-1.7227,-1.851,0.0,0.0,0.0,0.0,0.0,0.0,0.0,0.0,0.0,0.0,0.0,0.0,0.0,0.0,0.0,0.0,-2.8268,-2.8326,-2.8505,-2.8569,0.0,-2.8597,-2.8573,-2.8327,-2.7805,-2.6385,0.0,0.0,0.0,0.0,0.0,0.0,0.0,0.0,0.0,0.0,0.0,0.0,0.0,-1.8164,-1.9606,-2.0799,0.0,0.0,-2.3027,0.0,-2.4024,-2.3713,-2.3352,-2.4002,-2.4328,0.0,0.0,0.0,0.0,0.0,-2.1135,0.0,0.0,0.0,0.0,0.0,0.0,0.0,-0.8523,-0.4632,-0.1031,0.0,0.0,0.0,0.0,0.0,0.0,0.0,0.0,0.0,0.0,0.0,0.0,0.0,0.0,0.0,0.0,0.0,-0.6613,-0.7736,-0.82,-0.8921,-1.0009,-1.1012,-1.1824,-1.2328,-1.3062,-1.3875,-1.4763,-1.5088,-1.514,-1.4916,-1.6009,-1.621,-1.5696,-1.6168,-1.6403,-1.6348,-1.5041,-1.451,-1.4502,-1.3908,-1.3899,-1.4255,-1.4258,-1.4794,-1.5481,-1.5035,-1.6275,-1.8093,0.0,0.0,0.0,0.0,0.0,0.0,0.0,0.0,0.0,0.0,0.0,0.0,0.0,0.0,0.0,0.0,0.0,-2.7848,0.0,0.0,-2.7996,-2.8047,-2.7791,-2.748,-2.7111,-2.6066,0.0,0.0,0.0,0.0,0.0,0.0,0.0,0.0,0.0,0.0,0.0,0.0,0.0,-1.8339,-1.8731,0.0,-2.1159,-2.0412,-2.0887,-2.2007,-2.2264,-2.2363,-2.2435,0.0,-2.2964,-2.2778,0.0,0.0,0.0,0.0,0.0,0.0,0.0,0.0,0.0,0.0,0.0,0.0,-1.095,-0.6828,-0.2993,0.0,0.0,0.0,0.0,0.0,0.0,0.0,0.0,0.0,0.0,0.0,0.0,0.0,0.0,0.0,0.0,0.0,-0.6444,-0.6685,-0.7951,-0.9059,-0.9827,-1.0422,-1.1297,-1.2586,-1.259,-1.3196,-1.4562,-1.478,-1.5136,-1.5604,-1.5838,-1.6033,-1.6164,-1.6271,-1.619,-1.5905,-1.5255,-1.4675,-1.4159,-1.3667,-1.362,-1.3919,-1.4019,-1.4232,-1.4555,-1.5146,-1.6163,-1.7341,0.0,0.0,0.0,0.0,0.0,0.0,0.0,0.0,0.0,0.0,0.0,0.0,0.0,0.0,0.0,0.0,0.0,0.0,0.0,0.0,-2.8352,-2.8397,-2.7681,-2.7147,-2.6856,-2.6144,0.0,0.0,0.0,0.0,0.0,0.0,0.0,0.0,0.0,0.0,0.0,0.0,-1.8445,-1.7945,-1.8437,0.0,-2.0268,-1.9459,-1.9749,-2.0612,-2.0762,-2.1173,-2.1668,-2.1763,-2.1756,0.0,0.0,-2.1719,-2.1255,0.0,-2.0526,-2.048,0.0,0.0,0.0,-1.9987,0.0,0.0,0.0,-0.9849,-0.6117,0.0,0.0,0.0,0.0,0.0,0.0,0.0,0.0,0.0,0.0,0.0,0.0,0.0,0.0,0.0,0.0,0.0,-0.5275,-0.6502,-0.8277,-0.9513,-1.0028,-1.0844,-1.1701,-1.2611,-1.2784,-1.327,-1.4138,-1.4576,-1.5057,-1.5551,-1.587,-1.6094,-1.6244,-1.6396,-1.6189,-1.5711,-1.5244,-1.4706,-1.4117,-1.3616,-1.342,-1.3476,-1.3759,-1.3913,-1.4118,-1.5017,-1.5886,-1.6743,0.0,0.0,0.0,0.0,0.0,0.0,0.0,0.0,0.0,0.0,0.0,0.0,0.0,0.0,0.0,0.0,0.0,0.0,0.0,0.0,0.0,0.0,-2.7971,-2.7248,-2.6911,-2.6305,-2.5527,0.0,0.0,0.0,0.0,0.0,0.0,0.0,0.0,0.0,0.0,0.0,0.0,-1.7372,0.0,-1.8735,-1.9178,-1.8604,-1.8896,-1.9536,-1.9422,-1.9884,-2.0573,-2.0321,0.0,-2.0538,-2.0553,-2.0246,0.0,0.0,0.0,0.0,0.0,0.0,0.0,0.0,0.0,-1.7978,0.0,0.0,0.0,-0.6659,0.0,0.0,0.0,0.0,0.0,0.0,0.0,0.0,0.0,0.0,0.0,0.0,0.0,0.0,0.0,0.0,-0.4051,-0.6384,-0.8376,-0.9697,-1.0197,-1.1373,-1.229,-1.2836,-1.3166,-1.3532,-1.3933,-1.452,-1.4965,-1.5314,-1.5868,-1.612,-1.612,-1.6355,-1.6111,-1.5517,-1.5069,-1.4545,-1.4015,-1.3502,-1.3192,-1.3072,-1.3484,-1.3667,-1.3843,-1.4965,-1.5735,-1.6389,-2.3771,-2.4514,0.0,0.0,0.0,0.0,0.0,0.0,0.0,0.0,0.0,0.0,0.0,0.0,0.0,0.0,0.0,0.0,-3.119,0.0,0.0,0.0,0.0,0.0,-2.7258,-2.6435,-2.5309,0.0,0.0,0.0,0.0,0.0,0.0,0.0,-1.8762,0.0,0.0,0.0,-1.6949,0.0,-1.6931,-1.7341,0.0,-1.7186,-1.7686,-1.8672,-1.8258,-1.8245,-1.8425,0.0,-1.8319,-1.8503,0.0,-1.8898,0.0,0.0,0.0,0.0,0.0,0.0,0.0,0.0,-1.9897,0.0,0.0,0.0,-1.3131,-1.0931,0.0,0.0,0.0,0.0,0.0,0.0,0.0,0.0,0.0,0.0,0.0,0.0,0.0,0.0,0.0,0.0,0.0,-0.5597,-0.7313,-0.8788,-0.9875,-1.1145,-1.2413,-1.3716,-1.3291,-1.3495,-1.4405,-1.4662,-1.4965,-1.5314,-1.5668,-1.5856,-1.5856,-1.5885,-1.5565,-1.4966,-1.4553,-1.4045,-1.3452,-1.3038,-1.285,-1.2878,-1.3269,-1.3403,-1.3572,-1.534,-1.6113,-1.6535,-2.4021,-2.4333,0.0,0.0,0.0,0.0,0.0,0.0,0.0,0.0,0.0,0.0,0.0,0.0,0.0,0.0,0.0,-3.011,0.0,0.0,0.0,0.0,0.0,0.0,0.0,-2.6406,-2.528,-2.3794,-2.2168,0.0,0.0,0.0,0.0,0.0,-1.7761,0.0,-1.7735,0.0,0.0,0.0,0.0,0.0,0.0,-1.6031,-1.6285,-1.6713,-1.6526,-1.6841,-1.7385,0.0,-1.7674,0.0,0.0,0.0,0.0,0.0,0.0,0.0,0.0,0.0,0.0,0.0,0.0,0.0,0.0,0.0,-1.6431,0.0,0.0,0.0,0.0,0.0,0.0,0.0,0.0,0.0,0.0,0.0,0.0,0.0,0.0,0.0,0.0,0.0,0.0,0.0,0.0,-0.8097,-0.9801,-1.147,-1.2795,-1.3696,-1.4122,-1.424,-1.4036,-1.466,-1.4987,-1.5012,-1.5344,-1.561,-1.5784,-1.5395,-1.4869,-1.4236,-1.3871,-1.3361,-1.276,-1.279,-1.2735,-1.2649,-1.2942,-1.3273,-1.3774,-1.5222,-1.5982,-1.6514,0.0,0.0,0.0,0.0,0.0,0.0,0.0,0.0,0.0,0.0,0.0,0.0,-2.5253,-2.5314,0.0,0.0,0.0,-3.0362,0.0,0.0,-2.99,0.0,0.0,0.0,0.0,0.0,-2.5446,-2.3829,0.0,0.0,0.0,0.0,0.0,0.0,0.0,-1.6769,-1.6703,0.0,0.0,-1.5161,-1.4954,-1.4771,-1.464,-1.5114,-1.5222,-1.5129,-1.5005,-1.5608,-1.65,-1.6788,-1.6869,0.0,-1.7914,0.0,0.0,0.0,0.0,0.0,-1.7888,0.0,0.0,0.0,0.0,0.0,0.0,0.0,0.0,0.0,0.0,0.0,0.0,0.0,0.0,0.0,0.0,0.0,0.0,0.0,0.0,0.0,0.0,0.0,0.0,0.0,0.0,0.0,-0.5139,0.0,-0.9511,-1.1578,-1.2979,-1.3635,-1.4654,-1.4756,-1.39,-1.4699,-1.4943,-1.4683,-1.4996,-1.5242,-1.5386,-1.5074,-1.4416,-1.3523,-1.347,-1.2992,-1.2241,-1.2497,-1.2532,-1.2445,-1.2798,-1.3343,-1.4031,-1.4992,-1.5639,-1.6193,-2.426,-2.4522,0.0,0.0,0.0,0.0,0.0,0.0,0.0,0.0,0.0,0.0,0.0,0.0,0.0,0.0,0.0,-2.9671,-3.001,0.0,-3.0356,0.0,0.0,0.0,0.0,0.0,0.0,0.0,0.0,0.0,0.0,0.0,0.0,0.0,0.0,-1.5863,-1.5487,-1.471,-1.435,-1.431,-1.4109,-1.3636,-1.3214,0.0,-1.4811,-1.4478,-1.4014,0.0,0.0,-1.4949,-1.5478,0.0,0.0,0.0,0.0,0.0,0.0,0.0,0.0,0.0,0.0,-1.8322,0.0,0.0,0.0,0.0,-2.0614,0.0,0.0,0.0,0.0,0.0,0.0,0.0,0.0,0.0,0.0,0.0,0.0,0.0,0.0,0.0,0.0,0.0,0.0,-0.188,-0.4877,-0.728,-0.8847,-1.114,-1.2841,-1.3747,-1.4525,-1.4734,-1.4371,-1.4859,-1.484,-1.4332,-1.4667,-1.4638,-1.4369,-1.5008,-1.439,-1.2876,-1.3584,-1.3162,-1.2012,-1.2086,-1.2153,-1.2282,-1.3002,-1.3647,-1.4244,-1.482,-1.5108,-1.5466,0.0,0.0,0.0,0.0,0.0,0.0,0.0,-2.5161,0.0,0.0,0.0,0.0,0.0,0.0,-2.4573,0.0,0.0,-2.7869,-2.9308,-2.9572,0.0,0.0,0.0,-2.9603,0.0,0.0,0.0,0.0,0.0,0.0,0.0,0.0,0.0,0.0,0.0,-1.5147,0.0,0.0,0.0,0.0,0.0,-1.3511,-1.305,0.0,0.0,-1.3341,-1.3198,-1.3603,0.0,-1.4432,-1.4778,-1.5253,-1.6008,-1.6303,-1.6386,-1.6756,-1.6566,0.0,0.0,0.0,-1.6778,-1.734,0.0,0.0,0.0,0.0,0.0,0.0,0.0,0.0,0.0,0.0,0.0,0.0,0.0,0.0,0.0,0.0,0.0,0.0,0.0,0.0,0.0,0.0,0.0,-0.1948,-0.446,-0.6977,0.0,-1.1215,-1.2648,-1.3768,-1.489,-1.5335,-1.5,-1.5234,-1.519,-1.4826,-1.4591,-1.4651,-1.495,-1.4747,-1.4449,-1.4107,-1.3963,-1.3669,-1.3271,-1.3385,-1.3444,-1.3482,-1.3771,-1.4014,-1.43,-1.5193,-1.5727,-1.6125,-2.5441,0.0,0.0,0.0,0.0,0.0,0.0,0.0,0.0,0.0,-2.3873,0.0,-2.3373,0.0,-2.3496,0.0,-2.5476,-2.638,-2.792,-2.8294,0.0,-2.8822,-2.9376,0.0,0.0,0.0,0.0,0.0,0.0,-2.1329,0.0,0.0,0.0,0.0,0.0,0.0,0.0,0.0,-1.3431,0.0,0.0,-1.333,0.0,0.0,-1.2798,-1.2691,0.0,-1.2856,-1.3481,-1.3647,-1.3886,-1.4283,-1.5231,-1.5533,-1.5642,-1.6265,-1.616,-1.5898,-1.6256,-1.6191,0.0,-1.6633,-1.7154,0.0,-1.821,0.0,0.0,0.0,0.0,0.0,0.0,0.0,0.0,0.0,0.0,0.0,0.0,0.0,0.0,0.0,0.0,0.0,0.0,0.0,-0.1378,-0.3455,-0.5459,-0.7538,0.0,0.0,-1.2628,-1.3724,-1.5186,-1.5785,-1.5488,-1.5505,-1.5314,-1.4921,-1.4373,-1.4355,-1.4759,-1.4572,-1.4399,-1.4263,-1.4111,-1.3916,-1.3734,-1.382,-1.3945,-1.4087,-1.429,-1.4432,-1.4606,-1.5314,-1.5939,-1.6463,0.0,0.0,0.0,0.0,-2.5702,0.0,0.0,0.0,-2.4376,0.0,-2.3526,-2.2706,-2.2253,-2.3192,-2.3672,-2.3208,-2.4237,0.0,-2.6008,-2.6727,0.0,0.0,-2.823,-2.8564,-2.7696,0.0,0.0,0.0,0.0,0.0,0.0,0.0,0.0,0.0,-1.5236,0.0,-1.2831,-1.3348,-1.2935,-1.1956,-1.2588,-1.2971,-1.3082,-1.2675,0.0,-1.2452,-1.1893,-1.2295,-1.304,-1.256,-1.2812,-1.3505,-1.4352,-1.4537,-1.4595,-1.5434,-1.5458,-1.5233,-1.5401,-1.568,-1.5966,-1.6194,0.0,0.0,0.0,0.0,-1.8868,0.0,0.0,0.0,0.0,0.0,0.0,0.0,0.0,0.0,0.0,0.0,0.0,0.0,0.0,0.0,0.0,-0.5246,-0.5786,-0.6359,-0.7768,0.0,0.0,0.0,-1.2798,-1.3635,-1.5253,-1.5994,-1.5751,-1.5582,-1.5188,-1.4589,-1.4088,-1.3824,-1.385,-1.4467,-1.4252,-1.3419,-1.4038,-1.4007,-1.3468,-1.3468,-1.3705,-1.4089,-1.4558,-1.4892,-1.5121,-1.52,-1.5732,-1.6423,-2.5443,-2.5013,-2.481,0.0,-2.5261,-2.5607,0.0,0.0,0.0,0.0,-2.247,-2.1381,-2.0807,-2.1439,-2.2073,-2.2509,-2.3283,0.0,0.0,0.0,0.0,-2.6234,-2.702,-2.7352,-2.7095,-2.7749,0.0,-2.5918,0.0,0.0,-1.9223,0.0,0.0,0.0,0.0,0.0,-1.2676,-1.2147,-1.1907,-1.1902,-1.2035,-1.2149,0.0,0.0,-1.1319,-1.1306,-1.159,-1.1868,-1.2132,-1.2325,-1.2511,-1.2764,-1.3389,-1.3566,-1.3613,-1.392,-1.3954,-1.4001,-1.4535,-1.4766,-1.4915,-1.5424,-1.5964,-1.6425,0.0,0.0,0.0,0.0,0.0,0.0,0.0,0.0,0.0,0.0,0.0,0.0,0.0,0.0,0.0,0.0,0.0,0.0,-0.9777,-0.8535,-0.8297,-0.898,-0.9655,0.0,0.0,0.0,0.0,-1.302,-1.4261,-1.5005,-1.5135,-1.538,-1.5198,-1.4607,-1.4454,-1.4326,-1.418,-1.4347,-1.4424,-1.4421,-1.4591,-1.4592,-1.4452,-1.46,-1.4674,-1.4688,-1.5023,-1.5184,-1.5314,-1.5767,-1.615,-1.6412,-2.5644,0.0,0.0,-2.4735,0.0,0.0,-2.4936,0.0,0.0,-2.3238,-2.1881,0.0,-2.0135,-2.0281,-2.0605,-2.1071,-2.1453,0.0,0.0,0.0,0.0,-2.5175,-2.5984,-2.6392,-2.6291,-2.7139,0.0,-2.5887,0.0,0.0,-1.9364,0.0,0.0,0.0,0.0,-1.3663,0.0,-1.1778,-1.1478,-1.1779,-1.1361,0.0,0.0,-1.0893,-1.066,-1.0829,-1.0665,-1.0998,-1.1569,-1.1825,-1.1965,-1.2089,-1.2594,-1.2788,-1.2909,-1.3218,-1.3314,-1.3328,-1.3375,-1.3427,-1.3584,-1.4159,-1.4255,-1.4453,-1.5348,-1.5736,-1.6203,0.0,0.0,0.0,0.0,0.0,0.0,0.0,0.0,0.0,0.0,0.0,0.0,0.0,0.0,0.0,-1.6218,-1.3746,-1.2325,-1.2318,0.0,0.0,0.0,0.0,0.0,-1.2996,-1.4343,-1.5208,-1.55,-1.5769,-1.5596,-1.4987,-1.4728,-1.4487,-1.43,-1.43,-1.4413,-1.4588,-1.4588,-1.4588,-1.4604,-1.4702,-1.4796,-1.4873,-1.5043,-1.5074,-1.5058,-1.5507,-1.5883,-1.6193,0.0,0.0,0.0,0.0,0.0,0.0,0.0,-2.3396,0.0,-2.246,0.0,-2.0085,-1.9631,-1.9333,-1.9196,-1.9341,0.0,-2.0254,-2.2038,-2.2169,-2.2675,-2.3786,-2.4794,-2.5304,-2.5207,-2.6275,0.0,0.0,0.0,-2.161,-1.9554,0.0,0.0,0.0,0.0,0.0,0.0,-1.1708,-1.1242,0.0,-1.0614,-1.0774,-1.1419,-1.0331,-1.0193,-1.0499,-0.9434,-0.9909,-1.1032,-1.1141,-1.1242,-1.141,-1.1931,-1.2169,-1.234,-1.2846,-1.2977,-1.2827,-1.2164,-1.1998,-1.2149,-1.2666,-1.2243,-1.2144,-1.4057,-1.3785,-1.3628,-1.5456,-1.6375,-1.7378,0.0,0.0,0.0,0.0,0.0,0.0,0.0,0.0,0.0,0.0,0.0,0.0,0.0,-1.9183,-1.6735,0.0,0.0,0.0,0.0,0.0,0.0,0.0,-1.4824,0.0,-1.6071,0.0,-1.6016,-1.5263,-1.4889,-1.4549,-1.4235,-1.4235,-1.4235,-1.4235,-1.4235,-1.4235,-1.4235,-1.4238,-1.4431,-1.47,-1.4797,-1.4705,-1.4564,-1.4876,-1.5314,-1.577,0.0,0.0,0.0,0.0,0.0,-2.2935,-2.1552,-2.1107,-2.0773,-2.0299,-1.892,0.0,-1.7845,-1.7869,-1.792,-1.7944,-1.8514,0.0,0.0,0.0,0.0,-2.1859,-2.2545,-2.313,-2.3577,-2.482,-2.5367,0.0,-2.3783,-2.2428,-2.1146,-1.9291,0.0,0.0,0.0,0.0,-1.1727,-1.0652,0.0,-1.0855,-0.988,-0.9753,-1.0052,-0.919,-0.8984,-0.9077,-0.8513,-0.8836,-0.9651,-1.0218,-1.0397,-1.055,-1.1225,-1.146,-1.1535,-1.1735,-1.1785,-1.1761,-1.1509,-1.1283,-1.1241,-1.1655,-1.1318,-1.143,-1.3479,-1.3256,-1.3063,-1.4607,-1.5544,-1.6378,-1.7317,0.0,0.0,0.0,0.0,0.0,0.0,0.0,0.0,0.0,0.0,0.0,0.0,0.0,0.0,0.0,0.0,0.0,0.0,0.0,0.0,0.0,0.0,0.0,0.0,0.0,-1.5544,-1.4038,-1.4913,-1.483,-1.3888,-1.3888,-1.3888,-1.3888,-1.3888,-1.3888,-1.3904,-1.4013,-1.4081,-1.4163,-1.439,-1.4326,-1.4181,-1.4783,-1.4922,-1.4891,0.0,0.0,0.0,0.0,0.0,0.0,0.0,-1.9534,0.0,-1.978,-1.8765,-1.7841,-1.7591,-1.7043,-1.6741,-1.6812,-1.7156,-1.78,-1.8851,-1.9134,-1.9696,-2.0636,-2.1393,0.0,-2.2558,-2.3585,-2.4343,-2.483,-2.3536,-2.2704,-2.2282,-1.9897,-1.829,0.0,0.0,-1.4363,0.0,0.0,0.0,-1.0799,-0.9417,-0.9145,-0.9432,-0.8548,-0.8404,-0.8597,-0.7845,-0.7818,-0.8263,-0.9332,-0.967,-0.9747,-1.009,-1.0218,-1.0226,-1.0303,-1.0362,-1.0305,-0.9852,-0.9658,-0.9712,-1.0405,-0.9808,-0.9554,-1.1499,-1.103,-1.0546,-1.1712,-1.2763,-1.4055,-1.6017,-1.7758,0.0,0.0,0.0,0.0,0.0,0.0,0.0,0.0,0.0,0.0,0.0,0.0,0.0,0.0,0.0,0.0,0.0,0.0,0.0,0.0,0.0,0.0,0.0,0.0,0.0,-1.4173,-1.5081,-1.4886,-1.3804,-1.3804,-1.3804,-1.3804,-1.3804,-1.3804,-1.3804,-1.3874,-1.3894,-1.3911,-1.4029,-1.4013,-1.3944,-1.4257,-1.434,-1.439,0.0,-2.2105,0.0,0.0,-2.0498,0.0,0.0,-1.8134,-1.8005,-1.9134,-1.8489,-1.7723,-1.7216,-1.621,-1.561,-1.574,-1.5787,-1.6268,-1.7374,-1.7934,-1.8635,-1.959,-2.0452,-2.1172,-2.1756,-2.2475,-2.332,0.0,-2.3244,-2.2746,-2.2752,-2.0458,-1.887,0.0,0.0,0.0,0.0,0.0,-1.1002,-1.0738,-0.9152,-0.8737,-0.898,-0.8108,-0.8028,-0.8236,-0.74,-0.7112,-0.7268,-0.8369,-0.8836,-0.8993,-0.915,-0.9202,-0.9202,-0.9202,-0.9268,-0.9183,-0.8313,-0.807,-0.8177,-0.873,-0.7939,-0.7509,-0.9343,-0.8672,-0.7972,-0.9051,-1.039,-1.2177,-1.4699,-1.6506,0.0,0.0,0.0,0.0,0.0,0.0,0.0,0.0,0.0,0.0,0.0,0.0,0.0,0.0,0.0,0.0,0.0,0.0,0.0,0.0,0.0,-1.4549,-1.4664,0.0,-1.5703,0.0,-1.519,-1.4964,-1.3941,-1.3823,-1.3758,-1.3804,-1.3771,-1.3758,-1.3804,-1.3804,-1.3804,-1.3804,-1.3804,-1.3804,-1.3804,-1.3804,-1.3874,-1.4065,0.0,0.0,0.0,0.0,0.0,0.0,0.0,-1.656,-1.6433,-1.6852,-1.6418,-1.5866,-1.5406,-1.486,-1.4543,-1.4566,-1.4729,-1.5152,-1.5961,-1.6603,-1.7403,-1.8422,-1.9191,-2.0042,-2.0964,-2.1379,-2.2176,0.0,0.0,-2.2749,-2.2162,-2.1777,-1.9765,0.0,0.0,0.0,0.0,-1.1467,-1.083,-1.0416,-0.906,-0.8414,-0.8275,-0.7928,-0.7666,-0.7474,-0.7204,-0.7112,-0.7112,-0.7241,-0.7711,-0.831,-0.8993,-0.9202,-0.9202,-0.9202,-0.9202,-0.895,-0.7712,-0.7307,-0.7037,-0.634,-0.5831,-0.5994,-0.7858,-0.7205,-0.6711,-0.8487,-1.0532,-1.2248,-1.3035,-1.4876,-1.6276,0.0,0.0,0.0,0.0,0.0,0.0,0.0,0.0,0.0,0.0,-2.14,0.0,0.0,0.0,0.0,0.0,0.0,0.0,-1.4426,0.0,-1.4698,-1.5141,-1.5908,0.0,-1.4426,-1.5139,-1.5136,-1.4422,-1.3861,-1.3678,-1.3788,-1.3678,-1.3678,-1.3804,-1.3804,-1.3804,-1.3804,-1.3804,-1.3804,-1.3804,-1.3804,-1.3804,-1.3858,0.0,0.0,0.0,0.0,0.0,0.0,0.0,-1.5659,-1.5323,-1.5217,-1.5166,-1.5075,-1.4871,-1.4591,-1.4396,-1.4396,-1.4466,-1.4769,-1.5341,-1.5894,-1.6616,-1.7545,-1.8175,-1.8806,-1.9464,-1.9902,-2.0564,0.0,0.0,0.0,0.0,-2.0458,0.0,0.0,0.0,-1.3781,-1.248,-1.1229,-1.0536,-1.0149,-0.8986,-0.8366,-0.8186,-0.7887,-0.7626,-0.7362,-0.7171,-0.7112,-0.7112,-0.7112,-0.7268,-0.7557,-0.7845,-0.7951,-0.7951,-0.7951,-0.801,-0.7915,-0.7285,-0.7055,-0.686,-0.6297,-0.5698,-0.5457,-0.6289,-0.5792,-0.5432,-0.6378,-0.8661,-1.068,-1.1351,-1.312,-1.4485,0.0,0.0,0.0,0.0,0.0,0.0,0.0,0.0,0.0,0.0,0.0,-2.0519,0.0,0.0,0.0,0.0,0.0,0.0,-1.4418,0.0,-1.4037,-1.4247,-1.5242,-1.5012,-1.3578,-1.489,-1.4808,-1.3544,-1.357,-1.3628,-1.3678,-1.3581,-1.3644,-1.3788,-1.3711,-1.3725,-1.3804,-1.3804,-1.3804,-1.3804,-1.3804,-1.3804,-1.3804,-1.8418,0.0,-1.6577,0.0,-1.5491,-1.5313,-1.5175,-1.4765,-1.4398,-1.4093,-1.4248,-1.4343,-1.4208,-1.4066,-1.3994,-1.3989,-1.4167,-1.4387,-1.463,-1.5269,-1.5947,-1.6577,-1.7292,0.0,-1.8309,-1.8717,-1.9062,-1.9294,-1.9694,0.0,0.0,0.0,0.0,0.0,-1.4258,-1.3522,-1.2262,-1.096,-1.0227,-0.9913,-0.8853,-0.8295,-0.8052,-0.7785,-0.7524,-0.7294,-0.7144,-0.7112,-0.7112,-0.7112,-0.7112,-0.7112,-0.7112,-0.7112,-0.7112,-0.7112,-0.7171,-0.7169,-0.6803,-0.6706,-0.6563,-0.6029,-0.5426,-0.4983,-0.5045,-0.4636,-0.4368,-0.4748,-0.7014,-0.9074,-0.9563,-1.1286,-1.2631,-1.2574,0.0,0.0,0.0,0.0,0.0,0.0,0.0,-1.9284,-2.0671,0.0,0.0,0.0,0.0,0.0,0.0,0.0,0.0,0.0,0.0,0.0,0.0,-1.4684,-1.4483,-1.3213,-1.4563,-1.4474,-1.3122,-1.3309,-1.3382,-1.3361,-1.3331,-1.348,-1.3741,-1.3644,-1.3678,-1.3804,-1.3804,-1.3804,-1.3804,-1.3804,-1.3804,-1.3804,-1.7283,-1.6819,-1.6291,-1.4944,-1.4399,-1.411,-1.4124,-1.379,-1.3511,-1.3502,-1.3576,-1.3459,-1.3058,-1.3012,-1.3023,-1.302,-1.3609,-1.3897,-1.3639,-1.467,-1.5341,0.0,0.0,-1.7435,-1.7897,-1.805,-1.7802,-1.7137,0.0,0.0,-1.6078,0.0,-1.5453,-1.4377,-1.3922,-1.3019,-1.1724,-1.0591,-0.9993,-0.972,-0.863,-0.8041,-0.7779,-0.7514,-0.7272,-0.7112,-0.7112,-0.7112,-0.7112,-0.7112,-0.7112,-0.7112,-0.7112,-0.7112,-0.7112,-0.7112,-0.7112,-0.6955,-0.6223,-0.6098,-0.5958,-0.4974,-0.457,-0.4371,-0.4247,-0.3805,-0.3568,-0.4098,-0.6141,-0.7774,-0.7652,-0.9396,-1.0789,-1.0662,0.0,0.0,0.0,0.0,0.0,0.0,-1.6984,-1.8374,-1.9781,0.0,0.0,0.0,0.0,0.0,0.0,0.0,0.0,-1.4304,-1.3834,0.0,-1.4293,-1.4428,-1.4248,-1.3696,-1.4242,-1.4181,-1.3569,-1.3116,-1.2871,-1.282,-1.2889,-1.3182,-1.3598,-1.3598,-1.3678,-1.3804,-1.3804,-1.3804,-1.3804,-1.3804,-1.3804,-1.3804,-1.6163,-1.524,-1.4453,-1.3964,-1.3776,-1.3691,-1.3691,-1.3588,-1.3511,-1.3511,-1.3312,-1.3144,-1.2995,-1.3006,-1.3106,0.0,-1.3358,-1.3539,0.0,-1.4193,-1.4628,-1.5357,-1.555,-1.593,-1.6524,-1.613,-1.5813,-1.5592,0.0,0.0,0.0,-1.438,-1.3787,-1.2609,-1.2164,-1.1507,-1.0579,-0.9809,-0.9214,-0.8751,-0.8517,-0.8156,-0.779,-0.772,-0.744,-0.7085,-0.6891,-0.6842,-0.6788,-0.6561,-0.648,-0.6534,-0.6756,-0.695,-0.7112,-0.7112,-0.7112,-0.6966,-0.6423,-0.6301,-0.6135,-0.5321,-0.462,-0.4077,-0.3844,-0.3479,-0.3403,-0.4172,-0.5822,-0.7265,-0.7733,-0.8917,-0.9839,-0.9789,-0.9417,0.0,0.0,0.0,0.0,0.0,0.0,-1.6965,0.0,-1.8854,0.0,0.0,0.0,0.0,0.0,0.0,0.0,0.0,-1.3751,0.0,-1.3682,-1.4242,-1.3903,-1.2753,-1.3659,-1.3737,-1.304,-1.2579,-1.2526,-1.2785,-1.2478,-1.2484,-1.2731,-1.2814,-1.3052,-1.3344,-1.3476,-1.3641,-1.3771,-1.3442,-1.3476,-1.3628,-1.5195,-1.4191,-1.3391,-1.3305,-1.3307,-1.3368,-1.348,-1.3511,-1.3511,-1.3511,-1.3314,-1.3177,-1.3177,-1.2949,0.0,-1.3174,-1.2977,-1.3067,-1.3637,-1.3636,-1.3927,-1.4571,-1.4574,-1.4864,-1.5507,0.0,0.0,-1.4462,-1.3884,-1.3291,-1.2627,-1.2856,-1.2442,-1.1456,-1.0887,-1.0357,-0.9953,-0.9175,-0.8657,-0.8368,-0.8372,-0.8145,-0.779,-0.7698,-0.7424,-0.7058,-0.6788,-0.6701,-0.6647,-0.6317,-0.6209,-0.6236,-0.6453,-0.662,-0.681,-0.7025,-0.7031,-0.685,-0.6385,-0.6302,-0.6178,-0.539,-0.4756,-0.4257,-0.3901,-0.3587,-0.359,-0.4378,-0.5553,-0.6557,-0.6963,-0.776,-0.8271,-0.7994,-0.7857,-0.8139,-0.9198,0.0,0.0,0.0,0.0,0.0,0.0,-1.7845,0.0,0.0,0.0,0.0,0.0,0.0,0.0,-1.3665,-1.3562,0.0,-1.3396,-1.392,-1.3544,-1.2307,-1.276,-1.2769,-1.2312,-1.2011,-1.2029,-1.2312,-1.1993,-1.2029,-1.2288,-1.2538,-1.2819,-1.3126,-1.3425,-1.359,-1.3624,-1.3378,-1.3263,-1.3212,-1.4348,-1.3535,0.0,0.0,-1.2981,0.0,-1.342,-1.348,-1.348,-1.3511,-1.3511,-1.3511,-1.3511,-1.2906,-1.2509,-1.2509,0.0,0.0,0.0,-1.2985,-1.3258,-1.3289,-1.3682,-1.4204,-1.4855,-1.4667,-1.4213,-1.3558,-1.2498,-1.1747,-1.1329,-1.1586,-1.1472,-1.0906,-0.995,-0.9616,-0.9632,-0.8689,-0.834,-0.8463,-0.8279,-0.8041,-0.7774,-0.7514,-0.7272,-0.7031,-0.6756,-0.6647,-0.6593,-0.6236,-0.6127,-0.6154,-0.6154,-0.6154,-0.6263,-0.6864,-0.6864,-0.6578,-0.6122,-0.6132,-0.6072,-0.5266,-0.4978,-0.4744,-0.4253,-0.3961,-0.3967,-0.4641,-0.5281,-0.5675,-0.5594,-0.6061,-0.6258,-0.5569,-0.5853,-0.6546,-0.7708,0.0,0.0,0.0,0.0,0.0,0.0,-1.6617,-1.6447,0.0,0.0,0.0,0.0,0.0,-1.4216,-1.3214,-1.329,-1.3362,-1.3396,-1.3484,-1.3113,-1.2245,-1.1713,-1.1479,-1.1497,-1.1479,-1.1479,-1.1497,-1.1479,-1.1719,-1.2156,-1.2631,-1.2894,-1.3027,-1.3527,-1.3556,-1.3327,-1.3429,-1.3109,-1.2638,0.0,0.0,-1.2087,-1.2543,-1.2605,-1.2728,-1.3072,-1.3133,-1.3216,-1.348,-1.3511,-1.3511,-1.3511,-1.289,-1.2516,-1.2516,-1.2289,-1.2249,-1.2522,-1.2435,-1.2596,-1.3057,-1.2921,-1.3394,-1.4579,-1.3575,-1.2734,-1.2104,-1.1821,-1.1646,-1.1519,-1.1177,-1.089,-1.0561,-0.9438,-0.8887,-0.8772,-0.8287,-0.8098,-0.8129,-0.8179,-0.8041,-0.7774,-0.7514,-0.7156,-0.6756,-0.6426,-0.6191,-0.5955,-0.5626,-0.5513,-0.5567,-0.5818,-0.5709,-0.5622,-0.6241,-0.6372,-0.6264,-0.6005,-0.5945,-0.595,-0.5727,-0.5176,-0.4494,-0.382,-0.365,-0.3838,-0.4504,-0.4723,-0.4916,-0.529,-0.5342,-0.5277,-0.5214,-0.599,-0.6849,-0.7432,-0.8687,0.0,0.0,-1.2144,-1.3227,-1.4201,-1.4913,-1.5127,0.0,0.0,0.0,0.0,-1.3027,-1.3227,-1.2978,-1.2856,-1.2943,-1.3242,-1.3119,-1.2637,-1.1767,-1.1275,-1.1201,-1.1497,-1.1182,-1.122,-1.1479,-1.1182,-1.1099,-1.125,-1.1818,-1.2018,-1.2006,-1.2585,-1.2708,-1.252,-1.2187,-1.236,-1.2685,-1.3043,-1.2252,-1.17,-1.2033,-1.2234,-1.2428,-1.2736,-1.2767,-1.285,-1.3025,-1.3025,-1.3025,-1.3025,-1.2605,-1.2336,-1.2336,-1.2012,-1.189,-1.2073,-1.1965,-1.2019,-1.2351,-1.2189,-1.2551,-1.3545,-1.2879,-1.2336,-1.2004,-1.174,-1.1466,-1.1216,-1.0699,-1.0256,-0.9913,-0.8844,-0.8431,-0.8468,-0.8149,-0.8023,-0.8112,-0.8168,-0.7976,-0.7599,-0.7328,-0.6989,-0.6647,-0.6191,-0.5923,-0.574,-0.5411,-0.5297,-0.5325,-0.5521,-0.5439,-0.5352,-0.57,-0.5891,-0.5986,-0.578,-0.5772,-0.58,-0.5617,-0.5062,-0.45,-0.4247,-0.412,-0.4149,-0.4444,-0.4608,-0.4666,-0.4581,-0.4577,-0.4594,-0.4628,-0.546,-0.6311,-0.6914,-0.8063,0.0,-1.0202,-1.0949,-1.1779,-1.2771,-1.3368,-1.359,-1.3311,0.0,0.0,-1.1891,-1.1787,-1.2,-1.2514,-1.2452,-1.2677,-1.3184,-1.2812,-1.24,-1.1923,-1.123,-1.1004,-1.122,-1.0995,-1.1033,-1.122,-1.0995,-1.1004,-1.1201,-1.1553,-1.1763,-1.1909,-1.227,-1.2288,-1.2108,-1.1927,-1.1957,-1.2034,-1.1938,-1.1615,-1.1544,-1.1578,-1.1844,-1.212,-1.2398,-1.2451,-1.2451,-1.2482,-1.2482,-1.2482,-1.2482,-1.2274,-1.2096,-1.2096,-1.1778,-1.1591,-1.1591,-1.1591,-1.1591,-1.1591,-1.1591,-1.1888,-1.2481,-1.2512,-1.2451,-1.2358,-1.1856,-1.1373,-1.0902,-1.0376,-0.9901,-0.9498,-0.8657,-0.8409,-0.8608,-0.8275,-0.8175,-0.8264,-0.8193,-0.789,-0.7502,-0.7233,-0.7013,-0.6729,-0.6146,-0.59,-0.5791,-0.5434,-0.5297,-0.5297,-0.5297,-0.5297,-0.5297,-0.5297,-0.5494,-0.5674,-0.5505,-0.5583,-0.5626,-0.5195,-0.4822,-0.4576,-0.4706,-0.4628,-0.4462,-0.4249,-0.4459,-0.4483,-0.3863,-0.3963,-0.4167,-0.4227,-0.4962,-0.5698,-0.6313,0.0,-0.8368,-0.9413,-0.9864,-1.0442,-1.1423,-1.1886,-1.2043,-1.1789,-1.192,-1.1787,0.0,-1.0685,-1.0829,-1.1794,-1.1909,-1.2254,-1.2888,-1.246,-1.2192,-1.2068,-1.1262,-1.0881,-1.091,-1.091,-1.091,-1.091,-1.091,-1.1099,-1.1434,-1.1542,-1.1744,-1.2011,-1.2126,-1.2,-1.1774,-1.1938,-1.1675,-1.1279,-1.2351,-1.1707,-1.1284,-1.1543,-1.1655,-1.1778,-1.212,-1.2151,-1.2243,-1.2482,-1.2482,-1.2482,-1.2482,-1.2274,-1.2096,-1.2096,-1.1778,-1.1591,-1.1591,-1.1591,-1.1591,-1.1591,-1.1591,-1.1888,-1.2481,-1.2512,-1.2243,-1.174,-1.1654,-1.156,-1.1466,-1.0926,-1.0643,-1.0548,-0.9964,-0.9486,-0.9166,-0.8888,-0.868,-0.8519,-0.8119,-0.8017,-0.8127,-0.7864,-0.7597,-0.73,-0.6701,-0.6317,-0.605,-0.5485,-0.5297,-0.5297,-0.5297,-0.5297,-0.5297,-0.5297,-0.5325,-0.5375,-0.5347,-0.5359,-0.5249,-0.467,-0.4651,-0.4538,-0.3738,-0.3887,-0.4036,-0.3495,-0.3475,-0.3642,-0.3981,-0.3937,-0.4088,-0.4829,-0.5765,-0.6306,-0.6019,0.0,-0.7812,-0.7497,-0.8384,-0.9108,-0.928,-1.0254,-1.0813,-1.0661,-1.099,-1.0956,-1.0415,-1.0295,-1.0354,-1.0651,-1.0787,-1.1038,-1.1417,-1.1786,-1.1653,-1.1028,-1.0894,-1.0852,-1.091,-1.091,-1.091,-1.091,-1.091,-1.0938,-1.1033,-1.1378,-1.1341,-1.1136,-1.1479,-1.1397,-1.1061,-1.108,-1.1258,-1.1488,-1.159,-1.1428,-1.1364,-1.1335,-1.1474,-1.1654,-1.1809,-1.184,-1.1872,-1.1988,-1.2027,-1.2027,-1.2027,-1.1903,-1.184,-1.184,-1.1685,-1.1591,-1.1591,-1.1591,-1.1591,-1.1591,-1.1591,-1.174,-1.2004,-1.2011,-1.1895,-1.1591,-1.1591,-1.1591,-1.1591,-1.1059,-1.0807,-1.0769,-0.9963,-0.9488,-0.9289,-0.8944,-0.8664,-0.8428,-0.8217,-0.8112,-0.8051,-0.7797,-0.7595,-0.7434,-0.7025,-0.6588,-0.6154,-0.5887,-0.5567,-0.5297,-0.5215,-0.5183,-0.5183,-0.5097,-0.5183,-0.5297,-0.5297,-0.5132,-0.4876,-0.4459,-0.4239,-0.3997,-0.3378,-0.3436,-0.3499,-0.3084,-0.324,-0.3561,-0.3939,-0.4147,-0.4618,-0.5677,-0.6016,0.0,0.0,-0.676,-0.6972,-0.6939,-0.745,-0.7865,-0.8078,-0.8895,-0.9392,-0.9321,-0.9755,-0.9917,-0.9666,-0.9744,-0.9917,-1.0277,-1.1057,-1.1431,-1.1355,-1.1716,-1.1641,-1.1113,-1.0897,-1.0833,-1.091,-1.091,-1.091,-1.091,-1.091,-1.1033,-1.122,-1.1182,-1.1201,-1.122,-1.1182,-1.1061,-1.0931,-1.1188,-1.1398,-1.1607,-1.1027,-1.1246,-1.1518,-1.1261,-1.1423,-1.1591,-1.1591,-1.1591,-1.1591,-1.1591,-1.1591,-1.1591,-1.1591,-1.1591,-1.1591,-1.1591,-1.1591,-1.1591,-1.1591,-1.1591,-1.1591,-1.1591,-1.1591,-1.1591,-1.1591,-1.1591,-1.1591,-1.1591,-1.1591,-1.1591,-1.1591,-1.1115,-1.0926,-1.0888,-0.9982,-0.9547,-0.9407,-0.8988,-0.8636,-0.8391,-0.833,-0.8233,-0.809,-0.7889,-0.7815,-0.7762,-0.7402,-0.6918,-0.6399,-0.6236,-0.5778,-0.5242,-0.5128,-0.5069,-0.5042,-0.4928,-0.5014,-0.5105,-0.5105,-0.4912,-0.4603,-0.4201,-0.3862,-0.3522,-0.306,-0.2987,-0.295,-0.2649,-0.3012,-0.3525,-0.3922,-0.4436,-0.5151,-0.6258,0.0,0.0,0.0,-0.6296,-0.6154,-0.6448,-0.6583,-0.6772,-0.7063,-0.7691,-0.8043,-0.8043,-0.8573,-0.8916,-0.8942,-0.9178,-0.951,-0.9987,-1.1292,-1.1774,-1.1378,-1.1548,-1.1541,-1.1338,-1.093,-1.0794,-1.0881,-1.0881,-1.091,-1.091,-1.091,-1.108,-1.1311,-1.1023,-1.108,-1.1311,-1.1004,-1.091,-1.0962,-1.1436,-1.1591,-1.1674,-1.1525,-1.1562,-1.1584,-1.1562,-1.1577,-1.1591,-1.1591,-1.1591,-1.1591,-1.1591,-1.1591,-1.1591,-1.1591,-1.1591,-1.1591,-1.1591,-1.1591,-1.1591,-1.1591,-1.1591,-1.1591,-1.1591,-1.1591,-1.1591,-1.1591,-1.1591,-1.1591,-1.1591,-1.1591,-1.1591,-1.1591,-1.1373,-1.1272,-1.1226,-1.073,-1.0265,-0.9814,-0.9306,-0.8912,-0.8639,-0.8475,-0.8526,-0.8725,-0.8699,-0.8699,-0.8619,-0.8043,-0.7503,-0.6945,-0.6399,-0.5723,-0.5128,-0.5097,-0.5014,-0.4928,-0.4897,-0.4736,-0.4574,-0.4574,-0.4632,-0.4491,-0.3666,-0.3627,-0.3502,-0.2415,-0.238,-0.2439,-0.2049,-0.2401,-0.3069,-0.4075,-0.4708,-0.5336,-0.6109,0.0,0.0,-0.5909,-0.575,-0.5536,-0.5262,-0.5609,-0.5882,-0.5932,-0.6583,-0.7015,-0.7015,-0.7631,-0.8057,-0.8184,-0.8732,-0.9159,-0.9439,-1.0643,-1.1087,-1.0668,-1.0804,-1.0962,-1.1114,-1.0774,-1.0678,-1.0803,-1.0881,-1.091,-1.091,-1.091,-1.0881,-1.0841,-1.09,-1.0881,-1.0841,-1.09,-1.091,-1.0962,-1.1436,-1.1591,-1.1716,-1.1591,-1.1591,-1.1591,-1.1591,-1.1591,-1.1591,-1.1591,-1.1591,-1.1591,-1.1591,-1.1591,-1.1591,-1.1591,-1.1591,-1.1591,-1.1591,-1.1591,-1.1591,-1.1591,-1.1591,-1.1591,-1.1591,-1.1591,-1.1591,-1.1591,-1.1591,-1.1591,-1.1591,-1.1591,-1.1591,-1.1591,-1.1404,-1.1203,-1.1033,-1.042,-0.9973,-0.961,-0.9111,-0.8857,-0.8763,-0.8685,-0.8699,-0.8804,-0.8804,-0.8804,-0.8778,-0.8533,-0.7863,-0.7058,-0.6837,-0.6023,-0.5097,-0.5011,-0.4877,-0.4767,-0.468,-0.4377,-0.399,-0.3713,-0.3771,-0.3782,-0.3379,-0.3006,-0.2619,-0.2085,-0.1888,-0.1861,-0.2001,-0.2389,-0.3041,-0.422,-0.4805,-0.5395,-0.629,0.0,-0.5859,-0.5909,-0.5473,-0.512,-0.4983,-0.512,-0.5254,-0.5254,-0.5909,-0.6349,-0.6349,-0.6993,-0.7584,-0.7951,-0.8626,-0.9133,-0.9387,-0.9847,-1.0087,-1.01,-1.0285,-1.044,-1.0609,-1.0261,-1.0302,-1.0659,-1.0438,-1.0487,-1.0688,-1.0448,-1.0616,-1.1044,-1.0907,-1.0978,-1.1175,-1.1283,-1.1274,-1.1297,-1.2066,-1.23,-1.2304,-1.1591,-1.1591,-1.1591,-1.1591,-1.1591,-1.1591,-1.1591,-1.1591,-1.1591,-1.1591,-1.1591,-1.1591,-1.1591,-1.1591,-1.1591,-1.1591,-1.1591,-1.1591,-1.1591,-1.1591,-1.1591,-1.1591,-1.1591,-1.1591,-1.1591,-1.1591,-1.1591,-1.1591,-1.1529,-1.1498,-1.1498,-1.1172,-1.0923,-1.0703,-1.0003,-0.9567,-0.9391,-0.8985,-0.8804,-0.8804,-0.8804,-0.8804,-0.8804,-0.8804,-0.8804,-0.8804,-0.8804,-0.8182,-0.7321,-0.7166,-0.6322,-0.5258,-0.4983,-0.4767,-0.4632,-0.4519,-0.4073,-0.3519,-0.3186,-0.2993,-0.2864,-0.2769,-0.2385,-0.1962,-0.177,-0.1525,-0.1469,-0.1774,-0.2175,-0.2758,-0.3698,-0.4346,-0.4979,-0.5683,-0.5555,-0.5449,-0.5632,-0.5171,-0.4846,-0.4846,-0.4791,-0.4791,-0.4846,-0.534,-0.5673,-0.5727,-0.6571,-0.7429,-0.815,-0.8712,-0.9087,-0.9263,-0.9361,-0.9486,-0.9684,-0.9898,-1.0089,-1.0233,-1.0007,-0.9987,-1.0157,-1.0134,-1.03,-1.0597,-1.0439,-1.0743,-1.1344,-1.1196,-1.1297,-1.1572,-1.1706,-1.1737,-1.1778,-1.2525,-1.2744,-1.2711,-1.1591,-1.1591,-1.1591,-1.1591,-1.1591,-1.1591,-1.1591,-1.1591,-1.1591,-1.1591,-1.1591,-1.1591,-1.1591,-1.1591,-1.1591,-1.1591,-1.1591,-1.1591,-1.1591,-1.1591,-1.1591,-1.1591,-1.1591,-1.1591,-1.1591,-1.1591,-1.1591,-1.1591,-1.1404,-1.1303,-1.1303,-1.0683,-1.0393,-1.0358,-0.9563,-0.9211,-0.9191,-0.8904,-0.8804,-0.8804,-0.8811,-0.8811,-0.8811,-0.8811,-0.8811,-0.8811,-0.8804,-0.8421,-0.7818,-0.7268,-0.6507,-0.5691,-0.5089,-0.4708,-0.4491,-0.4491,-0.3824,-0.3102,-0.3102,-0.246,-0.179,-0.179,-0.179,-0.1719,-0.1368,-0.1305,-0.1305,-0.1305,-0.1676,-0.2095,-0.2441,-0.3314,-0.3978,-0.3978,-0.4508,-0.4897,-0.4897,-0.4767,-0.4691,-0.4691,-0.4574,-0.4546,-0.4688,-0.4822,-0.4956,-0.5097,-0.6349,-0.7595,-0.8725,-0.8936,-0.9008,-0.9008,-0.9263,-0.9387,-0.9413,-0.9667,-0.9906,-1.0092,-1.008,-0.9783,-0.9234,-1.002,-1.0463,-1.0617,-1.1011,-1.1393,-1.1723,-1.1832,-1.1899,-1.1922,-1.204,-1.22,-1.2348,-1.2693,-1.2812,-1.2828,-1.1591,-1.1591,-1.1591,-1.1591,-1.1591,-1.1591,-1.1591,-1.1591,-1.1591,-1.1591,-1.1591,-1.1591,-1.1591,-1.1591,-1.1591,-1.1591,-1.1591,-1.1591,-1.1591,-1.1466,-1.1404,-1.1404,-1.1529,-1.1529,-1.1404,-1.1404,-1.1341,-1.1247,-1.1185,-1.1153,-1.1153,-1.0836,-1.0445,-1.0034,-0.9684,-0.9319,-0.8904,-0.8844,-0.8804,-0.8824,-0.8998,-0.9084,-0.9084,-0.9084,-0.9084,-0.9058,-0.8878,-0.8421,-0.7818,-0.7268,-0.6507,-0.5664,-0.4873,-0.457,-0.4491,-0.4491,-0.371,-0.2822,-0.2822,-0.2014,-0.126,-0.1706,-0.1623,-0.143,-0.1335,-0.1124,-0.1008,-0.1245,-0.1411,-0.1721,-0.2386,-0.2734,-0.3012,-0.3209,-0.3735,-0.4098,-0.4012,-0.4322,-0.4546,-0.4546,-0.4605,-0.466,-0.4688,-0.4904,-0.5234,-0.57,-0.6939,-0.7797,-0.815,-0.8613,-0.891,-0.9008,-0.9087,-0.9211,-0.9387,-0.9389,-0.9542,-0.989,-0.9421,-0.938,-0.9764,-0.9817,-1.0175,-1.0751,-1.0935,-1.1401,-1.2044,-1.1841,-1.1957,-1.2258,-1.2403,-1.2471,-1.2554,-1.2883,-1.302,-1.3016,-1.1591,-1.1591,-1.1591,-1.1591,-1.1591,-1.1591,-1.1591,-1.1591,-1.1591,-1.1591,-1.1591,-1.1591,-1.1591,-1.1591,-1.156,-1.1498,-1.1435,-1.1404,-1.1404,-1.1279,-1.1216,-1.1216,-1.1341,-1.1341,-1.1216,-1.1216,-1.1185,-1.109,-1.1028,-1.0965,-1.0958,-1.0568,-1.017,-0.9811,-0.9495,-0.9138,-0.8804,-0.8804,-0.8804,-0.8824,-0.8971,-0.9044,-0.9044,-0.9044,-0.9044,-0.9018,-0.8871,-0.856,-0.815,-0.7348,-0.6372,-0.5336,-0.4708,-0.4491,-0.4491,-0.4491,-0.3821,-0.307,-0.307,-0.2179,-0.1344,-0.1706,-0.1461,-0.1142,-0.1142,-0.099,-0.0901,-0.1111,-0.1142,-0.1367,-0.2088,-0.2235,-0.243,-0.3072,-0.3489,-0.3766,-0.3932,-0.4267,-0.4491,-0.4491,-0.4574,-0.4632,-0.4688,-0.5124,-0.575,-0.6669,-0.7471,-0.801,-0.8256,-0.8613,-0.8831,-0.891,-0.8982,-0.9113,-0.9309,-0.9292,-0.9377,-0.9556,-0.9257,-0.9252,-0.949,-0.9614,-1.0083,-1.0812,-1.1004,-1.1611,-1.2471,-1.2253,-1.2371,-1.2679,-1.2782,-1.2819,-1.2863,-1.3048,-1.3109,-1.3085,-1.1591,-1.1591,-1.1591,-1.1591,-1.1591,-1.1591,-1.1591,-1.1591,-1.1591,-1.1591,-1.1591,-1.1591,-1.1591,-1.1591,-1.1498,-1.1334,-1.1153,-1.109,-1.109,-1.109,-1.1059,-1.1059,-1.1059,-1.1059,-1.1066,-1.1059,-1.1059,-1.1066,-1.087,-1.0762,-1.0721,-1.0056,-0.9693,-0.9619,-0.9085,-0.8831,-0.8804,-0.8804,-0.8804,-0.8811,-0.8838,-0.8844,-0.8844,-0.8844,-0.8844,-0.8818,-0.8758,-0.8725,-0.8533,-0.7375,-0.6046,-0.4846,-0.457,-0.4491,-0.4491,-0.4491,-0.4073,-0.3597,-0.3597,-0.2764,-0.1874,-0.1874,-0.1456,-0.1037,-0.0926,-0.0954,-0.0981,-0.0981,-0.0981,-0.1177,-0.1762,-0.1846,-0.2179,-0.332,-0.3569,-0.3793,-0.4349,-0.446,-0.4491,-0.4491,-0.4519,-0.4574,-0.477,-0.5504,-0.6502,-0.7791,-0.7951,-0.8229,-0.8778,-0.8804,-0.8804,-0.8804,-0.891,-0.9035,-0.9185,-0.9309,-0.9303,-0.9219,-0.946,-0.9292,-0.878,-0.9554,-1.0197,-1.0802,-1.1304,-1.2001,-1.2759,-1.2856,-1.2929,-1.3027,-1.3061,-1.3128,-1.317,-1.3113,-1.3085,-1.3085,-1.1591,-1.1591,-1.1591,-1.1591,-1.1591,-1.1591,-1.1591,-1.1591,-1.1591,-1.1591,-1.1591,-1.1591,-1.1591,-1.1466,-1.1334,-1.1303,-1.1021,-1.0933,-1.109,-1.0965,-1.087,-1.087,-1.087,-1.0807,-1.0719,-1.0807,-1.0807,-1.0719,-1.0649,-1.0504,-1.0238,-1.008,-0.975,-0.9304,-0.9178,-0.8991,-0.8804,-0.8804,-0.8804,-0.8831,-0.9031,-0.9118,-0.9118,-0.9118,-0.9118,-0.903,-0.8337,-0.809,-0.7877,-0.6529,-0.5477,-0.4715,-0.4546,-0.4491,-0.4491,-0.4491,-0.4073,-0.3597,-0.3597,-0.307,-0.2514,-0.2514,-0.2402,-0.2068,-0.1121,-0.126,-0.1595,-0.1595,-0.1595,-0.179,-0.2402,-0.2124,-0.204,-0.2764,-0.3292,-0.3652,-0.3766,-0.4211,-0.4491,-0.4491,-0.4605,-0.4853,-0.5348,-0.6534,-0.745,-0.7871,-0.8335,-0.8666,-0.8778,-0.8804,-0.8804,-0.8804,-0.8831,-0.891,-0.9035,-0.9087,-0.9183,-0.9364,-0.93,-0.9271,-0.9282,-1.0181,-1.054,-1.0563,-1.1963,-1.219,-1.1635,-1.252,-1.2686,-1.2357,-1.2783,-1.3027,-1.3123,-1.2978,-1.3012,-1.3085,-1.1591,-1.1591,-1.1591,-1.1591,-1.1591,-1.1591,-1.1591,-1.1591,-1.1591,-1.1591,-1.1591,-1.1591,-1.1591,-1.1498,-1.1373,-1.1216,-1.0902,-1.0744,-1.0846,-1.0744,-1.0713,-1.0713,-1.0713,-1.0681,-1.0593,-1.0688,-1.0681,-1.0593,-1.0593,-1.0512,-1.0321,-1.004,-0.9746,-0.9439,-0.9131,-0.8918,-0.8804,-0.8804,-0.8804,-0.8791,-0.8884,-0.8754,-0.8475,-0.8415,-0.8224,-0.7905,-0.7441,-0.7122,-0.6767,-0.5928,-0.5226,-0.4688,-0.4546,-0.4491,-0.4491,-0.4491,-0.4267,-0.4015,-0.4015,-0.3597,-0.3125,-0.3125,-0.2903,-0.2541,-0.1902,-0.2014,-0.2235,-0.2235,-0.2235,-0.2402,-0.3014,-0.2625,-0.2514,-0.3403,-0.3569,-0.371,-0.3987,-0.4294,-0.4491,-0.4491,-0.4574,-0.4959,-0.5882,-0.6961,-0.7771,-0.8196,-0.8586,-0.8804,-0.8804,-0.8804,-0.8804,-0.8804,-0.8804,-0.8857,-0.9008,-0.9008,-0.9054,-0.9211,-0.9211,-0.9263,-0.9406,-0.9895,-1.0221,-1.0454,-1.125,-1.1451,-1.125,-1.2049,-1.2107,-1.1744,-1.2298,-1.2554,-1.2603,-1.2529,-1.2725,-1.2978,-1.1622,-1.1591,-1.1591,-1.1591,-1.1591,-1.1591,-1.1591,-1.1591,-1.1591,-1.1591,-1.1591,-1.1591,-1.1591,-1.156,-1.1435,-1.1122,-1.0766,-1.0602,-1.0618,-1.0571,-1.0539,-1.0586,-1.0593,-1.0593,-1.0593,-1.0593,-1.0593,-1.0593,-1.0593,-1.0566,-1.0506,-0.9963,-0.9659,-0.9586,-0.9045,-0.8804,-0.8804,-0.8804,-0.8725,-0.8586,-0.8501,-0.8064,-0.7503,-0.7391,-0.7036,-0.6588,-0.6507,-0.61,-0.5582,-0.541,-0.5062,-0.4632,-0.4546,-0.4491,-0.4491,-0.4491,-0.4491,-0.4487,-0.4377,-0.4042,-0.3738,-0.3627,-0.3292,-0.3014,-0.3014,-0.2931,-0.2847,-0.2847,-0.2847,-0.3042,-0.3655,-0.3264,-0.3209,-0.4322,-0.4073,-0.3932,-0.4436,-0.4491,-0.4491,-0.4491,-0.4601,-0.5144,-0.6335,-0.709,-0.7845,-0.858,-0.8745,-0.8804,-0.8804,-0.8804,-0.8804,-0.8804,-0.8804,-0.8857,-0.8956,-0.8962,-0.8962,-0.8962,-0.9087,-0.9211,-0.9335,-0.9458,-0.9751,-1.019,-1.0379,-1.0601,-1.0922,-1.1633,-1.1559,-1.1074,-1.1794,-1.2076,-1.2067,-1.22,-1.2455,-1.2783,-1.1654,-1.1591,-1.1591,-1.1591,-1.1591,-1.1591,-1.1591,-1.1591,-1.1591,-1.1591,-1.1591,-1.1591,-1.1591,-1.1428,-1.1279,-1.1122,-1.0698,-1.0534,-1.0755,-1.0376,-1.0294,-1.0579,-1.0593,-1.0593,-1.0593,-1.0593,-1.0593,-1.0593,-1.0593,-1.0459,-1.0167,-0.984,-0.9546,-0.9257,-0.8931,-0.8804,-0.8804,-0.8804,-0.8427,-0.7857,-0.783,-0.7396,-0.675,-0.6723,-0.6669,-0.6534,-0.6073,-0.5449,-0.4853,-0.4825,-0.4684,-0.4519,-0.4519,-0.4491,-0.4491,-0.4491,-0.4491,-0.4377,-0.3876,-0.4042,-0.4267,-0.3738,-0.3932,-0.4267,-0.4267,-0.3849,-0.3486,-0.3486,-0.3486,-0.3652,-0.4267,-0.3876,-0.371,-0.4377,-0.4436,-0.4405,-0.4491,-0.4491,-0.4491,-0.4491,-0.5069,-0.575,-0.6507,-0.7235,-0.799,-0.8725,-0.8778,-0.8804,-0.8804,-0.8804,-0.8804,-0.8804,-0.8804,-0.8811,-0.8831,-0.8831,-0.8831,-0.8831,-0.8831,-0.8936,-0.9087,-0.9666,-0.9718,-0.9446,-1.0812,-1.066,-0.9621,-1.1601,-1.1518,-1.0269,-1.146,-1.1875,-1.1922,-1.2569,-1.2529,-1.2274,-1.191,-1.1716,-1.1591,-1.1591,-1.1591,-1.1591,-1.1591,-1.1591,-1.1709,-1.2066,-1.1802,-1.174,-1.2066,-1.1608,-1.1272,-1.1216,-1.0933,-1.0788,-1.0793,-1.0465,-1.0377,-1.0579,-1.0432,-1.0419,-1.0586,-1.0593,-1.0512,-1.0314,-1.0314,-1.0327,-1.0378,-0.9726,-0.9511,-0.9684,-0.9224,-0.9024,-0.8997,-0.8712,-0.8238,-0.767,-0.7262,-0.6637,-0.5982,-0.5905,-0.5687,-0.5391,-0.5144,-0.4873,-0.4574,-0.4574,-0.4546,-0.4491,-0.4491,-0.4491,-0.4491,-0.4491,-0.4267,-0.4015,-0.4073,-0.4042,-0.4015,-0.4073,-0.4294,-0.4491,-0.4491,-0.4294,-0.4098,-0.4098,-0.4098,-0.4184,-0.4463,-0.4294,-0.4184,-0.446,-0.4491,-0.4491,-0.4491,-0.4491,-0.4491,-0.4491,-0.5066,-0.5719,-0.6421,-0.7149,-0.7904,-0.8633,-0.8752,-0.8804,-0.8804,-0.8804,-0.8804,-0.8804,-0.8804,-0.8804,-0.8804,-0.8804,-0.8804,-0.8804,-0.8804,-0.8883,-0.9008,-0.9316,-0.9361,-0.9237,-0.988,-0.9795,-0.929,-1.0507,-1.0431,-0.9666,-1.0906,-1.1617,-1.2049,-1.2676,-1.2749,-1.2529]},{"header":{"parameterUnit":"m.s-1","parameterCategory":1,"la1":30.6,"la2":28.766,"lo1":-90.7593,"lo2":-88.6598,"dy":0.0162,"dx":0.0183,"nx":116,"ny":114,"refTime":"2023-10-18T18:00:00:Z","depth":0,"parameterNumber":3,"parameterNumberName":"V-component_of_WINDS"},"data":[0.0,0.0,0.0,0.0,0.0,0.0,0.0,0.0,0.0,0.0,0.0,0.0,0.0,0.0,0.0,0.0,0.0,0.0,0.0,0.0,0.0,0.0,0.0,0.0,0.0,0.0,0.0,0.0,0.0,0.0,0.0,0.0,0.0,0.0,0.0,0.0,0.0,0.0,0.0,0.0,0.0,0.0,0.0,0.0,0.0,0.0,0.0,0.0,0.0,0.0,0.0,0.0,0.0,0.0,0.0,0.0,0.0,0.0,0.0,0.0,0.0,0.0,0.0,0.0,0.0,0.0,0.0,0.0,0.0,0.0,0.0,0.0,0.0,0.0,0.0,0.0,0.0,0.0,0.0,0.0,0.0,0.0,0.0,0.0,0.0,0.0,0.0,0.0,0.0,0.0,0.0,0.0,0.0,0.0,0.0,0.0,0.0,0.0,0.0,0.0,0.0,0.0,0.0,0.0,0.0,0.0,0.0,0.0,0.0,0.0,0.0,0.0,0.0,0.0,0.0,0.0,0.0,0.0,0.0,0.0,0.0,0.0,0.0,0.0,0.0,0.0,0.0,0.0,0.0,0.0,0.0,0.0,0.0,0.0,0.0,0.0,0.0,0.0,0.0,0.0,0.0,0.0,0.0,0.0,0.0,0.0,0.0,0.0,0.0,0.0,0.0,0.0,0.0,0.0,0.0,0.0,0.0,0.0,0.0,0.0,0.0,0.0,0.0,0.0,0.0,0.0,0.0,0.0,0.0,0.0,0.0,0.0,0.0,0.0,0.0,0.0,0.0,0.0,0.0,0.0,0.0,0.0,0.0,0.0,0.0,0.0,0.0,0.0,0.0,0.0,0.0,0.0,0.0,0.0,0.0,0.0,0.0,0.0,0.0,0.0,0.0,0.0,0.0,0.0,0.0,0.0,0.0,0.0,0.0,0.0,0.0,0.0,0.0,0.0,0.0,0.0,0.0,0.0,0.0,0.0,0.0,0.0,0.0,0.0,0.0,0.0,0.0,0.0,0.0,0.0,0.0,0.0,0.0,0.0,0.0,0.0,0.0,0.0,0.0,0.0,0.0,0.0,0.0,0.0,0.0,0.0,0.0,0.0,0.0,0.0,0.0,0.0,0.0,0.0,0.0,0.0,0.0,0.0,0.0,0.0,0.0,0.0,0.0,0.0,0.0,0.0,0.0,0.0,0.0,0.0,0.0,0.0,0.0,0.0,0.0,0.0,0.0,0.0,0.0,0.0,0.0,0.0,0.0,0.0,0.0,0.0,0.0,0.0,0.0,0.0,0.0,0.0,0.0,0.0,0.0,0.0,0.0,0.0,0.0,0.0,0.0,0.0,0.0,0.0,0.0,0.0,0.0,0.0,0.0,0.0,0.0,0.0,0.0,0.0,0.0,0.0,0.0,0.0,0.0,0.0,0.0,0.0,0.0,0.0,0.0,0.0,0.0,0.0,0.0,0.0,0.0,0.0,0.0,0.0,0.0,0.0,0.0,0.0,0.0,0.0,0.0,0.0,0.0,0.0,0.0,0.0,0.0,0.0,0.0,0.0,0.0,0.0,0.0,0.0,0.0,0.0,0.0,0.0,0.0,0.0,0.0,0.0,0.0,0.0,0.0,0.0,0.0,0.0,0.0,0.0,0.0,0.0,0.0,0.0,0.0,0.0,0.0,0.0,0.0,0.0,0.0,0.0,0.0,0.0,0.0,0.0,0.0,0.0,0.0,0.0,0.0,0.0,0.0,0.0,0.0,0.0,0.0,0.0,0.0,0.0,0.0,0.0,0.0,0.0,0.0,0.0,0.0,0.0,0.0,0.0,0.0,0.0,0.0,0.0,0.0,0.0,0.0,0.0,0.0,0.0,0.0,0.0,0.0,0.0,0.0,0.0,0.0,0.0,0.0,0.0,0.0,0.0,0.0,0.0,0.0,0.0,0.0,0.0,0.0,0.0,0.0,0.0,0.0,0.0,0.0,0.0,0.0,0.0,0.0,0.0,0.0,0.0,0.0,0.0,0.0,0.0,0.0,0.0,0.0,0.0,0.0,0.0,0.0,0.0,0.0,0.0,0.0,0.0,0.0,0.0,0.0,0.0,0.0,0.0,0.0,0.0,0.0,0.0,0.0,0.0,0.0,0.0,0.0,0.0,0.0,0.0,0.0,0.0,0.0,0.0,0.0,0.0,0.0,0.0,0.0,0.0,0.0,0.0,0.0,0.0,0.0,0.0,0.0,0.0,0.0,0.0,0.0,0.0,0.0,0.0,0.0,0.0,0.0,0.0,0.0,0.0,0.0,0.0,0.0,0.0,0.0,0.0,0.0,0.0,0.0,0.0,0.0,0.0,0.0,0.0,0.0,0.0,0.0,0.0,0.0,0.0,0.0,0.0,0.0,0.0,0.0,0.0,0.0,0.0,0.0,0.0,0.0,0.0,0.0,0.0,0.0,0.0,0.0,0.0,0.0,0.0,0.0,0.0,0.0,0.0,0.0,0.0,0.0,0.0,0.0,0.0,0.0,0.0,0.0,0.0,0.0,0.0,0.0,0.0,0.0,0.0,0.0,0.0,0.0,0.0,0.0,0.0,0.0,0.0,0.0,0.0,0.0,0.0,0.0,0.0,0.0,0.0,0.0,0.0,0.0,0.0,0.0,0.0,0.0,0.0,0.0,0.0,0.0,0.0,0.0,0.0,0.0,0.0,0.0,0.0,0.0,0.0,0.0,0.0,0.0,0.0,0.0,0.0,0.0,0.0,0.0,0.0,0.0,0.0,0.0,0.0,0.0,0.0,0.0,0.0,0.0,0.0,0.0,0.0,0.0,0.0,0.0,0.0,0.0,0.0,0.0,0.0,0.0,0.0,0.0,0.0,0.0,0.0,0.0,0.0,0.0,0.0,0.0,0.0,0.0,0.0,0.0,0.0,0.0,0.0,0.0,0.0,0.0,0.0,0.0,0.0,0.0,0.0,0.0,0.0,0.0,0.0,0.0,0.0,0.0,0.0,0.0,0.0,0.0,0.0,0.0,0.0,0.0,0.0,0.0,0.0,0.0,0.0,0.0,0.0,0.0,0.0,0.0,0.0,0.0,0.0,0.0,0.0,0.0,0.0,0.0,0.0,0.0,0.0,0.0,0.0,0.0,0.0,0.0,0.0,0.0,0.0,0.0,0.0,0.0,0.0,0.0,0.0,0.0,0.0,0.0,0.0,0.0,0.0,0.0,0.0,0.0,0.0,0.0,0.0,0.0,0.0,0.0,0.0,0.0,0.0,0.0,0.0,0.0,0.0,0.0,0.0,0.0,0.0,0.0,0.0,0.0,0.0,0.0,0.0,0.0,0.0,0.0,0.0,0.0,0.0,0.0,0.0,0.0,0.0,0.0,0.0,0.0,0.0,0.0,0.0,0.0,0.0,0.0,0.0,0.0,0.0,0.0,0.0,0.0,0.0,0.0,0.0,0.0,0.0,0.0,0.0,0.0,0.0,0.0,0.0,0.0,0.0,0.0,0.0,0.0,0.0,0.0,0.0,0.0,0.0,0.0,0.0,0.0,0.0,0.0,0.0,0.0,0.0,0.0,0.0,0.0,0.0,0.0,0.0,0.0,0.0,0.0,0.0,0.0,0.0,0.0,0.0,0.0,0.0,0.0,0.0,0.0,0.0,0.0,0.0,0.0,0.0,0.0,0.0,0.0,0.0,0.0,0.0,0.0,0.0,0.0,0.0,0.0,0.0,0.0,0.0,0.0,0.0,0.0,0.0,0.0,0.0,0.0,0.0,0.0,0.0,0.0,0.0,0.0,0.0,0.0,0.0,0.0,0.0,0.0,0.0,0.0,0.0,0.0,0.0,0.0,0.0,0.0,0.0,0.0,0.0,0.0,0.0,0.0,0.0,0.0,0.0,0.0,0.0,0.0,0.0,0.0,0.0,0.0,0.0,0.0,0.0,0.0,0.0,0.0,0.0,0.0,0.0,0.0,0.0,0.0,0.0,0.0,0.0,0.0,0.0,0.0,0.0,0.0,0.0,0.0,0.0,0.0,0.0,0.0,0.0,0.0,0.0,0.0,0.0,0.0,0.0,0.0,0.0,0.0,0.0,0.0,0.0,0.0,0.0,0.0,0.0,0.0,0.0,0.0,0.0,0.0,0.0,0.0,0.0,0.0,0.0,0.0,0.0,0.0,0.0,0.0,0.0,0.0,0.0,0.0,0.0,0.0,0.0,0.0,0.0,0.0,0.0,0.0,0.0,0.0,0.0,0.0,0.0,0.0,0.0,0.0,0.0,0.0,0.0,0.0,0.0,0.0,0.0,0.0,0.0,0.0,0.0,0.0,0.0,0.0,0.0,0.0,0.0,0.0,0.0,0.0,0.0,0.0,0.0,0.0,0.0,0.0,0.0,0.0,0.0,0.0,0.0,0.0,0.0,0.0,0.0,0.0,0.0,0.0,0.0,0.0,0.0,0.0,0.0,0.0,0.0,0.0,0.0,0.0,0.0,0.0,0.0,0.0,0.0,0.0,0.0,0.0,0.0,0.0,0.0,0.0,0.0,0.0,0.0,0.0,0.0,0.0,0.0,0.0,0.0,0.0,0.0,0.0,0.0,0.0,0.0,0.0,0.0,0.0,0.0,0.0,0.0,0.0,0.0,0.0,0.0,0.0,0.0,0.0,0.0,0.0,0.0,0.0,0.0,0.0,0.0,0.0,0.0,0.0,0.0,0.0,0.0,0.0,0.0,0.0,0.0,0.0,0.0,0.0,0.0,0.0,0.0,0.0,0.0,0.0,0.0,0.0,0.0,0.0,0.0,0.0,0.0,0.0,0.0,0.0,0.0,0.0,0.0,0.0,0.0,0.0,0.0,0.0,0.0,0.0,0.0,0.0,0.0,0.0,0.0,0.0,0.0,0.0,0.0,0.0,0.0,0.0,0.0,0.0,0.0,0.0,0.0,0.0,0.0,0.0,0.0,0.0,0.0,0.0,0.0,0.0,0.0,0.0,0.0,0.0,0.0,0.0,0.0,0.0,0.0,0.0,0.0,0.0,0.0,0.0,0.0,0.0,0.0,0.0,0.0,0.0,0.0,0.0,0.0,0.0,0.0,0.0,0.0,0.0,0.0,0.0,0.0,0.0,0.0,0.0,0.0,0.0,0.0,0.0,0.0,0.0,0.0,0.0,0.0,0.0,0.0,0.0,0.0,0.0,0.0,0.0,0.0,0.0,0.0,0.0,0.0,0.0,0.0,0.0,0.0,0.0,0.0,0.0,0.0,0.0,0.0,0.0,0.0,0.0,0.0,0.0,0.0,0.0,0.0,0.0,0.0,0.0,0.0,0.0,0.0,0.0,0.0,0.0,0.0,0.0,0.0,0.0,0.0,0.0,0.0,0.0,0.0,0.0,0.0,0.0,0.0,0.0,0.0,0.0,0.0,0.0,0.0,0.0,0.0,0.0,0.0,0.0,0.0,0.0,0.0,0.0,0.0,0.0,0.0,0.0,0.0,0.0,0.0,0.0,0.0,0.0,0.0,0.0,0.0,0.0,0.0,0.0,0.0,0.0,0.0,0.0,0.0,0.0,0.0,0.0,0.0,0.0,0.0,0.0,0.0,0.0,0.0,0.0,0.0,0.0,0.0,0.0,0.0,0.0,0.0,0.0,0.0,0.0,0.0,0.0,0.0,0.0,0.0,0.0,0.0,0.0,0.0,0.0,0.0,0.0,0.0,0.0,0.0,0.0,0.0,0.0,0.0,0.0,0.0,0.0,0.0,0.0,0.0,0.0,0.0,0.0,0.0,0.0,0.0,0.0,0.0,0.0,0.0,0.0,0.0,0.0,0.0,0.0,0.0,0.0,0.0,0.0,0.0,0.0,0.0,0.0,0.0,0.0,0.0,0.0,0.0,0.0,0.0,0.0,0.0,0.0,0.0,0.0,0.0,0.0,0.0,0.0,0.0,0.0,0.0,0.0,0.0,0.0,0.0,0.0,0.0,0.0,0.0,0.0,0.0,0.0,0.0,0.0,0.0,0.0,0.0,0.0,0.0,0.0,0.0,0.0,0.0,0.0,0.0,0.0,0.0,0.0,0.0,0.0,0.0,0.0,0.0,0.0,0.0,0.0,0.0,0.0,0.0,-0.102,0.0,0.0,0.0,0.0,0.0,0.0,0.0,0.0,0.0,0.0,0.0,0.0,0.0,0.0,0.0,0.0,0.0,0.0,0.0,0.0,0.0,0.0,0.0,0.0,0.0,0.0,0.0,0.0,0.0,0.0,0.0,0.0,0.0,0.0,0.0,0.0,0.0,0.0,0.0,0.0,0.0,0.0,0.0,0.0,0.0,0.0,0.0,0.0,0.0,0.0,0.0,0.0,0.0,0.0,0.0,0.0,0.0,0.0,0.0,0.0,0.0,0.0,0.0,0.0,0.0,0.0,0.0,0.0,0.0,0.0,0.0,0.0,0.0,0.0,0.0,0.0,0.0,0.0,0.0,0.0,0.0,0.0,0.0,0.0,0.0,0.0,0.0,0.0,0.0,0.0,0.0,0.0,0.0,0.0,0.0,0.0,0.0,0.0,0.0,0.0,0.0,0.0,0.0,0.0,0.0,0.0,0.0,0.0,0.0,0.0,0.0,0.0,0.0,0.0,0.0,0.0,-0.0444,0.0,0.0,0.0,0.0,0.0,0.0,0.0,0.0,0.0,0.0,0.0,0.0,0.0,0.0,0.0,0.0,0.0,0.0,0.0,0.0,0.0,0.0,0.0,0.0,0.0,0.0,0.0,0.0,0.0,0.0,0.0,0.0,0.0,0.0,0.0,0.0,0.0,0.0,0.0,0.0,0.0,0.0,0.0,0.0,0.0,0.0,0.0,0.0,0.0,0.0,0.0,0.0,0.0,0.0,0.0,0.0,0.0,0.0,0.0,0.0,0.0,0.0,0.0,0.0,0.0,0.0,0.0,0.0,0.0,0.0,0.0,0.0,0.0,0.0,0.0,0.0,0.0,0.0,0.0,0.0,0.0,0.0,0.0,0.0,0.0,0.0,0.0,0.0,0.0,0.0,0.0,0.0,0.0,0.0,0.0,0.0,0.0,0.0,0.0,0.0,0.0,0.0,0.0,0.0,0.0,0.0,0.0,0.0,0.8147,0.7779,0.6956,0.653,0.5937,0.5173,0.3816,0.1618,-0.0868,0.0,0.0,0.0,0.0,0.0,0.0,0.0,0.0,0.0,0.0,0.0,0.0,0.0,0.0,0.0,0.0,0.0,0.0,0.0,0.0,0.0,0.0,0.0,0.0,0.0,0.0,0.0,0.0,0.0,0.0,0.0,0.0,0.0,0.0,0.0,0.0,0.0,0.0,0.0,0.0,0.0,0.0,0.0,0.0,0.0,0.0,0.0,0.0,0.0,0.0,0.0,0.0,0.0,0.0,0.0,0.0,0.0,0.0,0.0,0.0,0.0,0.0,0.0,0.0,0.0,0.0,0.0,0.0,0.0,0.0,0.0,0.0,0.0,0.0,0.0,0.0,0.0,0.0,0.0,0.0,0.0,0.0,0.0,0.0,0.0,0.0,0.0,0.9959,0.7094,0.0,0.0,0.0,0.0,0.0,0.0,0.0,0.0,0.0,0.0,0.0,0.0,0.0,0.0,0.8193,0.893,0.888,0.8005,0.864,0.8475,0.7577,0.7346,0.6907,0.6286,0.6148,0.0,0.2511,0.1961,0.0,0.0,0.0,0.0,0.0,0.0,0.0,0.0,0.0,0.0,0.0,0.0,0.0,0.0,0.0,0.0,0.0,0.0,0.0,0.0,0.0,0.0,0.0,0.0,0.0,0.0,0.0,0.0,0.0,0.0,0.0,0.0,0.0,0.0,0.0,0.0,0.0,0.0,0.0,0.0,0.0,0.0,0.0,0.0,0.0,0.0,0.0,0.0,0.0,0.0,0.0,0.0,0.0,0.0,0.0,0.0,0.0,0.0,0.0,0.0,0.0,0.0,0.0,0.0,0.0,0.0,0.0,0.0,0.0,0.0,0.0,0.0,0.0,0.0,0.0,0.0,0.0,0.0,0.0,0.0,0.0,0.0,0.0,0.0,0.0,1.2509,1.0703,0.8487,0.6868,0.5794,0.0,0.0,0.0,0.0,0.0,0.0,0.0,0.0,0.0,0.9575,0.9867,0.9848,0.9559,1.0304,1.0137,0.9106,0.931,0.8841,0.7848,0.7769,0.7311,0.6607,0.7193,0.6637,0.5247,0.4592,0.467,0.5158,0.0,0.0,0.0,0.0,0.0,1.047,0.0,0.0,0.0,0.0,0.0,0.0,0.0,0.0,0.0,0.0,0.0,0.0,0.0,0.0,0.0,0.0,0.0,0.0,0.0,0.0,0.0,0.0,0.0,0.0,0.0,0.0,0.0,0.0,0.0,0.0,0.0,0.0,0.0,0.0,0.0,0.0,0.0,0.0,0.0,0.0,0.0,0.0,0.0,0.0,0.0,0.0,0.0,0.0,0.0,0.0,0.0,0.0,0.0,0.0,0.0,0.0,0.0,0.0,0.0,0.0,0.0,0.0,0.0,0.0,0.0,0.0,0.0,0.0,0.0,0.0,0.0,0.0,0.0,0.0,0.0,0.0,0.0,1.3079,1.1981,0.9927,0.8563,0.7703,0.0,0.0,0.0,0.0,0.0,0.0,1.0905,1.0857,1.0863,1.106,1.1608,1.1634,1.1045,1.1486,1.1208,1.0293,1.0036,0.9486,0.8608,0.8562,0.8152,0.753,0.83,0.8313,0.7739,0.7225,0.7147,0.7453,0.8459,0.9387,1.0297,1.1746,1.2272,1.2425,0.0,0.0,0.0,0.0,0.0,0.0,0.0,0.0,0.0,0.0,0.0,0.0,0.0,0.0,0.0,0.0,0.0,0.0,0.0,0.0,0.0,0.0,0.0,0.0,0.0,0.0,0.0,0.0,0.0,0.0,0.0,0.0,0.0,0.0,0.0,0.0,0.0,0.0,0.0,0.0,0.0,0.0,0.0,0.0,0.0,0.0,0.0,0.0,0.0,0.0,0.0,0.0,0.0,0.0,0.0,0.0,0.0,0.0,0.0,0.0,0.0,0.0,0.0,0.0,0.0,0.0,0.0,0.0,0.0,0.0,0.0,0.0,0.0,0.0,0.0,0.0,0.0,0.0,0.0,1.16,1.0911,0.0,0.0,0.0,0.0,1.1852,1.2666,1.3623,1.4754,1.4162,1.3858,1.3972,1.3176,1.259,1.2224,1.204,1.1706,1.113,1.0945,1.0638,1.0256,1.009,0.9979,0.9927,0.9979,1.0078,1.0168,0.9631,0.938,0.944,1.0232,1.0997,1.1816,1.3689,1.4353,1.4617,0.0,0.0,0.0,0.0,0.0,0.0,0.0,0.0,0.0,0.0,0.0,0.0,0.0,0.0,0.0,0.0,0.0,0.0,0.0,0.0,0.0,0.0,0.0,0.0,0.0,0.0,0.0,0.0,0.0,0.0,0.0,0.0,0.0,0.0,0.0,0.0,0.0,0.0,0.0,0.0,0.0,0.0,0.0,0.0,0.0,0.0,0.0,0.0,0.0,0.0,0.0,0.0,0.0,0.0,0.0,0.0,0.0,0.0,0.0,0.0,0.0,0.0,0.0,0.0,0.0,0.0,0.0,0.0,0.0,0.0,0.0,0.0,0.0,0.0,0.0,0.0,0.0,0.0,0.0,1.4279,1.3455,0.0,0.0,1.2475,1.2512,1.3133,1.3628,1.3967,1.4178,1.4112,1.3857,1.3423,1.3871,1.334,1.1803,1.2189,1.1803,1.0683,1.0461,1.0237,1.0005,0.995,0.9825,0.9775,1.0863,1.0834,1.0143,1.1982,1.2131,1.125,1.1967,1.2996,1.4184,1.4964,1.5536,1.5959,0.0,0.0,0.0,0.0,0.0,0.0,0.0,0.0,0.0,0.0,0.0,0.0,0.0,0.0,0.0,0.0,0.0,0.0,0.0,0.0,0.0,0.0,0.0,0.0,0.0,0.0,0.0,0.0,0.0,0.0,0.0,0.0,0.0,0.0,0.0,0.0,0.0,0.0,0.0,0.0,0.0,0.0,-0.0561,0.0,0.0,0.0,0.0,0.0,0.0,0.0,0.0,0.0,0.0,0.0,0.0,0.0,0.0,0.0,0.0,0.0,0.0,0.0,0.0,0.0,0.0,0.0,0.0,0.0,0.0,0.0,0.0,0.0,0.0,0.0,0.0,0.0,0.0,0.0,1.7064,1.5716,1.5511,1.5394,1.5272,1.4808,1.4626,1.481,1.5254,1.5302,1.4778,1.515,1.5119,1.4492,1.5053,1.4596,1.3007,1.3229,1.2838,1.1744,1.1621,1.1433,1.1194,1.1136,1.0971,1.077,1.1832,1.1667,1.0766,1.3043,1.3429,1.2704,1.3329,1.421,1.5217,1.5661,1.611,1.6564,0.0,0.0,0.0,0.0,0.0,0.0,0.0,0.0,0.0,0.0,0.0,0.0,0.0,0.0,0.0,0.0,0.0,0.0,0.0,0.0,0.0,0.0,0.0,0.0,0.0,0.0,0.0,0.0,0.0,0.0,0.0,0.0,0.0,0.0,0.0,0.0,0.0,0.0,0.0,0.0,0.0,0.0,0.1793,0.0,0.0,0.0,0.0,0.0,0.0,0.0,0.0,0.0,0.0,0.0,0.0,0.0,0.0,0.0,0.0,0.0,0.0,0.0,0.0,0.0,0.0,0.0,0.0,0.0,0.0,0.0,0.0,0.0,0.0,0.0,0.0,0.0,1.6027,1.7475,1.8057,1.5875,1.6979,1.7573,1.6669,1.7118,1.7276,1.6846,1.7674,1.7786,1.6867,1.7488,1.7743,1.7378,1.6756,1.6257,1.5896,1.5239,1.4746,1.4453,1.4413,1.4241,1.4007,1.3772,1.3473,1.3104,1.2986,1.2658,1.227,1.2746,1.3285,1.3806,1.4342,1.4631,1.4906,1.5789,1.6224,1.6434,0.0,0.0,0.0,0.0,0.0,0.0,0.0,0.0,0.0,0.0,0.0,0.0,0.0,0.0,0.0,0.0,0.0,0.0,0.0,0.0,0.0,0.0,0.0,0.0,0.0,0.0,0.0,0.0,0.0,0.0,0.0,0.0,0.0,0.0,0.0,0.0,0.0,0.0,0.0,0.0,0.0,0.0,0.2447,0.0,0.0,0.0,0.0,0.0,0.0,0.0,0.0,0.0,0.0,0.0,0.0,0.0,0.0,0.0,0.0,0.0,0.0,0.0,0.0,0.0,0.0,0.0,0.0,0.0,0.0,0.0,0.0,0.0,0.0,0.0,0.0,2.0088,1.8781,1.9399,1.9628,1.8664,1.8676,1.8658,1.8388,1.823,1.7944,1.7487,1.7678,1.7567,1.6901,1.7579,1.753,1.6572,1.6882,1.6622,1.5676,1.5483,1.5385,1.5342,1.4551,1.4134,1.4052,1.3616,1.3295,1.3131,1.3588,1.3585,1.3329,1.4048,1.4603,1.5011,1.5225,1.5849,1.6678,1.6736,1.709,1.7585,0.0,0.0,0.0,0.0,0.0,0.0,0.0,0.0,0.0,0.0,0.0,0.0,0.0,0.0,0.0,0.0,0.0,0.0,0.0,0.0,0.0,0.0,0.0,0.0,0.0,0.0,0.0,0.0,0.0,0.0,0.0,0.0,0.0,0.0,0.0,0.0,0.0,0.0,0.0,0.0,0.0,0.0,0.5042,0.5585,0.558,0.5303,0.5631,0.6197,0.6662,0.5799,0.0,0.0,0.0,0.0,0.0,0.0,0.0,0.0,0.0,0.0,0.0,0.0,0.0,0.0,0.0,0.0,0.0,0.0,0.0,0.0,0.0,0.0,0.0,0.0,2.118,2.1465,2.128,2.0945,2.0628,2.0374,2.0263,2.0222,2.017,1.9751,1.9228,1.8523,1.8834,1.85,1.7254,1.8362,1.8473,1.7234,1.7677,1.7613,1.6941,1.6529,1.6339,1.635,1.5684,1.5357,1.5347,1.5148,1.4906,0.0,1.4921,1.4839,1.4584,1.5124,1.5697,0.0,0.0,0.0,0.0,0.0,1.7739,1.8333,0.0,0.0,0.0,0.0,0.0,0.0,0.0,0.0,0.0,0.0,0.0,0.0,0.0,0.0,0.0,0.0,0.0,0.0,0.0,0.0,0.0,0.0,0.0,0.0,0.0,0.0,0.0,0.0,0.0,0.0,0.0,0.0,0.0,0.0,0.0,0.0,0.0,0.0,0.0,0.0,0.0,0.0,0.8711,0.8823,0.9,0.9134,0.8681,0.9367,1.026,0.8717,0.0,0.0,0.0,0.0,0.0,0.0,0.0,0.0,0.0,0.0,0.0,0.0,0.0,0.0,0.0,0.0,0.0,0.0,0.0,0.0,0.0,0.0,0.0,0.0,2.2669,2.2805,2.3341,2.2321,2.1479,2.1377,2.1642,2.1795,2.1698,2.1401,2.0791,1.9768,2.0445,2.0036,1.7956,0.0,0.0,0.0,0.0,1.8804,1.879,1.7916,1.7494,1.7541,1.7253,1.7123,1.7195,1.7226,1.7069,1.6777,1.6384,1.6074,1.584,1.6015,1.6617,1.7365,1.7015,1.7219,1.7738,1.789,1.8328,0.0,0.0,0.0,0.0,0.0,0.0,0.0,0.0,0.0,0.0,0.0,0.0,0.0,0.0,0.0,0.0,0.0,0.0,0.0,0.0,0.0,0.0,0.0,0.0,0.0,0.0,0.0,0.0,0.0,0.0,0.0,0.0,0.0,0.0,0.0,0.0,0.0,0.0,0.0,0.0,0.0,0.0,0.0,1.1317,1.154,1.1886,1.226,1.2329,1.2861,1.3375,1.2326,1.1421,1.0538,0.9164,0.0,0.0,0.0,0.0,0.0,0.0,0.0,0.0,0.0,0.0,0.0,0.0,0.0,0.0,0.0,0.0,0.0,0.0,0.0,0.0,2.3392,2.3772,2.4064,2.4174,2.3718,2.3119,2.2409,2.2262,2.2176,2.2178,2.2004,2.1568,2.0765,2.0876,2.0535,1.9508,1.9705,0.0,1.8943,1.884,1.8807,1.8791,1.8608,1.8706,1.9061,0.0,0.0,1.7686,1.6289,1.5847,1.6158,1.5865,1.6056,1.6593,1.6614,1.7476,1.8758,1.8976,1.9076,1.9128,1.9397,1.925,1.9012,0.0,0.0,0.0,0.0,0.0,0.0,0.0,0.0,0.0,0.0,0.0,0.0,0.0,0.0,0.0,0.0,0.0,0.0,0.0,0.0,0.0,0.0,0.0,0.0,0.0,0.0,0.0,0.0,0.0,0.0,0.0,0.0,0.0,0.0,0.0,0.0,0.0,0.0,0.0,0.0,0.0,0.0,1.6507,1.4883,1.4808,1.5578,1.5488,1.6089,1.6804,1.6153,1.5158,1.3966,1.2774,1.1558,1.0273,0.0,0.0,0.0,0.0,0.0,0.0,0.0,0.0,0.0,0.0,0.0,0.0,0.0,0.0,2.2404,0.0,0.0,2.4024,2.4698,2.4776,2.4811,2.5024,2.4913,2.4655,2.4246,2.3884,2.3654,2.3654,2.3247,2.2602,2.1614,2.1806,2.1391,2.0121,2.0804,2.0685,1.9479,1.9608,1.9547,1.9196,1.8887,1.894,1.9289,1.803,1.7671,1.8082,1.7371,1.7018,1.6984,1.7459,1.7674,1.7744,1.8101,1.8773,1.9624,1.9927,1.9923,1.9773,1.9979,1.9899,1.9758,0.0,0.0,0.0,0.0,0.0,0.0,0.0,0.0,0.0,0.0,0.0,0.0,0.0,0.0,0.0,0.0,0.0,0.0,0.0,0.0,0.0,0.0,0.0,0.0,0.0,0.0,0.0,0.0,0.0,0.0,0.0,0.0,0.0,0.0,0.0,0.0,0.0,0.0,0.0,0.0,0.0,0.0,2.1786,1.8918,1.8323,1.8962,1.8594,1.9097,1.9864,1.9451,1.8383,1.7018,1.609,1.4817,1.3317,1.1508,1.1657,0.0,0.0,0.0,0.0,0.0,0.0,0.0,0.0,0.0,2.2461,2.309,2.4206,2.505,2.5101,2.4922,2.5093,2.6114,2.5674,2.5363,2.5792,2.5744,2.572,2.589,2.5307,2.4942,2.5039,2.4367,2.346,2.2354,2.2684,2.2192,2.0461,2.1709,2.167,1.9967,2.0279,2.0237,1.9698,1.9203,1.9106,1.9302,1.8504,1.8311,1.8631,1.8716,1.844,1.7967,1.8989,1.9208,1.8949,1.9682,2.0135,2.0342,2.0512,2.0461,2.0291,2.0309,2.0378,2.0481,0.0,0.0,0.0,0.0,0.0,0.0,0.0,0.0,0.0,0.0,0.0,0.0,0.0,0.0,0.0,0.0,0.0,0.0,0.0,0.0,0.0,0.0,0.0,0.0,0.0,0.0,0.0,0.0,0.0,0.0,0.0,0.0,0.0,0.0,0.0,0.0,0.0,0.0,0.0,0.0,0.0,0.0,2.4552,2.417,2.3293,2.2234,2.1954,2.1818,2.1707,2.107,1.9854,1.8388,1.7277,1.6404,1.5496,1.4169,0.0,1.3294,1.3336,1.4363,1.6046,1.8738,1.9233,2.0092,0.0,0.0,2.6645,2.7444,2.8429,2.9062,2.884,2.7655,2.6874,2.7498,2.6488,2.5807,2.6347,2.5914,2.5728,2.6268,2.5223,2.4671,2.5213,2.4484,2.3702,2.2945,2.2947,2.2418,2.1153,2.1153,2.0834,2.0009,2.0049,2.0063,2.0039,1.9967,1.9988,2.0074,1.9258,1.9209,1.9768,1.8673,1.8127,1.8003,1.8329,1.9018,1.9993,2.0731,2.1087,2.1167,2.1183,2.1246,2.1276,2.0877,2.0745,2.0699,0.0,0.0,0.0,0.0,0.0,0.0,0.0,0.0,0.0,0.0,0.0,0.0,0.0,0.0,0.0,0.0,0.0,0.0,0.0,0.0,0.0,0.0,0.0,0.0,0.0,0.0,0.0,0.0,0.0,0.0,0.0,0.0,0.0,0.0,0.0,0.0,0.0,0.0,0.0,0.0,0.0,0.0,2.6554,2.6487,2.5819,2.4812,2.4156,2.3718,0.0,0.0,2.1256,1.9982,1.8738,1.7667,1.6616,1.5137,1.4862,0.0,1.6987,1.7738,0.0,0.0,2.182,2.3003,2.5005,2.6963,2.8541,2.9171,3.0244,3.0794,2.9872,2.8876,2.8222,0.0,2.7111,2.6311,2.6418,2.5826,2.549,2.5742,2.4926,2.473,2.5732,2.5014,2.4256,2.3683,2.3302,2.2753,2.1931,2.1949,2.1689,2.1011,2.0961,2.076,2.0381,2.0363,2.0183,1.9855,1.951,1.9436,1.9592,1.9402,1.9652,2.0186,1.9859,2.0231,2.1103,2.1416,2.1555,2.1602,2.1602,2.1646,2.1675,2.1246,2.1167,2.1261,0.0,0.0,0.0,0.0,0.0,0.0,0.0,0.0,0.0,0.0,0.0,0.0,0.0,0.0,0.0,0.0,0.0,0.0,0.0,0.0,0.0,0.0,0.0,0.0,0.0,0.0,0.0,0.0,0.0,0.0,0.0,0.0,0.0,0.0,0.0,0.0,0.0,0.0,0.0,0.0,0.0,0.0,2.8047,2.819,2.7683,2.6756,2.5672,2.4675,0.0,0.0,2.167,2.0446,1.9277,1.8248,1.7287,1.6171,1.6377,1.7398,1.9265,0.0,0.0,2.2361,2.4007,2.545,2.644,2.8429,3.0283,3.1026,3.175,3.1938,3.0998,2.999,0.0,2.8779,2.755,2.6549,2.6275,2.5404,2.4828,2.4879,2.4448,2.4583,2.5629,2.5128,2.4511,2.3948,2.3564,2.3027,2.2244,2.2347,2.213,2.147,2.1454,2.1234,2.0811,2.0746,2.0415,1.9798,2.0035,1.9945,1.9584,1.9911,2.0568,2.1433,2.0699,2.0931,2.1812,2.1884,2.1897,2.1897,2.1926,2.1998,2.2044,2.1675,2.1631,2.1764,0.0,0.0,0.0,0.0,0.0,0.0,0.0,0.0,0.0,0.0,0.0,0.0,0.0,0.0,0.0,0.0,0.0,0.0,0.0,0.0,0.0,0.0,0.0,0.0,0.0,0.0,0.0,0.0,0.0,0.0,0.0,0.0,0.0,0.0,0.0,0.0,0.0,0.0,0.0,0.0,0.0,0.0,2.8951,2.9794,2.9308,2.7944,2.6492,0.0,0.0,0.0,2.0643,1.9133,1.8387,1.7847,0.0,1.7665,1.8331,0.0,0.0,0.0,2.1758,2.3898,2.5207,2.668,2.9438,3.1078,3.242,3.3872,3.3428,3.2861,3.3141,3.1305,2.9722,2.9572,2.7832,2.6341,2.5887,2.4566,2.371,2.383,2.3842,2.4005,0.0,2.4575,2.4275,2.3485,2.3658,2.3185,2.1796,2.1736,2.1438,2.0842,2.0958,2.1103,2.1277,2.1277,2.0937,2.0286,2.1132,2.1096,2.0257,1.9879,2.0046,2.0598,1.9926,2.0453,2.1811,2.2082,2.2192,2.2192,2.2261,2.2405,2.2552,2.2265,2.2178,2.2121,0.0,0.0,0.0,0.0,0.0,0.0,0.0,0.0,0.0,0.0,0.0,0.0,0.0,0.0,0.0,0.0,0.0,0.0,0.0,0.0,0.0,0.0,0.0,0.0,0.0,0.0,0.0,0.0,0.0,0.0,0.0,0.0,0.0,0.0,0.0,0.0,0.0,0.0,0.0,0.0,0.0,0.0,3.0277,2.9544,2.8468,2.7179,0.0,0.0,0.0,0.0,2.0484,1.9312,1.8789,0.0,0.0,1.8115,1.9293,2.0706,2.2022,0.0,2.4611,2.6552,2.7346,2.8058,2.9587,3.1036,3.216,3.2559,3.2235,3.1695,3.115,2.9818,2.8682,2.8269,2.7771,2.7038,2.5932,2.498,2.4246,2.3851,2.3447,0.0,0.0,0.0,0.0,2.3554,2.2931,2.242,2.2179,2.205,2.1798,2.1463,2.1643,2.1703,2.1632,2.1273,2.0936,2.0629,2.0689,2.0786,2.0904,2.1179,2.164,2.2254,2.2155,2.2433,2.2923,2.2824,2.279,2.2794,2.2677,2.2708,2.2786,2.2743,2.2769,2.2742,0.0,0.0,0.0,0.0,0.0,0.0,0.0,0.0,0.0,0.0,0.0,0.0,0.0,0.0,0.0,0.0,0.0,0.0,0.0,0.0,0.0,0.0,0.0,0.0,0.0,0.0,0.0,0.0,0.0,0.0,0.0,0.0,0.0,0.0,0.0,0.0,0.0,0.0,0.0,0.0,0.0,0.0,2.977,2.9341,2.8245,0.0,0.0,0.0,0.0,0.0,0.0,0.0,1.8642,1.8212,1.8282,1.9466,2.1029,2.2738,2.4607,2.5631,2.6543,2.8082,2.8592,2.8939,2.9902,3.1301,3.2469,3.2669,3.2033,3.1365,3.1118,2.9781,2.8453,2.7611,2.7508,2.6989,2.5409,2.438,2.3747,2.3591,2.305,0.0,0.0,0.0,0.0,2.3828,2.3014,2.2571,2.2765,2.2385,2.2127,2.2046,2.2172,2.2186,2.2046,2.172,2.137,2.1079,2.0352,2.0246,2.0723,2.1176,2.1629,2.2086,2.2503,2.2861,2.3146,2.3182,2.3164,2.3082,2.2881,2.2889,2.3052,2.3114,2.323,2.3301,0.0,0.0,0.0,0.0,0.0,0.0,0.0,0.0,0.0,0.0,0.0,0.0,0.0,0.0,0.0,0.0,0.0,0.0,0.0,0.0,0.0,0.0,0.0,0.0,0.0,0.0,0.0,0.0,0.0,0.0,0.0,0.0,0.0,0.0,0.0,0.0,0.0,0.0,0.0,0.0,0.0,0.0,2.7814,2.9241,0.0,0.0,0.0,0.0,0.0,0.0,0.0,0.0,0.0,0.0,1.9705,2.1817,2.3499,2.5065,2.674,2.7254,2.7584,2.8643,2.8991,2.9368,3.0459,3.1864,3.3181,3.397,3.2646,3.1659,0.0,0.0,2.9048,2.7714,2.7288,2.6448,2.4573,2.3084,2.2468,0.0,0.0,0.0,0.0,0.0,0.0,2.4294,0.0,2.3522,2.3412,2.2708,2.2371,2.2511,2.2511,2.2528,2.2515,2.2515,2.2159,2.1442,2.0179,1.966,1.9826,2.0037,2.0219,2.0395,2.1168,2.1926,2.2648,2.3192,2.3305,2.3132,2.2902,2.3022,2.3336,2.3394,2.3569,2.3742,0.0,0.0,0.0,0.0,0.0,0.0,0.0,0.0,0.0,0.0,0.0,0.0,0.0,0.0,0.0,0.0,0.0,0.0,0.0,0.0,0.0,0.0,0.0,0.0,0.0,0.0,0.0,0.0,0.0,0.0,0.0,0.0,0.0,0.0,0.0,0.0,0.0,0.0,0.0,0.0,0.0,0.0,2.9576,0.0,0.0,0.0,0.0,0.0,0.0,0.0,0.0,0.0,0.0,0.0,2.363,2.5108,0.0,2.6426,2.8008,2.8697,2.9195,3.0066,3.0131,3.0124,3.0709,3.0831,3.0785,3.0761,2.9722,2.8935,2.9318,0.0,0.0,2.9135,2.9633,0.0,2.7286,2.5839,0.0,0.0,0.0,2.3281,2.4641,2.3815,0.0,0.0,2.3687,2.3181,2.3594,2.3014,2.269,2.273,2.282,2.2782,2.2573,2.2664,2.1654,1.9522,2.0306,2.0513,2.0191,2.0386,2.119,2.2444,2.2813,2.3377,2.4046,2.3808,2.3733,2.3739,2.3383,2.3388,2.3613,2.3678,2.3742,2.3785,0.0,0.0,0.0,0.0,0.0,0.0,0.0,0.0,0.0,0.0,0.0,0.0,0.0,0.0,0.0,0.0,0.0,0.0,0.0,0.0,0.0,0.0,0.0,0.0,0.0,0.0,0.0,0.0,0.0,0.0,0.0,0.0,0.0,0.0,0.0,0.0,0.0,0.0,0.0,0.0,0.0,0.0,0.0,0.0,0.0,0.0,0.0,0.0,0.0,0.0,0.0,2.505,2.51,2.5371,2.5979,2.7451,0.0,2.8168,2.9535,2.9949,3.012,3.0676,3.0119,2.9531,2.9933,2.9746,2.9391,2.9072,2.8442,0.0,0.0,0.0,0.0,0.0,0.0,0.0,2.7872,2.6382,2.5153,0.0,2.345,0.0,2.4151,2.3864,2.3914,0.0,2.363,2.3222,2.3802,2.3336,2.3092,2.3189,2.3242,2.3023,2.2517,2.185,2.0816,1.9417,2.0074,2.024,1.996,2.0185,2.0859,2.1878,0.0,2.2955,2.3585,2.3453,2.3636,2.3966,2.3531,2.3558,2.384,2.387,2.3979,2.4106,0.0,0.0,0.0,0.0,0.0,0.0,0.0,0.0,0.0,0.0,0.0,0.0,0.0,0.0,0.0,0.0,0.0,0.0,0.0,0.0,0.0,0.0,0.0,0.0,0.0,0.0,0.0,0.0,0.0,0.0,0.0,0.0,0.0,0.0,0.0,0.0,0.0,0.0,0.0,0.0,0.0,0.0,0.0,0.0,0.0,0.0,0.0,0.0,0.0,0.0,2.9733,2.75,2.7989,2.779,2.7702,2.9402,2.9733,2.9764,3.0909,3.077,3.0331,3.0448,2.9244,2.8155,2.8524,2.8443,2.8286,2.8156,0.0,0.0,2.9109,0.0,3.0651,2.9862,0.0,3.1036,2.7859,2.6336,2.5201,2.4288,2.3856,2.3543,2.337,2.3808,2.4146,2.4243,2.3575,2.34,2.3903,2.3502,2.336,2.3541,2.3401,2.298,2.2262,2.0811,2.0081,2.0083,1.9796,1.9599,1.956,1.9815,2.0053,2.0322,0.0,0.0,2.246,2.2898,2.3446,2.3968,2.3553,2.3649,2.4069,2.4079,2.4248,2.4508,0.0,0.0,0.0,0.0,0.0,0.0,0.0,0.0,0.0,0.0,0.0,0.0,0.0,0.0,0.0,0.0,0.0,0.0,0.0,0.0,0.0,0.0,0.0,0.0,0.0,0.0,0.0,0.0,0.0,0.0,0.0,0.0,0.0,0.0,0.0,0.0,0.0,0.0,0.0,0.0,0.0,0.0,0.0,0.0,0.0,0.0,0.0,0.0,0.0,0.0,3.3294,3.2247,3.2506,3.1562,3.0637,3.2113,3.1147,2.9832,3.0975,3.0239,2.9114,2.8887,2.7759,2.6784,2.7029,2.6381,0.0,0.0,0.0,2.6943,2.8043,2.9187,0.0,3.215,0.0,0.0,0.0,0.0,2.7706,0.0,0.0,0.0,0.0,0.0,0.0,0.0,0.0,0.0,2.3484,2.2907,2.2648,2.2789,2.2243,2.1796,2.15,2.1198,2.0518,1.9463,2.0103,2.0208,1.9838,1.9991,2.0508,2.1306,0.0,0.0,2.3165,2.3733,2.4026,2.4058,2.3816,2.3999,2.4401,2.4418,2.4452,2.4513,0.0,0.0,0.0,0.0,0.0,0.0,0.0,0.0,0.0,0.0,0.0,0.0,0.0,0.0,0.0,0.0,0.0,0.0,0.0,0.0,0.0,0.0,0.0,0.0,0.0,0.0,0.0,0.0,0.0,0.0,0.0,0.0,0.0,0.0,0.0,0.0,0.0,0.0,0.0,0.0,0.0,0.0,0.0,0.0,0.0,0.0,0.0,0.0,0.0,0.0,3.5085,3.5075,3.4504,3.3456,3.2427,3.2347,3.1495,3.0557,3.0409,2.9706,2.8806,2.794,2.6523,2.5417,2.5618,0.0,0.0,0.0,0.0,2.596,2.635,0.0,0.0,0.0,0.0,0.0,0.0,0.0,0.0,0.0,0.0,0.0,0.0,0.0,0.0,0.0,0.0,0.0,2.2818,2.2389,2.2191,2.2281,2.149,2.1053,2.0987,2.0496,2.0,1.9511,2.0005,2.015,2.0001,2.0144,2.044,2.0885,2.1242,0.0,2.2082,2.2597,2.2821,2.2878,2.3097,2.3188,2.3209,2.3249,2.3247,2.3329,0.0,0.0,0.0,0.0,0.0,0.0,0.0,0.0,0.0,0.0,0.0,0.0,0.0,0.0,0.0,0.0,0.0,0.0,0.0,0.0,0.0,0.0,0.0,0.0,0.0,0.0,0.0,0.0,0.0,0.0,0.0,0.0,0.0,0.0,0.0,0.0,0.0,0.0,0.0,0.0,0.0,0.0,0.0,0.0,0.0,0.0,0.0,0.0,0.0,0.0,3.5372,3.5538,3.4584,3.4091,3.3542,3.1848,3.1469,3.1355,3.0113,2.9315,2.8574,2.7467,2.5526,2.4035,2.454,2.355,0.0,0.0,0.0,2.4702,2.4829,0.0,0.0,0.0,0.0,0.0,0.0,0.0,0.0,0.0,0.0,0.0,0.0,0.0,0.0,0.0,0.0,0.0,2.1906,2.1543,2.1448,2.1686,2.083,2.0485,2.0745,1.9837,1.9511,1.9737,1.9871,1.9991,2.0093,2.0248,2.0308,2.0304,2.0369,0.0,0.0,2.1344,2.1586,2.1749,2.2179,2.2209,2.2038,2.2077,2.2099,2.2245,0.0,0.0,0.0,0.0,0.0,0.0,0.0,0.0,0.0,0.0,0.0,0.0,0.0,0.0,0.0,0.0,0.0,0.0,0.0,0.0,0.0,0.0,0.0,0.0,0.0,0.0,0.0,0.0,0.0,0.0,0.0,0.0,0.0,0.0,0.0,0.0,0.0,0.0,0.0,0.0,0.0,0.0,0.0,0.0,0.0,0.0,0.0,0.0,0.0,0.0,0.0,3.2188,3.2253,3.3257,3.3969,3.1576,0.0,0.0,3.0936,2.9368,2.7921,2.7558,2.4879,2.2709,2.4183,0.0,0.0,0.0,2.2916,2.2665,2.4106,2.4459,0.0,0.0,0.0,0.0,0.0,0.0,0.0,0.0,0.0,0.0,0.0,0.0,0.0,0.0,0.0,0.0,0.0,1.9914,1.9903,2.0697,2.0,2.0008,2.0862,2.0075,1.9737,1.9877,2.0021,2.0084,2.0093,2.0248,2.0308,2.0342,0.0,0.0,0.0,2.1358,2.163,2.1687,2.1552,2.1742,2.2084,2.2103,2.2141,2.2315,0.0,0.0,0.0,0.0,0.0,0.0,0.0,0.0,0.0,0.0,0.0,0.0,0.0,0.0,0.0,0.0,0.0,0.0,0.0,0.0,0.0,0.0,0.0,0.0,0.0,0.0,0.0,0.0,0.0,0.0,0.0,0.0,0.0,0.0,0.0,0.0,0.0,0.0,0.0,0.0,0.0,0.0,0.0,0.0,0.0,0.0,0.0,0.0,0.0,0.0,0.0,0.0,2.823,2.9543,0.0,0.0,3.0225,3.0411,3.0156,2.8946,2.7596,2.6843,2.4757,2.2898,2.2972,0.0,0.0,2.0816,2.0911,2.1132,2.1767,2.2521,2.3705,0.0,0.0,0.0,0.0,0.0,0.0,0.0,0.0,0.0,0.0,0.0,0.0,0.0,0.0,0.0,0.0,1.9118,1.9308,1.9867,1.963,1.9724,2.0164,1.987,1.9813,2.0021,2.0074,2.013,2.0218,2.0184,2.019,2.0182,0.0,0.0,0.0,2.0592,2.0557,2.0124,2.0607,2.0703,2.0603,2.0602,2.0611,2.0763,0.0,0.0,0.0,0.0,0.0,0.0,0.0,0.0,0.0,0.0,0.0,0.0,0.0,0.0,0.0,0.0,0.0,0.0,0.0,0.0,0.0,0.0,0.0,0.0,0.0,0.0,0.0,0.0,0.0,0.0,0.0,0.0,0.0,0.0,0.0,0.0,0.0,0.0,0.0,0.0,0.0,0.0,0.0,0.0,0.0,0.0,0.0,0.0,0.0,0.0,0.0,0.0,0.0,0.0,0.0,0.0,2.908,2.9642,2.9251,2.8594,2.7736,2.6504,2.4581,2.2828,0.0,0.0,1.935,1.8726,1.8956,1.9396,1.9838,2.0812,2.2052,0.0,0.0,0.0,0.0,0.0,0.0,0.0,0.0,0.0,0.0,0.0,0.0,0.0,0.0,0.0,0.0,1.8635,1.8901,1.9237,1.9372,1.9523,1.9701,1.9701,1.9824,2.0072,2.0055,2.0098,2.0205,2.0026,1.9948,1.9938,0.0,0.0,0.0,1.9877,1.9745,1.9206,1.9882,1.9944,1.9647,1.9601,1.9601,1.9726,0.0,0.0,0.0,0.0,0.0,0.0,0.0,0.0,0.0,0.0,0.0,0.0,0.0,0.0,0.0,0.0,0.0,0.0,0.0,0.0,0.0,0.0,0.0,0.0,0.0,0.0,0.0,0.0,0.0,0.0,0.0,0.0,0.0,0.0,0.0,0.0,0.0,0.0,0.0,0.0,0.0,0.0,0.0,0.0,0.0,0.0,0.0,0.0,0.0,0.0,0.0,0.0,0.0,0.0,0.0,0.0,2.8251,3.0141,2.8544,2.8442,2.8403,2.6793,2.4237,2.2066,0.0,0.0,1.6806,1.7714,1.7342,1.7279,1.8727,1.9307,2.024,2.2374,0.0,0.0,0.0,0.0,0.0,0.0,0.0,0.0,0.0,0.0,0.0,0.0,0.0,0.0,0.0,1.8432,1.856,1.8893,1.9151,1.9427,1.9695,1.9701,1.9803,2.0006,1.9925,1.9947,1.9998,1.9741,1.9613,0.0,0.0,0.0,0.0,1.9414,1.9506,1.9492,1.9511,1.9637,1.9775,1.9658,1.9592,1.9719,0.0,0.0,0.0,0.0,0.0,0.0,0.0,0.0,0.0,0.0,0.0,0.0,0.0,0.0,0.0,0.0,0.0,0.0,0.0,0.0,0.0,0.0,0.0,0.0,0.0,0.0,0.0,0.0,0.0,0.0,0.0,0.0,0.0,0.0,0.0,0.0,0.0,0.0,0.0,0.0,0.0,0.0,0.0,0.0,0.0,0.0,0.0,0.0,0.0,0.0,0.0,0.0,0.0,0.0,0.0,2.1233,2.4066,0.0,2.711,2.6513,2.5622,2.4885,2.28,2.0604,1.934,0.0,1.6425,1.6123,1.6017,1.6355,1.7558,1.7972,1.8838,2.1045,2.1418,0.0,0.0,0.0,0.0,0.0,0.0,0.0,0.0,0.0,0.0,0.0,0.0,0.0,0.0,1.8128,1.8385,1.8825,1.9092,1.9297,1.9425,1.956,1.9682,1.979,1.9728,1.9735,1.979,1.9477,0.0,0.0,0.0,0.0,0.0,1.9513,1.952,1.9369,1.9506,1.9572,1.9582,1.9501,1.9457,1.9483,0.0,0.0,0.0,0.0,0.0,0.0,0.0,0.0,0.0,0.0,0.0,0.0,0.0,0.0,0.0,0.0,0.0,0.0,0.0,0.0,0.0,0.0,0.0,0.0,0.0,0.0,0.0,0.0,0.0,0.0,0.0,0.0,0.0,0.0,0.0,0.0,0.0,0.0,0.0,0.0,0.0,0.0,1.3863,0.0,0.0,0.0,0.0,0.0,0.0,0.0,0.0,0.0,0.0,0.0,0.0,0.0,2.0389,2.27,0.0,2.4431,2.3785,2.2906,2.1155,0.0,0.0,0.0,1.5296,1.4597,1.4937,1.5617,1.6379,1.7004,1.7999,1.9863,2.029,0.0,0.0,0.0,0.0,0.0,0.0,0.0,0.0,0.0,0.0,0.0,0.0,0.0,0.0,0.0,1.8381,1.8686,1.8958,1.9123,1.9225,1.9405,1.9481,1.9465,1.9457,1.9476,1.9496,1.9196,0.0,0.0,0.0,0.0,0.0,1.9585,1.9573,1.9361,1.9559,1.9597,1.9513,1.9409,1.9367,1.9344,0.0,0.0,0.0,0.0,0.0,0.0,0.0,0.0,0.0,0.0,0.0,0.0,0.0,0.0,0.0,0.0,0.0,0.0,0.0,0.0,0.0,0.0,0.0,0.0,0.0,0.0,0.0,0.0,0.7503,0.4981,0.2624,0.0,0.0,0.0,0.0,0.0,0.0,0.0,0.0,0.0,0.0,0.0,0.0,0.0,0.0,0.0,0.0,0.0,0.0,0.0,0.0,0.0,0.0,0.0,0.0,0.0,0.0,0.0,0.0,0.0,0.0,0.0,0.0,0.0,0.0,0.0,0.0,0.0,1.4168,1.5084,1.5411,1.6402,1.7569,1.8868,1.9668,0.0,0.0,0.0,0.0,0.0,0.0,0.0,0.0,0.0,0.0,0.0,0.0,0.0,0.0,0.0,1.8475,1.8495,1.8744,1.8957,1.9078,1.9222,1.9227,1.9099,1.9142,1.9174,1.917,1.8896,0.0,0.0,0.0,0.0,0.0,1.9606,1.9619,1.9411,1.9599,1.9636,1.9541,1.935,1.9287,1.9251,0.0,0.0,0.0,0.0,0.0,0.0,0.0,0.0,0.0,0.0,0.0,0.0,0.0,0.0,0.0,0.0,0.0,0.0,0.0,0.0,0.0,0.0,0.0,0.0,0.0,0.0,0.0,1.0795,0.8207,0.5664,0.3152,0.078,0.0,0.0,0.0,0.0,0.0,0.0,0.0,0.0,0.0,0.0,0.0,0.0,0.0,0.0,1.1356,1.1308,0.0,0.0,0.0,0.0,0.0,0.0,0.0,0.0,1.6254,1.7437,1.7873,0.0,1.9273,1.8031,0.0,0.0,0.0,0.0,0.0,0.0,0.0,0.0,0.0,0.0,0.0,0.0,0.0,0.0,0.0,0.0,0.0,0.0,0.0,0.0,0.0,0.0,0.0,0.0,0.0,0.0,0.0,0.0,1.8262,1.8422,1.8688,1.887,1.8957,1.9125,1.9176,1.9112,1.9008,1.8973,1.8955,1.8688,0.0,0.0,0.0,0.0,1.9402,1.9526,1.946,1.9331,1.9438,1.9372,1.9212,1.9168,1.9102,1.907,0.0,0.0,0.0,0.0,0.0,0.0,0.0,0.0,0.0,0.0,0.0,0.0,0.0,0.0,0.0,0.0,0.0,0.0,0.0,0.0,0.0,0.0,0.0,0.0,0.0,0.0,0.0,0.0,0.0,0.6491,0.0,0.0,0.0,0.0,0.0,0.0,0.0,0.0,0.0,0.0,1.1724,0.0,0.0,0.0,0.0,0.0,1.1406,1.1341,0.0,1.1217,1.1493,1.1823,0.0,0.0,0.0,0.0,1.5268,1.6315,1.6692,1.7303,1.7597,1.6746,1.5837,1.4918,0.0,0.0,0.0,0.0,0.0,0.0,0.0,0.0,0.0,0.0,0.0,0.0,0.0,0.0,0.0,0.0,0.0,0.0,0.0,0.0,0.0,0.0,0.0,0.0,0.0,0.0,1.8341,1.844,1.877,1.8923,1.8904,1.9069,1.9052,1.8878,1.8852,1.8825,1.8762,1.8677,0.0,0.0,0.0,0.0,1.9453,1.9452,1.9342,1.9166,1.9172,1.9123,1.9042,1.8993,1.8949,1.8931,0.0,0.0,0.0,0.0,0.0,0.0,0.0,0.0,0.0,0.0,0.0,0.0,0.0,0.0,0.0,0.0,0.0,0.0,0.0,0.0,0.0,0.0,0.0,0.0,0.0,0.0,0.0,0.0,0.0,0.0,0.0,0.0,0.0,0.0,0.0,0.0,0.0,0.0,0.0,0.0,1.1677,0.0,0.0,0.0,0.0,0.0,0.0,0.0,0.0,1.1884,1.231,1.2618,1.2264,0.0,0.0,0.0,0.0,0.0,1.6584,1.7197,1.7364,1.65,1.5678,1.4963,0.0,0.0,0.0,0.0,0.0,0.0,0.0,0.0,0.0,0.0,0.0,0.0,0.0,0.0,0.0,0.0,0.0,0.0,0.0,0.0,0.0,0.0,0.0,0.0,0.0,0.0,0.0,1.8495,1.8852,1.9009,1.8922,1.9035,1.8958,1.8688,1.8752,1.8733,1.8631,1.8732,1.8913,0.0,0.0,0.0,1.9427,1.9357,1.92,1.8992,1.894,1.8905,1.8896,1.8843,1.8834,1.8816,0.0,0.0,0.0,0.0,0.0,0.0,0.0,0.0,0.0,0.0,0.0,0.0,0.0,0.0,0.0,0.0,0.0,0.0,0.0,0.0,0.0,0.0,0.0,0.0,0.0,0.0,0.0,0.0,0.0,0.0,0.5198,0.2362,0.1224,0.0,0.0,0.0,0.0,0.828,0.9604,1.0969,1.1195,0.0,0.0,0.0,0.0,0.0,0.0,0.0,0.0,1.2123,1.2491,1.3016,1.2446,0.0,0.0,0.0,0.0,0.0,1.7282,1.8572,1.9224,1.7145,1.5868,1.4963,0.0,0.0,0.0,0.0,0.0,0.0,0.0,0.0,0.0,0.0,0.0,0.0,0.0,0.0,0.0,0.0,0.0,0.0,0.0,0.0,0.0,0.0,0.0,0.0,0.0,0.0,0.0,1.8485,1.8732,1.8914,1.907,1.9087,1.907,1.9027,1.887,1.8788,1.8769,1.8601,1.8744,0.0,0.0,1.924,1.9534,1.9193,1.9041,1.9,1.8922,1.8725,1.8524,1.8798,1.8752,1.8563,0.0,0.0,0.0,0.0,0.0,0.0,0.0,0.0,0.0,0.0,0.0,0.0,0.0,0.0,0.0,0.0,0.0,0.0,0.0,0.0,0.0,0.0,0.0,0.0,0.0,0.0,0.0,0.0,0.0,0.9558,0.6355,0.3757,0.2657,0.2971,0.0,0.0,0.0,0.847,0.9496,1.0789,0.0,0.0,0.0,0.0,0.0,0.0,0.0,0.0,0.0,0.0,1.3576,1.3836,1.3443,0.0,0.0,0.0,0.0,0.0,1.7397,1.8558,1.9412,1.8658,1.801,0.0,0.0,0.0,0.0,0.0,0.0,0.0,0.0,0.0,0.0,0.0,0.0,0.0,0.0,0.0,0.0,0.0,0.0,0.0,0.0,0.0,0.0,0.0,0.0,0.0,0.0,0.0,0.0,0.0,1.8395,1.8698,1.8932,1.9045,1.907,1.8983,1.887,1.8769,1.8696,1.8668,1.8798,1.9048,0.0,1.9309,1.9536,1.9343,1.918,1.9053,1.9028,1.8903,1.8788,1.887,1.9074,1.9288,0.0,0.0,0.0,0.0,0.0,0.0,0.0,0.0,0.0,0.0,0.0,0.0,0.0,0.0,0.0,0.0,0.0,0.0,0.0,0.0,0.0,0.0,0.0,0.0,0.0,0.0,0.0,1.4783,1.332,1.073,0.7169,0.5243,0.451,0.0,0.0,0.0,0.0,0.878,0.9533,1.0571,0.0,0.0,0.0,0.0,0.0,0.0,0.0,0.0,0.0,0.0,0.0,0.0,0.0,0.0,0.0,1.4721,1.578,1.7032,1.7664,1.879,1.9831,2.0017,0.0,0.0,0.0,0.0,0.0,0.0,0.0,0.0,0.0,0.0,0.0,0.0,0.0,0.0,0.0,0.0,0.0,0.0,0.0,0.0,0.0,0.0,0.0,0.0,0.0,0.0,0.0,0.0,0.0,0.0,1.7799,1.8216,1.8384,1.8833,1.9018,1.8957,1.887,1.8779,1.867,1.8752,1.8852,1.8989,1.9188,1.9354,1.9499,1.9499,1.9378,1.9217,1.9217,1.9188,1.9119,1.8852,1.9279,1.9976,0.0,0.0,0.0,0.0,0.0,0.0,0.0,0.0,0.0,0.0,0.0,0.0,0.0,0.0,0.0,0.0,0.0,0.0,0.0,0.0,0.0,0.0,0.0,0.0,0.0,1.9194,1.7961,1.471,1.3484,1.0923,0.7182,0.67,0.6781,0.7368,0.0,0.0,0.0,0.9246,0.9544,0.997,1.0202,0.0,0.0,0.0,0.0,0.0,0.0,0.0,0.0,0.0,0.0,0.0,0.0,0.0,1.55,1.5596,1.6473,1.7644,1.8555,2.0267,2.1542,2.0527,0.0,0.0,0.0,0.0,0.0,0.0,0.0,0.0,0.0,0.0,0.0,0.0,0.0,0.0,0.0,0.0,0.0,0.0,0.0,0.0,0.0,0.0,0.0,0.0,0.0,0.0,0.0,0.0,0.0,0.0,0.0,1.7291,1.714,1.8324,1.8974,1.9078,1.8957,1.8887,1.8878,1.8825,1.8843,1.8922,1.9109,1.9312,1.9499,1.9499,1.9528,1.9556,1.9556,1.9455,1.9211,1.8578,1.9059,1.9937,0.0,0.0,0.0,0.0,0.0,0.0,0.0,0.0,0.0,0.0,0.0,0.0,0.0,0.0,0.0,0.0,0.0,0.0,0.0,0.0,0.0,0.0,0.0,2.1146,2.0538,2.0204,1.8676,1.5939,1.3702,1.1438,0.924,0.9034,0.0,0.0,0.0,0.0,0.0,0.9336,0.9461,0.9733,0.994,1.0455,0.0,0.0,0.0,0.0,0.0,0.0,0.0,0.0,1.5073,1.5518,1.573,1.6049,1.6309,1.6123,1.6891,1.7889,1.8242,1.9829,2.1265,2.0832,0.0,0.0,0.0,0.0,0.0,0.0,0.0,0.0,0.0,0.0,0.0,0.0,0.0,0.0,0.0,0.0,0.0,0.0,0.0,0.0,0.0,0.0,0.0,0.0,0.0,0.0,0.0,0.0,0.0,0.0,0.0,1.5755,1.5504,1.6978,1.7834,1.8055,1.8662,1.894,1.8904,1.8825,1.8592,1.8255,1.8909,1.9077,1.8938,1.9556,2.0164,2.0765,2.1181,2.1198,2.0907,2.0327,2.0608,2.1249,0.0,0.0,0.0,0.0,0.0,0.0,0.0,0.0,0.0,0.0,0.0,0.0,0.0,0.0,0.0,0.0,0.0,0.0,0.0,0.0,0.0,0.0,0.0,2.0419,2.0909,1.9879,1.8613,1.718,1.4245,1.252,1.1931,0.0,0.0,0.0,0.0,0.0,0.0,0.0,0.9495,0.9639,0.9778,1.0278,0.0,0.0,0.0,0.0,0.0,0.0,0.0,0.0,1.5263,1.6003,1.6269,1.6591,1.6892,1.7051,1.7652,1.8398,1.8881,2.0223,2.1474,0.0,0.0,0.0,0.0,0.0,0.0,0.0,0.0,0.0,0.0,0.0,0.0,0.0,0.0,0.0,0.0,0.0,0.0,0.0,0.0,0.0,0.0,0.0,0.0,0.0,0.0,0.0,0.0,0.0,0.0,0.0,0.0,0.0,1.4327,1.5707,1.6655,1.7185,1.8154,1.874,1.8947,1.8644,1.8376,1.8133,1.8645,1.8829,1.8844,1.9658,2.0587,2.1525,2.2196,2.2256,2.1874,2.1352,2.1529,2.1989,0.0,0.0,0.0,0.0,0.0,0.0,0.0,0.0,0.0,0.0,0.0,0.0,0.0,0.0,0.0,0.0,0.0,0.0,0.0,0.0,0.0,0.0,0.0,1.8348,1.9198,1.7909,1.7531,1.817,1.5177,1.4209,1.508,1.3284,0.0,0.0,0.0,0.0,0.0,0.0,0.9706,0.9706,0.9706,1.0101,1.0758,0.0,0.0,0.0,0.0,0.0,0.0,0.0,1.4869,1.5698,1.6303,1.6748,1.7266,1.8463,1.8857,1.9267,2.077,2.1828,0.0,0.0,0.0,0.0,0.0,0.0,0.0,0.0,0.0,0.0,0.0,0.0,0.0,0.0,0.0,0.0,0.0,0.0,0.0,0.0,0.0,0.0,0.0,0.0,0.0,0.0,0.0,0.0,0.0,0.0,0.0,0.0,0.0,0.0,1.367,1.46,1.5607,1.668,1.7427,1.8248,1.9063,1.8268,1.821,1.8744,1.8294,1.8587,1.9427,1.9849,2.0649,2.1677,2.2341,2.23,2.1766,2.1289,2.1469,2.1831,0.0,0.0,0.0,0.0,0.0,0.0,0.0,0.0,0.0,0.0,0.0,0.0,0.0,0.0,0.0,0.0,0.0,0.0,0.0,0.0,0.0,0.0,0.0,0.0,0.0,0.0,1.7943,1.5882,1.5607,1.5446,0.0,0.0,0.0,1.2638,0.0,0.0,0.0,0.0,1.0474,1.0049,1.0208,1.0436,1.0758,0.0,0.0,0.0,0.0,0.0,0.0,0.0,0.0,0.0,1.5894,1.7579,1.9203,1.8623,1.9601,2.0774,2.0393,2.1613,0.0,0.0,0.0,0.0,0.0,0.0,0.0,0.0,0.0,0.0,0.0,0.0,0.0,0.0,0.0,0.0,0.0,0.0,0.0,0.0,0.0,0.0,0.0,0.0,0.0,0.0,0.0,0.0,0.0,0.0,0.0,0.0,0.0,0.0,1.1803,1.286,1.3698,1.4328,1.5496,1.6746,1.8044,1.7995,1.7666,1.7146,1.781,1.8269,1.8696,2.0473,2.1377,2.1809,2.3195,2.3403,2.2929,2.2923,2.2794,2.2484,0.0,0.0,0.0,0.0,0.0,0.0,0.0,0.0,0.0,0.0,0.0,0.0,0.0,0.0,0.0,0.0,0.0,0.0,0.0,0.0,0.0,0.0,0.0,0.0,0.0,1.8449,1.7809,0.0,0.0,0.0,0.0,0.0,0.0,1.2901,0.0,1.1194,0.0,0.0,1.0481,1.0122,1.0192,1.0303,1.0519,0.0,0.0,0.0,0.0,0.0,0.0,0.0,0.0,0.0,1.6044,1.7916,1.9886,1.9839,2.1035,2.2424,2.2658,0.0,0.0,0.0,0.0,0.0,0.0,0.0,0.0,0.0,0.0,0.0,0.0,0.0,0.0,0.0,0.0,0.0,0.0,0.0,0.0,0.0,0.0,0.0,0.0,0.0,0.0,0.0,0.0,0.0,0.0,0.0,0.0,0.0,0.0,0.0,1.1368,1.1775,1.24,1.3271,1.4242,1.5301,1.6411,1.678,1.6913,1.698,1.8115,1.8745,1.909,2.0847,2.1613,2.1826,2.3515,2.361,2.2851,2.3178,2.2625,2.1584,0.0,0.0,0.0,0.0,0.0,0.0,0.0,0.0,0.0,0.0,0.8571,0.0,0.0,0.0,0.0,0.0,0.0,0.0,0.0,0.0,0.0,0.0,0.0,0.0,0.0,0.0,0.0,0.0,0.0,0.0,0.0,0.0,1.4633,1.3051,0.0,1.0772,0.0,1.011,1.0114,1.0113,0.996,0.9996,1.0191,1.0748,0.0,0.0,0.0,0.0,0.0,0.0,0.0,0.0,1.6394,1.7937,1.9836,2.1566,2.2842,2.416,0.0,0.0,0.0,0.0,0.0,0.0,0.0,0.0,0.0,0.0,0.0,0.0,0.0,0.0,0.0,0.0,0.0,0.0,0.0,0.0,0.0,0.0,0.0,0.0,0.0,0.0,0.0,0.0,0.0,0.0,0.0,0.0,0.0,0.0,0.0,0.0,1.1911,1.1294,1.1683,0.0,1.343,1.3897,1.4444,1.5096,1.6212,1.7696,1.8879,1.9631,2.0046,2.0914,2.1346,2.1617,2.3199,2.2958,2.1793,2.2277,2.1331,1.9697,0.0,0.0,0.0,0.0,0.0,0.0,0.0,0.0,0.0,0.0,0.0,0.0,0.0,0.0,0.0,0.0,0.0,0.0,0.0,0.0,0.0,0.0,0.0,0.0,0.0,0.0,0.0,0.0,0.0,0.0,0.0,0.0,0.0,1.3063,0.0,1.1314,0.0,1.1007,1.1084,1.0922,1.0682,1.053,1.0415,1.0571,1.0978,0.0,0.0,0.0,0.0,0.0,0.0,0.0,1.5495,1.831,2.1251,2.1593,2.3692,2.5984,0.0,0.0,0.0,0.0,0.0,0.0,0.0,0.0,0.0,0.0,0.0,0.0,0.0,0.0,0.0,0.0,0.0,0.0,0.0,0.0,0.0,0.0,0.0,0.0,0.0,0.0,0.0,0.0,0.0,0.0,0.0,0.0,0.0,0.0,0.0,1.2169,1.2144,1.1733,1.1749,0.0,1.2111,1.2441,1.3175,1.5184,1.6475,1.7234,1.8751,1.9251,1.9066,1.993,2.0329,2.0431,2.132,2.1184,2.0504,2.0621,1.9961,1.8845,0.0,0.0,0.0,0.0,0.0,0.0,0.0,0.0,0.0,0.0,0.0,0.0,0.0,0.0,0.0,0.0,0.0,0.0,0.0,0.0,0.0,0.0,0.0,0.0,0.0,0.0,0.0,0.0,0.0,0.0,0.0,0.0,0.0,1.3765,0.0,1.1881,1.1338,1.1374,1.1344,1.1218,1.1005,1.0692,1.0402,1.0696,1.0807,1.0894,1.178,0.0,0.0,0.0,0.0,0.0,0.0,0.0,2.0906,2.1957,2.4275,2.67,0.0,0.0,0.0,0.0,0.0,0.0,0.0,0.0,0.0,0.0,0.0,0.0,0.0,0.0,0.0,0.0,0.0,0.0,0.0,0.0,0.0,0.0,0.0,0.0,0.0,0.0,0.0,0.0,0.0,0.0,0.0,0.0,0.0,0.0,1.2632,1.2372,1.2202,1.1635,1.1486,1.1694,1.1363,1.1815,1.2969,1.5171,1.6438,1.7002,1.8643,1.9074,1.8657,1.9403,1.9418,1.9086,2.0056,1.9505,1.824,1.8569,1.7513,1.5739,0.0,0.0,0.0,0.0,0.0,0.0,0.0,0.0,0.0,0.0,0.0,0.0,0.0,0.0,0.0,0.0,0.0,0.0,0.0,0.0,0.0,0.0,0.0,0.0,0.0,0.0,0.0,0.0,0.0,0.0,0.0,0.0,0.0,1.4639,0.0,0.0,1.1877,1.1618,1.1481,1.1447,1.1315,1.0915,1.0504,1.1012,1.0829,1.048,1.1805,1.2108,1.1931,1.2585,0.0,0.0,0.0,0.0,1.9705,2.1888,2.4311,2.6741,0.0,0.0,0.0,0.0,0.0,0.0,0.0,0.0,0.0,0.0,0.0,0.0,0.0,0.0,0.0,0.0,0.0,0.0,0.0,0.0,0.0,0.0,0.0,0.0,0.0,0.0,0.0,0.0,0.0,0.0,0.0,0.0,1.3232,1.3124,1.2785,1.2544,1.2372,1.1678,1.1406,1.153,1.0921,1.1341,1.2636,1.4508,1.5817,1.6686,1.819,1.8587,1.8236,1.8739,1.8409,1.7688,1.8545,1.7553,1.5678,1.6015,1.4482,1.2201,0.0,0.0,0.0,0.0,0.0,0.0,0.0,0.0,0.0,0.0,0.0,0.0,0.0,0.0,0.0,0.0,0.0,0.0,0.0,0.0,0.0,0.0,0.0,0.0,0.0,0.0,0.0,0.0,0.0,0.0,0.0,0.0,0.0,0.0,0.0,0.0,0.0,1.2209,1.227,1.2175,1.2248,1.1954,1.1403,1.1237,1.1177,1.1174,1.1395,1.1695,1.199,1.2108,1.238,0.0,0.0,0.0,1.8305,2.013,2.3088,2.6246,0.0,0.0,0.0,0.0,0.0,0.0,0.0,0.0,0.0,0.0,0.0,0.0,0.0,0.0,0.0,0.0,0.0,0.0,0.0,0.0,0.0,0.0,0.0,0.0,0.0,0.0,0.0,0.0,0.0,0.0,0.0,1.3665,1.3497,1.3198,1.3129,1.3094,1.3064,1.2791,1.2323,1.1655,1.0553,1.0191,1.0558,1.2026,1.3862,1.5889,1.6651,1.694,1.6952,1.7022,1.6809,1.634,1.5458,1.4601,1.3687,1.2333,1.1289,1.0363,0.0,0.0,0.0,0.0,0.0,0.0,0.0,0.0,0.0,0.0,0.0,0.0,0.0,0.0,0.0,0.0,0.0,0.0,0.0,0.0,0.0,0.0,0.0,0.0,0.0,0.0,0.0,0.0,0.0,0.0,0.0,2.2105,1.9814,0.0,0.0,0.0,0.0,0.0,0.0,1.306,1.3423,1.3059,0.0,0.0,0.0,0.0,1.2139,1.195,1.1603,1.1898,1.186,1.1774,1.2405,0.0,0.0,0.0,0.0,0.0,0.0,0.0,0.0,0.0,0.0,0.0,0.0,0.0,0.0,0.0,0.0,0.0,0.0,0.0,0.0,0.0,0.0,0.0,0.0,0.0,0.0,0.0,0.0,0.0,0.0,0.0,0.0,0.0,0.0,0.0,1.4399,1.4022,1.3665,1.3323,1.303,1.2714,1.2421,1.2148,1.1669,1.0959,0.9855,0.9539,0.9959,1.058,1.2206,1.4586,1.5566,1.5814,1.554,1.5927,1.5444,1.4398,1.3662,1.243,1.0915,0.9965,0.8883,0.785,0.0,0.0,0.0,0.0,0.0,0.0,0.0,0.0,0.0,0.0,0.0,0.0,0.0,0.0,0.0,0.0,0.0,0.0,0.0,0.0,0.0,0.0,0.0,0.0,0.0,0.0,0.0,0.0,0.0,0.0,2.4976,2.3948,2.239,0.0,1.8706,0.0,0.0,0.0,0.0,0.0,0.0,0.0,0.0,0.0,0.0,0.0,0.0,1.2594,1.1708,1.2028,1.1677,1.1175,1.1567,0.0,0.0,0.0,0.0,0.0,0.0,0.0,0.0,0.0,0.0,0.0,0.0,0.0,0.0,0.0,0.0,0.0,0.0,0.0,0.0,0.0,0.0,0.0,0.0,0.0,0.0,0.0,0.0,0.0,0.0,0.0,0.0,0.0,0.0,0.0,1.5049,1.4538,1.4035,1.3531,1.3109,1.2653,1.2161,1.1591,1.0988,1.0391,0.9422,0.9174,0.9536,0.9507,1.0585,1.2535,1.3834,1.4262,1.4029,1.428,1.3546,1.219,1.1519,1.0029,0.8196,0.7653,0.6638,0.5562,0.0,0.0,0.0,0.0,0.0,0.0,0.0,0.0,0.0,0.0,0.0,0.0,0.0,0.0,0.0,1.1048,1.023,0.9095,0.7596,0.7149,0.7481,0.0,0.0,0.0,0.0,0.0,0.0,0.0,0.0,0.0,2.5816,2.4543,2.3316,2.2098,2.0293,1.7831,1.5131,0.0,0.0,0.0,0.0,0.0,0.0,0.0,0.0,0.0,0.0,0.0,0.0,0.0,0.0,0.0,0.0,0.0,0.0,0.0,0.0,0.0,0.0,0.0,0.0,0.0,0.0,0.0,0.0,0.0,0.0,0.0,0.0,0.0,0.0,0.0,0.0,0.0,0.0,0.0,0.0,0.0,0.0,0.0,0.0,0.0,0.0,0.0,0.0,0.0,0.0,0.0,1.5418,1.5286,1.4817,1.3901,1.3719,1.3484,1.3126,1.1911,1.0993,1.0386,0.9582,0.9069,0.8851,0.8721,0.8912,0.9412,1.0828,1.1798,1.2355,1.1435,1.0619,0.9818,0.8206,0.6909,0.5854,0.4955,0.4351,0.4025,0.0,0.0,0.0,0.0,0.0,0.0,0.0,0.0,0.0,0.0,0.0,0.0,0.0,0.0,1.2019,1.1732,1.0746,0.9487,0.8042,0.7736,0.7982,0.8865,0.0,1.367,1.6601,0.0,0.0,0.0,0.0,2.4521,2.4223,2.3853,2.2982,2.169,2.1048,1.9714,1.8031,1.9107,0.0,0.0,0.0,0.0,0.0,0.0,0.0,0.0,0.0,0.0,0.0,0.0,0.0,0.0,0.0,0.0,0.0,0.0,0.0,0.0,0.0,0.0,0.0,0.0,0.0,0.0,0.0,0.0,0.0,0.0,0.0,0.0,0.0,0.0,0.0,0.0,0.0,0.0,0.0,0.0,0.0,0.0,0.0,0.0,0.0,0.0,0.0,0.0,0.0,0.0,1.6391,1.597,1.5374,1.4573,1.3987,1.3302,1.249,1.1441,1.0945,1.0969,1.0118,0.9622,0.9428,0.8909,0.871,0.8782,0.8859,0.9476,1.0403,0.996,0.928,0.8416,0.7417,0.6319,0.5216,0.4709,0.4202,0.3763,0.0,0.0,0.0,0.0,0.0,0.0,0.0,0.0,0.0,0.0,0.0,0.0,0.0,0.0,1.2381,1.1966,1.0982,0.9888,0.8816,0.8308,0.835,0.8956,1.0664,1.2923,1.5779,1.836,0.0,0.0,0.0,0.0,0.0,0.0,2.2125,2.0972,2.1159,2.0506,0.0,0.0,0.0,1.8485,0.0,0.0,1.7833,0.0,0.0,0.0,0.0,0.0,0.0,0.0,0.0,0.0,0.0,0.0,0.0,0.0,0.0,0.0,0.0,0.0,0.0,0.0,0.0,0.0,0.0,0.0,0.0,0.0,0.0,0.0,0.0,0.0,0.0,0.0,0.0,0.0,0.0,0.0,0.0,0.0,0.0,0.0,0.0,0.0,0.0,0.0,0.0,0.0,1.7088,1.6649,1.5972,1.5049,1.418,1.3289,1.2478,1.1711,1.1296,1.1217,1.069,1.02,0.9744,0.9031,0.8634,0.8493,0.7753,0.7956,0.8773,0.846,0.7869,0.7138,0.6503,0.5561,0.4512,0.4278,0.3967,0.3668,0.0,0.0,0.0,0.0,0.0,0.0,0.0,0.0,0.0,0.0,0.0,0.0,0.0,0.0,0.0,1.1689,1.097,1.0352,0.9871,0.8862,0.8517,0.9026,0.9799,1.1531,1.4247,1.6148,0.0,0.0,0.0,0.0,0.0,0.0,2.0848,0.0,2.0634,2.0076,1.8845,0.0,1.9457,1.7808,0.0,1.9579,1.8822,0.0,0.0,0.0,1.8532,1.7652,0.0,0.0,0.0,0.0,0.0,0.0,0.0,0.0,0.0,0.0,0.0,0.0,0.0,0.0,0.0,0.0,0.0,0.0,0.0,0.0,0.0,0.0,0.0,0.0,0.0,0.0,0.0,0.0,0.0,0.0,0.0,0.0,0.0,0.0,0.0,0.0,0.0,0.0,0.0,1.7941,1.7454,1.7283,1.6616,1.536,1.4312,1.3585,1.3216,1.2819,1.213,1.1143,1.1275,1.0775,0.9724,0.9058,0.8635,0.8365,0.7492,0.7298,0.7535,0.6867,0.6351,0.5921,0.5266,0.4455,0.3611,0.3493,0.3531,0.3625,0.0,0.0,0.0,0.0,0.0,0.0,0.0,0.0,0.0,0.0,0.0,0.0,0.0,0.0,0.0,1.2142,1.1819,1.1322,1.0563,1.0254,1.0078,1.0091,1.0766,1.2188,1.4471,1.6453,0.0,0.0,0.0,0.0,0.0,0.0,0.0,0.0,1.9816,1.9856,2.0182,2.0573,0.0,0.0,1.9859,2.0114,0.0,0.0,0.0,0.0,0.0,1.7268,0.0,0.0,1.5843,1.5807,0.0,0.0,0.0,0.0,0.0,0.0,1.7406,0.0,0.0,0.0,0.0,0.0,0.0,0.0,0.0,0.0,0.0,0.0,0.0,0.0,0.0,0.0,0.0,0.0,0.0,0.0,0.0,0.0,0.0,0.0,0.0,0.0,0.0,0.0,1.9638,1.9042,1.8245,1.7568,1.678,1.5835,1.5197,1.4489,1.3706,1.3488,1.2987,1.2183,1.2218,1.1728,1.0772,1.0241,0.9564,0.8787,0.7969,0.7433,0.7121,0.6594,0.6121,0.5679,0.5399,0.4917,0.4408,0.4519,0.4426,0.4252,0.0,0.0,0.0,0.0,0.0,0.0,0.0,0.0,0.0,0.0,0.0,0.0,0.0,0.0,0.0,0.0,1.2182,1.1864,1.1382,1.1055,1.0836,1.0724,1.1087,1.2074,1.3775,1.5389,0.0,0.0,0.0,0.0,0.0,0.0,0.0,0.0,0.0,0.0,0.0,0.0,0.0,0.0,2.11,0.0,0.0,2.052,1.9963,0.0,0.0,0.0,1.7315,1.7082,1.6755,0.0,0.0,0.0,0.0,0.0,0.0,0.0,0.0,0.0,0.0,0.0,0.0,0.0,2.3683,2.454,0.0,0.0,0.0,0.0,0.0,0.0,0.0,0.0,0.0,0.0,0.0,0.0,0.0,0.0,0.0,0.0,0.0,0.0,0.0,0.0,2.0735,2.0055,1.8901,1.8091,1.7213,1.6198,1.5593,1.4894,1.4078,1.3818,1.3301,1.2514,1.2436,1.1969,1.118,1.0595,1.0007,0.936,0.8476,0.7853,0.7418,0.6829,0.6237,0.5671,0.5533,0.5265,0.494,0.4805,0.4899,0.5025,0.0,0.0,0.0,0.0,0.0,0.0,0.0,0.0,0.0,0.0,0.0,0.0,0.0,0.0,0.0,0.0,1.2182,1.2097,1.2173,1.1615,0.0,1.1229,1.1291,1.1842,1.2929,1.4029,0.0,0.0,0.0,0.0,0.0,0.0,0.0,0.0,0.0,0.0,0.0,0.0,0.0,2.2083,2.2604,2.2452,0.0,0.0,2.1899,0.0,2.1068,1.9809,1.8204,1.8417,1.7554,0.0,0.0,0.0,0.0,0.0,1.4833,0.0,0.0,0.0,0.0,0.0,0.0,0.0,2.2795,2.3971,2.4861,0.0,0.0,0.0,0.0,0.0,0.0,0.0,0.0,0.0,0.0,0.0,0.0,0.0,0.0,0.0,0.0,0.0,2.3156,2.2,2.1643,2.089,1.9539,1.8788,1.7821,1.6584,1.581,1.5075,1.4319,1.3947,1.3336,1.2488,1.2312,1.1913,1.1326,1.0676,1.0275,1.0067,0.906,0.8462,0.8121,0.7375,0.6611,0.5905,0.5743,0.555,0.5312,0.4795,0.5151,0.5813,0.0,0.0,0.0,0.0,0.0,0.0,0.0,0.0,0.0,0.0,0.0,0.0,0.0,0.0,0.0,0.0,0.0,1.2217,0.0,0.0,1.2795,1.2634,1.3144,1.3738,1.4453,1.5739,0.0,0.0,0.0,0.0,0.0,0.0,0.0,0.0,0.0,0.0,0.0,0.0,0.0,2.4062,2.2323,0.0,2.3603,2.262,2.2156,2.1911,2.1594,2.0492,1.8992,0.0,1.707,1.6894,0.0,0.0,0.0,0.0,0.0,0.0,0.0,0.0,0.0,0.0,0.0,0.0,2.1317,2.2421,2.3324,0.0,0.0,0.0,0.0,0.0,0.0,0.0,0.0,0.0,0.0,0.0,0.0,0.0,0.0,0.0,0.0,0.0,2.4155,2.3217,2.2068,2.1149,2.0544,1.9499,1.8481,1.7484,1.6632,1.5622,1.4467,1.4273,1.3809,1.3035,1.2998,1.2725,1.2236,1.2095,1.1575,1.0753,0.986,0.917,0.8592,0.7812,0.7166,0.6658,0.6352,0.606,0.5789,0.5833,0.5903,0.5971,0.0,0.0,0.0,0.0,0.0,0.0,0.0,0.0,0.0,0.0,0.0,0.0,0.0,0.0,0.0,0.0,0.0,0.0,0.0,0.0,1.3599,1.3507,1.399,1.451,1.504,1.6061,0.0,0.0,0.0,0.0,0.0,0.0,0.0,0.0,0.0,0.0,0.0,0.0,2.4202,2.4985,2.3492,0.0,2.3888,2.2884,2.2322,2.1959,2.122,2.0136,1.8836,1.735,1.6884,0.0,0.0,1.6516,1.6383,0.0,1.6363,1.6327,0.0,0.0,0.0,1.6005,0.0,0.0,0.0,2.1181,2.2342,0.0,0.0,0.0,0.0,0.0,0.0,0.0,0.0,0.0,0.0,0.0,0.0,0.0,0.0,0.0,0.0,0.0,2.4817,2.416,2.3134,2.2208,2.1443,2.0557,1.9378,1.7802,1.7121,1.617,1.4801,1.4481,1.401,1.3429,1.3082,1.2773,1.2549,1.2383,1.1843,1.1001,1.0162,0.9414,0.8736,0.794,0.7535,0.7393,0.6897,0.658,0.6416,0.651,0.6662,0.6786,0.0,0.0,0.0,0.0,0.0,0.0,0.0,0.0,0.0,0.0,0.0,0.0,0.0,0.0,0.0,0.0,0.0,0.0,0.0,0.0,0.0,0.0,1.4873,1.526,1.5537,1.6358,1.734,0.0,0.0,0.0,0.0,0.0,0.0,0.0,0.0,0.0,0.0,0.0,0.0,2.5694,0.0,2.4472,2.4002,2.3336,2.2669,2.1937,2.0692,1.9669,1.8687,1.7587,0.0,1.6968,1.698,1.6616,0.0,0.0,0.0,0.0,0.0,0.0,0.0,0.0,0.0,1.7061,0.0,0.0,0.0,2.239,0.0,0.0,0.0,0.0,0.0,0.0,0.0,0.0,0.0,0.0,0.0,0.0,0.0,0.0,0.0,0.0,2.5224,2.4797,2.4155,2.3339,2.2311,2.1559,2.0254,1.8289,1.7591,1.6637,1.5339,1.4648,1.4108,1.3698,1.3022,1.2708,1.2708,1.2437,1.1949,1.1274,1.0454,0.9696,0.8972,0.8133,0.7927,0.805,0.7379,0.7077,0.7034,0.7098,0.7295,0.7555,1.977,2.1928,0.0,0.0,0.0,0.0,0.0,0.0,0.0,0.0,0.0,0.0,0.0,0.0,0.0,0.0,0.0,0.0,1.4544,0.0,0.0,0.0,0.0,0.0,1.6786,1.7915,1.8728,0.0,0.0,0.0,0.0,0.0,0.0,0.0,2.3907,0.0,0.0,0.0,2.6161,0.0,2.601,2.5408,0.0,2.4374,2.3576,2.255,2.0773,1.9998,1.9672,0.0,1.8002,1.7868,0.0,1.7393,0.0,0.0,0.0,0.0,0.0,0.0,0.0,0.0,1.5898,0.0,0.0,0.0,1.8199,1.942,0.0,0.0,0.0,0.0,0.0,0.0,0.0,0.0,0.0,0.0,0.0,0.0,0.0,0.0,0.0,0.0,0.0,2.4986,2.4396,2.3821,2.3264,2.2051,2.0864,1.9771,1.8252,1.7042,1.6175,1.492,1.4108,1.3698,1.3323,1.3129,1.3129,1.3094,1.2745,1.2119,1.1192,1.044,0.9796,0.8857,0.8505,0.8463,0.7797,0.7525,0.7543,0.7795,0.7685,0.747,1.9279,2.092,0.0,0.0,0.0,0.0,0.0,0.0,0.0,0.0,0.0,0.0,0.0,0.0,0.0,0.0,0.0,1.5884,0.0,0.0,0.0,0.0,0.0,0.0,0.0,1.8233,1.8963,1.9311,2.1129,0.0,0.0,0.0,0.0,0.0,2.5783,0.0,2.7374,0.0,0.0,0.0,0.0,0.0,0.0,2.4452,2.2883,2.1344,2.0545,1.9982,1.9564,0.0,1.9037,0.0,0.0,0.0,0.0,0.0,0.0,0.0,0.0,0.0,0.0,0.0,0.0,0.0,0.0,0.0,1.7391,0.0,0.0,0.0,0.0,0.0,0.0,0.0,0.0,0.0,0.0,0.0,0.0,0.0,0.0,0.0,0.0,0.0,0.0,0.0,0.0,2.4024,2.3444,2.2389,2.1295,2.021,1.8998,1.7822,1.6727,1.5652,1.476,1.4029,1.3665,1.3391,1.3185,1.2889,1.2422,1.184,1.0861,1.0114,0.955,0.8873,0.8712,0.8836,0.8365,0.8355,0.8586,0.8634,0.8836,0.9084,0.0,0.0,0.0,0.0,0.0,0.0,0.0,0.0,0.0,0.0,0.0,0.0,1.9641,1.8056,0.0,0.0,0.0,1.7134,0.0,0.0,1.7966,0.0,0.0,0.0,0.0,0.0,1.9262,1.9731,0.0,0.0,0.0,0.0,0.0,0.0,0.0,2.7703,2.8356,0.0,0.0,2.8216,2.7328,2.6716,2.6141,2.4365,2.2409,2.0634,2.07,2.0249,1.9708,2.023,1.9882,0.0,1.9294,0.0,0.0,0.0,0.0,0.0,1.8403,0.0,0.0,0.0,0.0,0.0,0.0,0.0,0.0,0.0,0.0,0.0,0.0,0.0,0.0,0.0,0.0,0.0,0.0,0.0,0.0,0.0,0.0,0.0,0.0,0.0,0.0,0.0,2.4706,0.0,2.3542,2.2663,2.1709,2.0698,1.9624,1.851,1.7319,1.6253,1.5273,1.4429,1.4046,1.3604,1.3112,1.2875,1.2231,1.1322,1.0738,1.0082,0.9393,0.9017,0.9001,0.9188,0.9066,0.9343,0.9756,0.9437,0.9654,1.0094,2.0675,2.1743,0.0,0.0,0.0,0.0,0.0,0.0,0.0,0.0,0.0,0.0,0.0,0.0,0.0,0.0,0.0,1.774,1.7239,0.0,1.842,0.0,0.0,0.0,0.0,0.0,0.0,0.0,0.0,0.0,0.0,0.0,0.0,0.0,0.0,2.7895,2.8083,2.7593,2.7936,2.8701,2.784,2.6546,2.5049,0.0,2.2752,2.1214,2.1477,0.0,0.0,2.0861,2.0447,0.0,0.0,0.0,0.0,0.0,0.0,0.0,0.0,0.0,0.0,1.7887,0.0,0.0,0.0,0.0,1.5288,0.0,0.0,0.0,0.0,0.0,0.0,0.0,0.0,0.0,0.0,0.0,0.0,0.0,0.0,0.0,0.0,0.0,0.0,2.5301,2.4798,2.4284,2.382,2.2903,2.213,2.1579,2.0083,1.8901,1.8067,1.6503,1.54,1.4777,1.4445,1.38,1.2938,1.3425,1.2592,1.0756,1.1248,1.0778,0.9684,0.9592,0.9538,0.9531,0.9909,1.0448,1.0954,1.0161,0.9764,0.9711,0.0,0.0,0.0,0.0,0.0,0.0,0.0,2.4888,0.0,0.0,0.0,0.0,0.0,0.0,1.959,0.0,0.0,1.9787,1.9768,2.004,0.0,0.0,0.0,1.9501,0.0,0.0,0.0,0.0,0.0,0.0,0.0,0.0,0.0,0.0,0.0,2.9019,0.0,0.0,0.0,0.0,0.0,2.6588,2.5068,0.0,0.0,2.1878,2.1965,2.1716,0.0,2.1246,2.0958,2.0566,2.0035,1.9821,1.9702,1.9361,1.9525,0.0,0.0,0.0,1.9343,1.8841,0.0,0.0,0.0,0.0,0.0,0.0,0.0,0.0,0.0,0.0,0.0,0.0,0.0,0.0,0.0,0.0,0.0,0.0,0.0,0.0,0.0,0.0,0.0,2.51,2.4817,2.4332,0.0,2.2932,2.2241,2.1612,2.0494,1.9496,1.869,1.7372,1.6253,1.5386,1.488,1.421,1.3432,1.3249,1.2672,1.1811,1.1587,1.1268,1.0891,1.0719,1.0646,1.0629,1.0735,1.09,1.1072,1.0787,1.1012,1.1396,2.3262,0.0,0.0,0.0,0.0,0.0,0.0,0.0,0.0,0.0,2.3718,0.0,2.1987,0.0,2.0156,0.0,2.0493,2.061,2.0944,2.1128,0.0,1.9994,2.0189,0.0,0.0,0.0,0.0,0.0,0.0,2.4002,0.0,0.0,0.0,0.0,0.0,0.0,0.0,0.0,3.0344,0.0,0.0,2.7181,0.0,0.0,2.3943,2.2261,0.0,2.2212,2.1838,2.1735,2.1536,2.1275,2.0631,2.0381,2.0248,1.9776,1.9912,2.0122,1.9808,1.9861,0.0,1.9518,1.901,0.0,1.7973,0.0,0.0,0.0,0.0,0.0,0.0,0.0,0.0,0.0,0.0,0.0,0.0,0.0,0.0,0.0,0.0,0.0,0.0,0.0,2.4747,2.4583,2.4497,2.4184,0.0,0.0,2.2207,2.1594,2.0616,1.9712,1.8872,1.7758,1.6749,1.5862,1.5279,1.4481,1.3584,1.347,1.2993,1.229,1.2078,1.1885,1.1678,1.1545,1.1394,1.1281,1.1495,1.1505,1.1411,1.1384,1.1821,1.2294,0.0,0.0,0.0,0.0,2.6442,0.0,0.0,0.0,2.6486,0.0,2.5063,2.3823,2.3094,2.2008,2.1082,2.0398,2.0248,0.0,2.0734,2.1212,0.0,0.0,2.0557,2.0327,1.8769,0.0,0.0,0.0,0.0,0.0,0.0,0.0,0.0,0.0,2.9347,0.0,2.8237,2.9804,3.0198,2.9779,2.9475,2.8216,2.6454,2.5631,0.0,2.2463,2.2786,2.2527,2.2082,2.2313,2.2192,2.1823,2.1228,2.1102,2.1039,2.0529,2.056,2.0727,2.0578,2.0342,2.0118,1.9909,0.0,0.0,0.0,0.0,1.7252,0.0,0.0,0.0,0.0,0.0,0.0,0.0,0.0,0.0,0.0,0.0,0.0,0.0,0.0,0.0,0.0,2.3664,2.3759,2.3733,2.3906,0.0,0.0,0.0,2.211,2.1558,2.0566,1.9619,1.873,1.7768,1.6943,1.6274,1.5647,1.4695,1.3492,1.4063,1.3554,1.2242,1.2751,1.264,1.21,1.21,1.1861,1.1588,1.2215,1.2303,1.2082,1.1983,1.2126,1.2347,2.6176,2.7597,2.8793,0.0,2.9642,2.9653,0.0,0.0,0.0,0.0,2.5287,2.3851,2.3211,2.2494,2.2121,2.2265,2.1855,0.0,0.0,0.0,0.0,2.0543,2.0223,1.9872,1.9461,2.0023,0.0,2.0848,0.0,0.0,2.5279,0.0,0.0,0.0,0.0,0.0,3.0138,3.0838,3.0618,2.9738,2.8966,2.7942,0.0,0.0,2.5127,2.3972,2.3182,2.2799,2.2638,2.2466,2.2341,2.222,2.1849,2.1763,2.1733,2.1538,2.1539,2.1508,2.1198,2.1039,2.0909,2.0561,2.007,1.9618,0.0,0.0,0.0,0.0,0.0,0.0,0.0,0.0,0.0,0.0,0.0,0.0,0.0,0.0,0.0,0.0,0.0,0.0,2.0849,2.1597,2.2191,2.2724,2.3673,0.0,0.0,0.0,0.0,2.2048,2.1243,2.0652,2.0314,1.9036,1.8072,1.7446,1.6445,1.543,1.4462,1.4599,1.433,1.3745,1.3877,1.3848,1.3684,1.3496,1.3417,1.3401,1.3379,1.3316,1.3195,1.2682,1.2448,1.2395,2.7681,0.0,0.0,3.1659,0.0,0.0,3.1001,0.0,0.0,2.8253,2.6309,0.0,2.4103,2.2973,2.2339,2.2546,2.2264,0.0,0.0,0.0,0.0,2.0984,2.0576,2.0115,1.9632,1.9899,0.0,2.101,0.0,0.0,2.5122,0.0,0.0,0.0,0.0,3.0068,0.0,3.119,3.0802,2.9808,2.9405,0.0,0.0,2.6543,2.5815,2.5129,2.3815,2.3188,2.2952,2.2777,2.2682,2.2616,2.2317,2.2206,2.2136,2.1998,2.194,2.1749,2.0843,2.0577,2.0474,2.0081,1.9264,1.8624,1.8911,1.8023,1.715,0.0,0.0,0.0,0.0,0.0,0.0,0.0,0.0,0.0,0.0,0.0,0.0,0.0,0.0,0.0,1.6648,1.879,2.0461,2.1282,0.0,0.0,0.0,0.0,0.0,2.2062,2.1164,2.06,2.043,1.9172,1.8221,1.7586,1.6647,1.5706,1.4808,1.4808,1.4699,1.4525,1.4525,1.4525,1.4509,1.4353,1.4257,1.4176,1.3967,1.3934,1.395,1.345,1.3035,1.268,0.0,0.0,0.0,0.0,0.0,0.0,0.0,3.0767,0.0,2.927,0.0,2.565,2.5013,2.3297,2.2132,2.2005,0.0,2.2104,2.2622,2.2658,2.2235,2.1277,2.1223,2.0674,1.9605,1.9621,0.0,0.0,0.0,2.3378,2.5197,0.0,0.0,0.0,0.0,0.0,0.0,3.0903,3.0577,0.0,3.0077,2.95,2.8353,2.6913,2.6297,2.5986,2.4496,2.3631,2.3194,2.3163,2.3114,2.301,2.2678,2.2529,2.2436,2.2195,2.2141,2.1776,2.0194,1.9723,1.9585,1.9137,1.7939,1.7104,1.7992,1.6909,1.5921,1.6539,1.6162,1.5785,0.0,0.0,0.0,0.0,0.0,0.0,0.0,0.0,0.0,0.0,0.0,0.0,0.0,1.5848,1.8546,0.0,0.0,0.0,0.0,0.0,0.0,0.0,2.083,0.0,1.9758,0.0,1.7984,1.7138,1.6608,1.5808,1.4871,1.4871,1.4871,1.4871,1.4871,1.4871,1.4871,1.4841,1.4653,1.4383,1.4227,1.4294,1.4438,1.4117,1.3698,1.3232,0.0,0.0,0.0,0.0,0.0,3.2006,3.114,2.9591,2.8266,2.7621,2.5628,0.0,2.4116,2.2871,2.2031,2.2011,2.1534,0.0,0.0,0.0,0.0,2.2003,2.1442,2.0781,2.0092,1.9875,1.9908,0.0,2.2178,2.379,2.509,2.7359,0.0,0.0,0.0,0.0,3.0059,2.9669,0.0,2.9033,2.9421,2.936,2.8887,2.7365,2.6754,2.6455,2.4811,2.4032,2.3738,2.35,2.3421,2.3352,2.3079,2.2985,2.2947,2.2846,2.282,2.2414,2.0551,2.0096,1.9918,1.888,1.7939,1.7728,1.934,1.7792,1.6313,1.737,1.6963,1.6271,1.5764,0.0,0.0,0.0,0.0,0.0,0.0,0.0,0.0,0.0,0.0,0.0,0.0,0.0,0.0,0.0,0.0,0.0,0.0,0.0,0.0,0.0,0.0,0.0,0.0,0.0,1.8648,1.6954,1.7004,1.6398,1.5222,1.5222,1.5222,1.5222,1.5222,1.5222,1.5207,1.5027,1.4936,1.4859,1.4611,1.4674,1.4814,1.4214,1.4068,1.41,0.0,0.0,0.0,0.0,0.0,0.0,0.0,2.8356,0.0,2.7731,2.6247,2.5012,2.4662,2.3032,2.1916,2.1861,2.1568,2.1497,2.1733,2.2108,2.2213,2.1936,2.1722,0.0,2.0944,2.0322,2.0426,2.1301,2.2384,2.3717,2.5297,2.7261,2.8504,0.0,0.0,3.0714,0.0,0.0,0.0,2.947,2.9531,2.9453,2.9136,2.7634,2.6963,2.6656,2.5071,2.4424,2.4256,2.3844,2.3709,2.3678,2.3555,2.35,2.3518,2.3484,2.3479,2.3077,2.1309,2.0192,1.9426,1.9064,1.716,1.5861,1.7707,1.6237,1.4717,1.5508,1.5449,1.544,1.6052,1.6669,0.0,0.0,0.0,0.0,0.0,0.0,0.0,0.0,0.0,0.0,0.0,0.0,0.0,0.0,0.0,0.0,0.0,0.0,0.0,0.0,0.0,0.0,0.0,0.0,0.0,1.7425,1.7272,1.6532,1.5298,1.5298,1.5298,1.5298,1.5298,1.5298,1.5298,1.5208,1.5163,1.5148,1.5012,1.5027,1.5118,1.4796,1.4688,1.4611,0.0,3.5035,0.0,0.0,3.2884,0.0,0.0,2.7791,2.701,2.7517,2.6467,2.5429,2.4759,2.2936,2.1733,2.1615,2.158,2.1637,2.1793,2.2446,2.2606,2.2046,2.232,2.2262,2.1803,2.1004,2.1182,0.0,2.2743,2.3865,2.5716,2.7088,2.8241,0.0,0.0,0.0,0.0,0.0,3.0124,3.0115,2.9818,2.9495,2.9033,2.7705,2.6995,2.6524,2.5185,2.47,2.4634,2.422,2.4032,2.3974,2.3915,2.3895,2.3895,2.3895,2.3911,2.3462,2.1516,1.9974,1.8807,1.8406,1.5836,1.3902,1.5782,1.4362,1.2913,1.3871,1.43,1.497,1.6542,1.7508,0.0,0.0,0.0,0.0,0.0,0.0,0.0,0.0,0.0,0.0,0.0,0.0,0.0,0.0,0.0,0.0,0.0,0.0,0.0,0.0,0.0,2.107,2.0991,0.0,1.9176,0.0,1.7436,1.6619,1.5517,1.5386,1.5313,1.5298,1.5328,1.5313,1.5298,1.5298,1.5298,1.5298,1.5298,1.5298,1.5298,1.5298,1.5208,1.4951,0.0,0.0,0.0,0.0,0.0,0.0,0.0,2.8756,2.6947,2.5102,2.417,2.3412,2.2733,2.1876,2.1359,2.1343,2.1231,2.134,2.1768,2.2386,2.2835,2.3056,2.3489,2.3311,2.2432,2.2091,2.1935,0.0,0.0,2.4772,2.6353,2.7748,2.8624,0.0,0.0,0.0,0.0,2.9971,3.0165,3.0249,2.9867,2.9223,2.8389,2.7534,2.6735,2.5957,2.5019,2.47,2.47,2.4642,2.4458,2.4219,2.3974,2.3895,2.3895,2.3895,2.3895,2.3239,2.0157,1.9287,1.8512,1.5449,1.3905,1.3622,1.5505,1.3622,1.2202,1.4811,1.5725,1.6327,1.7103,1.7807,1.8276,0.0,0.0,0.0,0.0,0.0,0.0,0.0,0.0,0.0,0.0,1.4131,0.0,0.0,0.0,0.0,0.0,0.0,0.0,2.2536,0.0,2.0943,2.0649,2.0089,0.0,1.7974,1.7454,1.6884,1.6265,1.5667,1.5359,1.5313,1.5359,1.5359,1.5298,1.5298,1.5298,1.5298,1.5298,1.5298,1.5298,1.5298,1.5298,1.5223,0.0,0.0,0.0,0.0,0.0,0.0,0.0,2.8032,2.6809,2.5514,2.4448,2.372,2.3456,2.2149,2.1293,2.1293,2.1246,2.1488,2.2114,2.2752,2.3294,2.3657,2.4284,2.4343,2.377,2.3354,2.3244,0.0,0.0,0.0,0.0,2.8158,0.0,0.0,0.0,3.1321,3.1988,3.0748,3.06,3.1121,3.0093,2.9176,2.8313,2.7505,2.6706,2.5888,2.5008,2.47,2.47,2.47,2.4634,2.4526,2.4415,2.4381,2.4381,2.4381,2.4382,2.4002,2.2174,2.0933,1.9575,1.7183,1.5239,1.4077,1.4772,1.3646,1.2759,1.3835,1.5386,1.6724,1.7314,1.909,2.0448,0.0,0.0,0.0,0.0,0.0,0.0,0.0,0.0,0.0,0.0,0.0,1.5218,0.0,0.0,0.0,0.0,0.0,0.0,2.2796,0.0,2.1461,2.1323,2.0599,1.9697,1.8646,1.7667,1.6811,1.6069,1.561,1.5403,1.5359,1.5418,1.5388,1.5313,1.5329,1.5343,1.5298,1.5298,1.5298,1.5298,1.5298,1.5298,1.5298,3.1901,0.0,3.3157,0.0,3.0402,2.9813,2.8541,2.7697,2.7007,2.6506,2.5442,2.4533,2.4,2.251,2.1653,2.1958,2.1867,2.2049,2.2637,2.3456,2.3922,2.3895,2.4753,0.0,2.4744,2.4338,2.4343,2.4806,2.5608,0.0,0.0,0.0,0.0,0.0,3.1836,3.2346,3.2907,3.1384,3.1014,3.132,2.9888,2.881,2.7965,2.7148,2.6349,2.5541,2.4914,2.47,2.47,2.47,2.47,2.47,2.47,2.47,2.47,2.47,2.4703,2.4398,2.306,2.1764,2.0273,1.8084,1.5814,1.4169,1.4396,1.3463,1.2687,1.3133,1.5391,1.7339,1.7476,1.9847,2.1823,2.1833,0.0,0.0,0.0,0.0,0.0,0.0,0.0,1.6397,1.4778,0.0,0.0,0.0,0.0,0.0,0.0,0.0,0.0,0.0,0.0,0.0,0.0,2.1167,2.0258,1.9405,1.8064,1.7022,1.624,1.5756,1.5565,1.5609,1.5609,1.5507,1.5328,1.5388,1.5359,1.5298,1.5298,1.5298,1.5298,1.5298,1.5298,1.5298,3.0704,3.1139,3.1462,3.0304,2.9441,2.893,2.8879,2.8195,2.7701,2.7683,2.6862,2.5582,2.3802,2.2708,2.2499,2.3488,2.322,2.3071,2.327,2.4475,2.473,0.0,0.0,2.5368,2.5091,2.4958,2.5015,2.5287,0.0,0.0,2.9006,0.0,3.186,3.1546,3.2601,3.2426,3.1356,3.1654,3.1336,3.048,2.9017,2.7928,2.7129,2.6311,2.5466,2.47,2.47,2.47,2.47,2.47,2.47,2.47,2.47,2.47,2.47,2.47,2.47,2.4155,2.1703,2.1008,2.0194,1.686,1.4717,1.3653,1.4569,1.2847,1.149,1.3146,1.6262,1.8427,1.7651,1.9754,2.1639,2.168,0.0,0.0,0.0,0.0,0.0,0.0,1.8821,1.7551,1.6198,0.0,0.0,0.0,0.0,0.0,0.0,0.0,0.0,2.2891,2.2193,0.0,2.2874,2.1695,2.078,2.0163,1.8687,1.7669,1.7058,1.627,1.5966,1.6081,1.5952,1.571,1.5404,1.5404,1.5359,1.5298,1.5298,1.5298,1.5298,1.5298,1.5298,1.5298,2.916,2.9433,2.9632,2.8631,2.8245,2.807,2.807,2.7859,2.7701,2.7701,2.6994,2.6292,2.5711,2.4141,2.3463,0.0,2.3792,2.3869,0.0,2.554,2.5789,2.5749,2.6202,2.6316,2.6063,2.6193,2.6318,2.6404,0.0,0.0,0.0,3.0404,3.0784,3.0441,3.1482,3.1831,3.1617,3.123,3.0983,3.0772,2.9701,2.8444,2.7167,2.6923,2.5946,2.4707,2.4742,2.4776,2.4791,2.4811,2.4832,2.4818,2.4779,2.4746,2.47,2.47,2.47,2.4294,2.2398,2.1884,2.1221,1.8406,1.6047,1.4516,1.4863,1.3887,1.3524,1.5705,1.772,1.9366,2.0212,2.1865,2.311,2.3131,2.2525,0.0,0.0,0.0,0.0,0.0,0.0,1.8759,0.0,1.7239,0.0,0.0,0.0,0.0,0.0,0.0,0.0,0.0,2.2222,0.0,2.2219,2.1467,2.066,1.978,1.8757,1.7622,1.6431,1.6394,1.6287,1.6109,1.6299,1.627,1.6077,1.6037,1.5869,1.5624,1.5536,1.5418,1.5328,1.5566,1.5536,1.5403,2.8131,2.8541,2.8882,2.7973,2.7821,2.7792,2.7716,2.7701,2.7701,2.7701,2.7297,2.7016,2.7016,2.5691,0.0,2.551,2.5062,2.5169,2.6128,2.6546,2.6682,2.6559,2.6912,2.6954,2.6657,0.0,0.0,2.7128,2.8388,2.9165,2.948,3.038,3.0699,3.0539,3.1285,3.1526,3.1328,3.0974,3.0697,3.0433,2.956,2.8406,2.7167,2.6848,2.589,2.4715,2.4791,2.4794,2.4808,2.4874,2.4902,2.4895,2.484,2.4816,2.4764,2.4704,2.4723,2.4388,2.2734,2.2534,2.2183,1.9686,1.7672,1.6168,1.5574,1.5087,1.5247,1.7004,1.8746,2.0254,2.1272,2.2942,2.4192,2.4243,2.3568,2.3225,2.3729,0.0,0.0,0.0,0.0,0.0,0.0,1.8199,0.0,0.0,0.0,0.0,0.0,0.0,0.0,2.2687,2.2132,0.0,2.1913,2.1538,2.0757,1.9601,1.8437,1.7375,1.645,1.6646,1.6633,1.645,1.6659,1.6633,1.6419,1.6229,1.6008,1.5782,1.558,1.5462,1.5433,1.5595,1.5667,1.571,2.7563,2.8297,0.0,0.0,2.7996,0.0,2.7745,2.7716,2.7716,2.7701,2.7701,2.7701,2.7701,2.7211,2.6902,2.6902,0.0,0.0,0.0,2.7455,2.7411,2.6438,2.7071,2.7286,2.6937,2.7084,2.7303,2.7569,2.9004,2.9821,3.0002,3.0782,3.12,3.134,3.1677,3.1331,3.0549,3.081,3.0461,2.9636,2.8754,2.7928,2.7111,2.6311,2.5466,2.4723,2.4779,2.4808,2.4823,2.4895,2.4922,2.4915,2.4915,2.4915,2.4888,2.4749,2.4749,2.4443,2.2846,2.2985,2.3062,2.0829,1.9512,1.8342,1.6593,1.6263,1.6523,1.7319,1.9371,2.1086,2.1249,2.3226,2.4869,2.4992,2.4265,2.3804,2.4172,0.0,0.0,0.0,0.0,0.0,0.0,1.9327,1.9471,0.0,0.0,0.0,0.0,0.0,2.3427,2.2046,2.1955,2.1911,2.1913,2.179,2.0986,1.9502,1.7824,1.7018,1.7005,1.7018,1.7018,1.7005,1.7018,1.6853,1.6541,1.6131,1.5922,1.5839,1.5492,1.5492,1.5638,1.5551,1.5797,1.6176,0.0,0.0,2.7798,2.8088,2.8146,2.8091,2.7954,2.7925,2.7864,2.7716,2.7701,2.7701,2.7701,2.7802,2.7865,2.7865,2.7282,2.7193,2.7798,2.8094,2.8043,2.7529,2.7787,2.7692,2.7132,2.7604,2.8024,2.8344,2.8717,2.8915,2.8965,2.9308,2.952,2.9619,2.9934,3.0001,2.9851,3.001,2.996,2.9688,2.8762,2.7928,2.7111,2.6311,2.5479,2.4779,2.4847,2.4946,2.5044,2.512,2.5125,2.5113,2.5076,2.5101,2.5101,2.4914,2.4861,2.4666,2.3644,2.3518,2.3537,2.2969,2.1254,1.9087,1.6798,1.6295,1.6874,1.8944,2.0358,2.1616,2.2913,2.4223,2.5096,2.5069,2.4714,2.4185,2.3481,2.3234,0.0,0.0,2.174,2.1375,2.0906,2.0573,2.049,0.0,0.0,0.0,0.0,2.3261,2.326,2.2254,2.2212,2.2139,2.1984,2.1304,2.0224,1.8741,1.7827,1.7248,1.7005,1.7261,1.7236,1.7018,1.7261,1.7338,1.724,1.676,1.6617,1.6602,1.6217,1.612,1.6243,1.647,1.6365,1.6163,2.6669,2.7277,2.7815,2.7758,2.8054,2.8246,2.8109,2.8095,2.8035,2.7933,2.7933,2.7933,2.7933,2.8146,2.8286,2.8286,2.7958,2.7926,2.8357,2.8445,2.8401,2.8237,2.8286,2.8106,2.7619,2.7936,2.8201,2.8365,2.8518,2.865,2.8749,2.8904,2.9064,2.9203,2.9504,2.9645,2.9654,2.9764,2.9555,2.9126,2.8603,2.7703,2.6612,2.6202,2.5525,2.4808,2.4946,2.5031,2.5114,2.5187,2.5191,2.5185,2.5163,2.5181,2.518,2.5063,2.5019,2.4815,2.3961,2.4043,2.4157,2.3398,2.1602,1.9688,1.8303,1.7671,1.7884,1.964,2.1004,2.219,2.3165,2.4399,2.5091,2.4667,2.4757,2.4513,2.3435,2.3334,0.0,2.2781,2.2388,2.2095,2.19,2.1655,2.154,2.1668,0.0,0.0,2.2721,2.3258,2.3237,2.2518,2.2463,2.2292,2.1996,2.0805,1.9796,1.8989,1.7971,1.7398,1.7236,1.7427,1.7403,1.7236,1.7427,1.7398,1.7248,1.6968,1.6799,1.6696,1.6432,1.6419,1.6552,1.6683,1.6686,1.6678,2.6347,2.7363,2.8218,2.7527,2.7988,2.838,2.8259,2.8214,2.8214,2.8201,2.8201,2.8201,2.8201,2.8313,2.8411,2.8411,2.8523,2.86,2.86,2.86,2.86,2.86,2.86,2.8435,2.8116,2.8102,2.8129,2.817,2.8448,2.8687,2.887,2.9,2.9166,2.9341,2.958,2.9692,2.9655,2.9587,2.9108,2.8351,2.8108,2.7179,2.5949,2.5863,2.5397,2.4787,2.4998,2.5057,2.5082,2.5162,2.5191,2.5191,2.5191,2.5191,2.5191,2.5191,2.5169,2.4949,2.4206,2.4549,2.4739,2.3195,2.1637,2.0431,2.0282,1.9558,1.9135,1.9883,2.1436,2.2666,2.278,2.4169,2.5066,2.4283,2.4662,2.4683,2.3664,0.0,2.3226,2.3518,2.2823,2.2457,2.2785,2.2591,2.253,2.2708,2.2596,2.2643,0.0,2.3312,2.3289,2.2838,2.2756,2.2394,2.1717,2.0333,1.9512,1.9267,1.8066,1.7498,1.7503,1.7503,1.7503,1.7503,1.7503,1.7338,1.7072,1.6952,1.6812,1.6646,1.6538,1.663,1.6815,1.6699,1.6908,1.7244,2.766,2.7664,2.7755,2.8303,2.8489,2.8523,2.838,2.8367,2.8327,2.8201,2.8201,2.8201,2.8201,2.8313,2.8411,2.8411,2.8523,2.86,2.86,2.86,2.86,2.86,2.86,2.8435,2.8116,2.8102,2.8242,2.8518,2.8574,2.8612,2.865,2.8839,2.8945,2.898,2.9144,2.9304,2.9405,2.8735,2.839,2.8194,2.6764,2.6019,2.5678,2.4942,2.4657,2.4645,2.4794,2.4874,2.4961,2.5131,2.5191,2.5191,2.5191,2.5191,2.5191,2.5191,2.5185,2.5155,2.5021,2.5078,2.4962,2.4023,2.2991,2.2058,2.1474,2.0593,1.9947,2.0208,2.1637,2.2836,2.272,2.4174,2.5277,2.4987,2.4848,2.4494,2.3701,0.0,2.3954,2.3419,2.3594,2.3805,2.3864,2.3441,2.3189,2.3259,2.3105,2.31,2.3392,2.3466,2.3461,2.3371,2.3265,2.2322,2.0491,2.0009,1.911,1.7821,1.7605,1.7493,1.7503,1.7503,1.7503,1.7503,1.7503,1.7462,1.7403,1.7109,1.7134,1.7314,1.7018,1.7097,1.7362,1.735,1.7212,1.7153,2.714,2.759,2.8038,2.7966,2.831,2.8574,2.851,2.8497,2.8484,2.8414,2.8419,2.8419,2.8419,2.8471,2.8497,2.8497,2.8562,2.86,2.86,2.86,2.86,2.86,2.86,2.8518,2.8365,2.8383,2.8453,2.86,2.86,2.86,2.86,2.881,2.8905,2.8899,2.8629,2.8563,2.8587,2.7837,2.727,2.6832,2.606,2.5437,2.4964,2.4635,2.4555,2.4604,2.4704,2.4804,2.4915,2.5,2.5113,2.5191,2.5208,2.5195,2.5195,2.5193,2.5195,2.5191,2.5191,2.5225,2.4938,2.3626,2.3011,2.238,2.1178,2.0535,2.0366,2.0946,2.2009,2.2968,2.3381,2.4455,2.5066,2.4347,2.4587,0.0,0.0,2.417,2.4516,2.4099,2.4273,2.4388,2.4318,2.4031,2.3842,2.3891,2.3696,2.3649,2.3774,2.3742,2.3649,2.3495,2.3117,2.2255,2.0859,2.0141,1.9231,1.809,1.7695,1.7505,1.7503,1.7503,1.7503,1.7503,1.7503,1.7403,1.7236,1.7261,1.7248,1.7236,1.7261,1.7362,1.7536,1.7905,1.7934,1.7916,2.6953,2.7749,2.8419,2.7785,2.8183,2.86,2.86,2.86,2.86,2.86,2.86,2.86,2.86,2.86,2.86,2.86,2.86,2.86,2.86,2.86,2.86,2.86,2.86,2.86,2.86,2.86,2.86,2.86,2.86,2.86,2.86,2.8767,2.8839,2.8833,2.8187,2.7925,2.7911,2.6959,2.6191,2.5634,2.5449,2.4967,2.4355,2.4462,2.4507,2.4524,2.4594,2.4734,2.4854,2.4895,2.5025,2.5203,2.5206,2.5198,2.5204,2.5206,2.5209,2.5231,2.5231,2.5269,2.499,2.3673,2.3236,2.2717,2.1265,2.0763,2.0827,2.1576,2.2317,2.3072,2.3919,2.4683,2.4902,2.3982,0.0,0.0,0.0,2.4456,2.4915,2.4821,2.4785,2.4734,2.4632,2.4485,2.4392,2.4392,2.421,2.4086,2.4077,2.3988,2.3837,2.3599,2.3025,2.2319,2.1512,2.0463,1.9496,1.8639,1.7881,1.7529,1.7498,1.7498,1.7503,1.7503,1.7503,1.735,1.713,1.7386,1.735,1.713,1.7398,1.7503,1.7586,1.8257,1.8505,1.8638,2.8437,2.8527,2.8582,2.8527,2.8563,2.86,2.86,2.86,2.86,2.86,2.86,2.86,2.86,2.86,2.86,2.86,2.86,2.86,2.86,2.86,2.86,2.86,2.86,2.86,2.86,2.86,2.86,2.86,2.86,2.86,2.86,2.8687,2.8706,2.8682,2.7953,2.7731,2.7811,2.6189,2.552,2.5449,2.47,2.433,2.4218,2.4228,2.4228,2.4256,2.4392,2.4543,2.4727,2.4854,2.5038,2.5206,2.5193,2.5209,2.5206,2.5192,2.5243,2.5293,2.5293,2.5302,2.5308,2.5282,2.4637,2.3787,2.2979,2.2177,2.1621,2.1779,2.2372,2.3117,2.3873,2.4652,2.5103,2.4846,0.0,0.0,2.4974,2.5032,2.51,2.5159,2.5043,2.4981,2.4949,2.4785,2.4666,2.4666,2.4483,2.4346,2.4283,2.4154,2.4016,2.3886,2.3353,2.2668,2.1873,2.0865,1.9828,1.8773,1.7975,1.7554,1.75,1.7498,1.7503,1.7503,1.7503,1.7498,1.7477,1.7486,1.7498,1.7477,1.7486,1.7503,1.7586,1.8257,1.8505,1.8704,2.86,2.86,2.86,2.86,2.86,2.86,2.86,2.86,2.86,2.86,2.86,2.86,2.86,2.86,2.86,2.86,2.86,2.86,2.86,2.86,2.86,2.86,2.86,2.86,2.86,2.86,2.86,2.86,2.86,2.86,2.86,2.8675,2.8439,2.7919,2.7235,2.6673,2.6224,2.5117,2.4669,2.4661,2.4357,2.4228,2.419,2.419,2.419,2.4199,2.4266,2.4471,2.4715,2.4757,2.4967,2.5193,2.519,2.5236,2.5257,2.5253,2.5308,2.5372,2.5414,2.5425,2.5305,2.483,2.4051,2.3212,2.2423,2.1578,2.1266,2.2313,2.2726,2.3298,2.4562,2.5011,2.5111,2.4881,0.0,2.5006,2.4974,2.5074,2.5168,2.5195,2.5168,2.5121,2.5121,2.4974,2.4886,2.4886,2.4693,2.4518,2.4381,2.4192,2.4026,2.3907,2.37,2.313,2.2162,2.1147,2.0108,1.9041,1.8228,1.7755,1.7566,1.7721,1.7715,1.7571,1.7737,1.7978,1.82,1.7712,1.7783,1.8235,1.8145,1.8174,1.8389,1.9498,1.9974,2.0177,2.86,2.86,2.86,2.86,2.86,2.86,2.86,2.86,2.86,2.86,2.86,2.86,2.86,2.86,2.86,2.86,2.86,2.86,2.86,2.86,2.86,2.86,2.86,2.86,2.86,2.86,2.86,2.86,2.8625,2.8637,2.8637,2.8452,2.8088,2.7523,2.6578,2.5845,2.5285,2.4519,2.419,2.419,2.419,2.419,2.419,2.419,2.419,2.419,2.419,2.4366,2.4618,2.4684,2.4893,2.514,2.5195,2.5257,2.5302,2.5303,2.5359,2.5441,2.5485,2.5528,2.5386,2.4787,2.4219,2.361,2.2802,2.2155,2.2041,2.3194,2.3395,2.3747,2.512,2.5293,2.5176,2.4987,2.5056,2.5099,2.5018,2.5138,2.5222,2.5222,2.5233,2.5233,2.5222,2.5122,2.5069,2.5057,2.4849,2.4586,2.4356,2.4182,2.4064,2.3976,2.3917,2.3552,2.2815,2.1782,2.0743,1.9709,1.9122,1.8491,1.7861,1.8188,1.8251,1.808,1.8172,1.856,1.9068,1.8496,1.8572,1.9022,1.8917,1.8921,1.9125,2.0339,2.0847,2.105,2.86,2.86,2.86,2.86,2.86,2.86,2.86,2.86,2.86,2.86,2.86,2.86,2.86,2.86,2.86,2.86,2.86,2.86,2.86,2.86,2.86,2.86,2.86,2.86,2.86,2.86,2.86,2.86,2.8675,2.8694,2.8694,2.8012,2.7705,2.7613,2.6096,2.5393,2.5338,2.4548,2.419,2.419,2.4208,2.4208,2.4208,2.4208,2.4208,2.4208,2.419,2.4284,2.4424,2.4634,2.4825,2.5025,2.5154,2.5248,2.5308,2.5308,2.5397,2.5495,2.5495,2.5546,2.5601,2.5601,2.5601,2.5371,2.4571,2.4399,2.4399,2.4399,2.4356,2.4559,2.5351,2.539,2.5295,2.5295,2.5245,2.5192,2.5192,2.5257,2.5311,2.5311,2.5293,2.5298,2.5292,2.5247,2.5201,2.5193,2.4886,2.4555,2.4218,2.4141,2.4094,2.4094,2.3976,2.3907,2.3896,2.2843,2.18,2.0807,2.0725,1.9892,1.842,1.8894,1.9121,1.9104,1.8834,1.9198,2.0001,1.9937,1.9852,1.9792,1.9744,1.9668,1.9714,2.0511,2.0805,2.0933,2.86,2.86,2.86,2.86,2.86,2.86,2.86,2.86,2.86,2.86,2.86,2.86,2.86,2.86,2.86,2.86,2.86,2.86,2.86,2.865,2.8675,2.8675,2.8625,2.8625,2.8675,2.8675,2.87,2.8737,2.8761,2.8773,2.8773,2.8602,2.7935,2.6838,2.6426,2.5603,2.4548,2.43,2.419,2.4245,2.4805,2.5044,2.5044,2.5044,2.5044,2.497,2.4392,2.4284,2.4424,2.4634,2.4825,2.5031,2.5217,2.5274,2.5308,2.5308,2.5394,2.5508,2.5508,2.5585,2.5653,2.5607,2.5182,2.4705,2.4456,2.3938,2.367,2.4265,2.4373,2.4608,2.5357,2.5479,2.5447,2.5443,2.5371,2.5335,2.5329,2.5317,2.5298,2.5298,2.5307,2.5297,2.5292,2.5231,2.5164,2.5063,2.4708,2.4451,2.4356,2.4238,2.4151,2.4094,2.4064,2.3996,2.3907,2.3022,2.2345,2.1829,2.0733,2.0172,2.0075,1.9636,1.9651,2.0009,1.9932,2.0254,2.0809,2.0203,2.0249,2.0706,2.0642,2.0602,2.0688,2.1493,2.1776,2.1823,2.86,2.86,2.86,2.86,2.86,2.86,2.86,2.86,2.86,2.86,2.86,2.86,2.86,2.86,2.8612,2.8637,2.8662,2.8675,2.8675,2.8724,2.8749,2.8749,2.87,2.87,2.8749,2.8749,2.8761,2.8798,2.8822,2.8846,2.8827,2.8265,2.7475,2.6504,2.5913,2.5107,2.419,2.419,2.419,2.4245,2.4732,2.4934,2.4934,2.4934,2.4934,2.486,2.4373,2.4257,2.4356,2.461,2.4861,2.5103,2.5248,2.5308,2.5308,2.5308,2.5378,2.546,2.546,2.5552,2.5648,2.5607,2.5251,2.4915,2.4915,2.4511,2.428,2.4819,2.4915,2.5041,2.5461,2.5547,2.5529,2.5479,2.5426,2.5386,2.5361,2.5327,2.5308,2.5308,2.5293,2.5302,2.5292,2.5187,2.5032,2.4782,2.4532,2.4382,2.4321,2.4238,2.418,2.4151,2.4103,2.4054,2.3937,2.344,2.2922,2.2445,2.1808,2.1342,2.1067,2.0795,2.0789,2.0993,2.0915,2.1165,2.16,2.1116,2.1161,2.1524,2.1485,2.144,2.146,2.1986,2.22,2.2214,2.86,2.86,2.86,2.86,2.86,2.86,2.86,2.86,2.86,2.86,2.86,2.86,2.86,2.86,2.8637,2.8682,2.8773,2.8798,2.8798,2.8798,2.881,2.881,2.881,2.881,2.8828,2.881,2.881,2.8828,2.8881,2.888,2.877,2.735,2.6631,2.6429,2.4961,2.4263,2.419,2.419,2.419,2.4208,2.4281,2.43,2.43,2.43,2.43,2.4309,2.4227,2.4218,2.4266,2.4602,2.4942,2.5222,2.5274,2.5308,2.5308,2.5308,2.5359,2.5391,2.5391,2.5495,2.5595,2.5595,2.5642,2.5682,2.5706,2.5705,2.5684,2.5684,2.5684,2.5676,2.5603,2.5598,2.5552,2.5429,2.5395,2.5382,2.5313,2.5293,2.5308,2.5308,2.5303,2.5293,2.5276,2.5087,2.4806,2.4432,2.4381,2.433,2.4199,2.419,2.419,2.419,2.4151,2.4084,2.4006,2.3937,2.3541,2.2817,2.3415,2.2998,2.1731,2.2106,2.2183,2.2025,2.1772,2.1931,2.238,2.2324,2.2282,2.2225,2.2228,2.212,2.2027,2.2152,2.2214,2.2214,2.86,2.86,2.86,2.86,2.86,2.86,2.86,2.86,2.86,2.86,2.86,2.86,2.86,2.865,2.8682,2.8694,2.8803,2.8858,2.8798,2.8846,2.8881,2.8881,2.8881,2.8905,2.8959,2.8905,2.8905,2.8959,2.8964,2.8663,2.8033,2.7695,2.688,2.565,2.5301,2.4787,2.419,2.419,2.419,2.4263,2.4897,2.5136,2.5136,2.5136,2.5136,2.5064,2.4561,2.4355,2.4425,2.4799,2.5093,2.5287,2.5298,2.5308,2.5308,2.5308,2.5359,2.5391,2.5391,2.546,2.5521,2.5521,2.5532,2.5561,2.5679,2.5653,2.5614,2.5614,2.5614,2.5601,2.5532,2.5556,2.5563,2.5495,2.5432,2.5383,2.5386,2.5336,2.5308,2.5308,2.5307,2.5261,2.516,2.4818,2.4559,2.4407,2.4293,2.4219,2.4199,2.419,2.419,2.419,2.418,2.4151,2.4084,2.4064,2.3923,2.3622,2.3164,2.3091,2.3339,2.2405,2.2411,2.3111,2.244,2.2451,2.2897,2.247,2.2422,2.2582,2.2366,2.2225,2.2168,2.2254,2.2257,2.2214,2.86,2.86,2.86,2.86,2.86,2.86,2.86,2.86,2.86,2.86,2.86,2.86,2.86,2.8637,2.8687,2.8749,2.887,2.8929,2.8912,2.8929,2.894,2.894,2.894,2.8952,2.9005,2.897,2.8952,2.9005,2.9005,2.8785,2.8356,2.7585,2.6778,2.5933,2.5172,2.4585,2.419,2.419,2.419,2.4236,2.4659,2.4892,2.4968,2.4968,2.5031,2.5072,2.4725,2.4636,2.4715,2.493,2.5126,2.5292,2.5298,2.5308,2.5308,2.5308,2.5327,2.5348,2.5348,2.5391,2.5453,2.5453,2.548,2.5518,2.5593,2.5585,2.5547,2.5547,2.5547,2.5532,2.5467,2.551,2.5521,2.5418,2.5395,2.5394,2.5352,2.5322,2.5308,2.5308,2.5293,2.522,2.4981,2.4682,2.4459,2.432,2.4247,2.419,2.419,2.419,2.419,2.419,2.419,2.417,2.4094,2.4094,2.4056,2.3996,2.3535,2.3515,2.3878,2.3171,2.3093,2.3481,2.3067,2.2968,2.3067,2.266,2.2651,2.2863,2.2592,2.2474,2.2446,2.2487,2.2377,2.2254,2.8587,2.86,2.86,2.86,2.86,2.86,2.86,2.86,2.86,2.86,2.86,2.86,2.86,2.8612,2.8662,2.8785,2.8795,2.8835,2.8975,2.8847,2.8858,2.8987,2.9005,2.9005,2.9005,2.9005,2.9005,2.9005,2.9005,2.8932,2.8767,2.7281,2.6539,2.6337,2.485,2.419,2.419,2.419,2.4218,2.4247,2.4257,2.4364,2.4543,2.4556,2.464,2.4804,2.4825,2.4929,2.505,2.5047,2.516,2.5302,2.5298,2.5308,2.5308,2.5308,2.5308,2.5288,2.5308,2.5344,2.539,2.5406,2.5432,2.5467,2.5467,2.5476,2.5486,2.5486,2.5486,2.5463,2.5402,2.5436,2.5443,2.5317,2.5359,2.5361,2.5317,2.5308,2.5308,2.5308,2.5288,2.5143,2.483,2.4625,2.4415,2.4229,2.419,2.419,2.419,2.419,2.419,2.419,2.419,2.417,2.4113,2.4132,2.4132,2.4132,2.4064,2.3996,2.3927,2.3858,2.3761,2.3576,2.345,2.3329,2.3224,2.2832,2.287,2.3152,2.2838,2.2712,2.2694,2.2646,2.2528,2.2366,2.8574,2.86,2.86,2.86,2.86,2.86,2.86,2.86,2.86,2.86,2.86,2.86,2.86,2.8644,2.8724,2.8785,2.8237,2.8173,2.8862,2.8315,2.8282,2.8968,2.9005,2.9005,2.9005,2.9005,2.9005,2.9005,2.9005,2.8638,2.7934,2.7034,2.6227,2.5521,2.4622,2.419,2.419,2.419,2.4303,2.4452,2.4461,2.4575,2.476,2.4768,2.4782,2.4818,2.4935,2.5099,2.5261,2.5266,2.5273,2.5303,2.5303,2.5308,2.5308,2.5308,2.5308,2.5308,2.537,2.5344,2.5327,2.539,2.5361,2.5327,2.5327,2.5374,2.5406,2.5406,2.5406,2.5383,2.5327,2.537,2.5394,2.5308,2.5317,2.5303,2.5308,2.5308,2.5308,2.5308,2.5198,2.5032,2.4825,2.4623,2.4409,2.4218,2.4199,2.419,2.419,2.419,2.419,2.419,2.419,2.4208,2.418,2.418,2.418,2.418,2.418,2.4141,2.4064,2.3774,2.3753,2.3904,2.3254,2.3324,2.3813,2.2892,2.2913,2.3477,2.2985,2.2751,2.266,2.2443,2.2487,2.2605,2.8489,2.8549,2.86,2.86,2.86,2.86,2.86,2.86,2.8531,2.8339,2.8492,2.8518,2.8339,2.8551,2.8706,2.8749,2.8481,2.8474,2.8868,2.8178,2.8127,2.8968,2.8565,2.8528,2.8987,2.9005,2.8785,2.8338,2.8338,2.8374,2.8418,2.6722,2.6219,2.6696,2.5429,2.4879,2.4888,2.4948,2.48,2.4512,2.4615,2.4771,2.4917,2.4955,2.5006,2.5091,2.5143,2.5217,2.5293,2.5293,2.5298,2.5308,2.5308,2.5308,2.5308,2.5308,2.5327,2.5348,2.5359,2.5344,2.5348,2.5359,2.5322,2.5308,2.5308,2.5322,2.5335,2.5335,2.5335,2.534,2.5313,2.5322,2.534,2.5293,2.5308,2.5308,2.5308,2.5308,2.5308,2.5308,2.5179,2.5019,2.4828,2.4628,2.4417,2.421,2.4209,2.419,2.419,2.419,2.419,2.419,2.419,2.419,2.419,2.419,2.419,2.419,2.419,2.4161,2.4094,2.3955,2.3917,2.3986,2.3707,2.3721,2.3966,2.3393,2.3427,2.3774,2.3189,2.2862,2.266,2.2405,2.2363,2.2487]}]]